[[{"header":{"parameterUnit":"m.s-1","parameterCategory":1,"la1":30.6,"la2":29.2853,"lo1":-89.7004,"lo2":-87.6739,"dx":0.0162,"dy":0.0183,"nx":112,"ny":82,"refTime":"2023-01-20T18:00:00:Z","depth":0,"parameterNumber":2,"parameterNumberName":"U-component_of_WINDS"},"data":[0.0,0.0,0.0,0.0,0.0,0.0,0.0,0.0,0.0,0.0,0.0,0.0,0.0,0.0,0.0,0.0,0.0,0.0,0.0,0.0,0.0,0.0,0.0,0.0,0.0,0.0,0.0,0.0,0.0,0.0,0.0,0.0,0.0,0.0,0.0,0.0,0.0,0.0,0.0,0.0,0.0,0.0,0.0,0.0,0.0,0.0,0.0,0.0,0.0,0.0,0.0,0.0,0.0,0.0,0.0,0.0,0.0,0.0,0.0,0.0,0.0,0.0,0.0,0.0,0.0,0.0,0.0,0.0,0.0,0.0,0.0,0.0,0.0,0.0,0.0,0.0,0.0,0.0,0.0,0.0,0.0,0.0,0.0,0.0,0.0,0.0,0.0,0.0,0.0,0.0,0.0,4.8037,4.8612,4.9462,5.0589,5.0697,4.9707,4.7329,0.0,0.0,0.0,0.0,0.0,0.0,0.0,0.0,0.0,0.0,0.0,0.0,0.0,0.0,0.0,0.0,0.0,0.0,0.0,0.0,0.0,0.0,0.0,0.0,0.0,0.0,0.0,0.0,0.0,0.0,0.0,0.0,0.0,0.0,0.0,0.0,0.0,0.0,0.0,0.0,0.0,0.0,0.0,0.0,0.0,0.0,0.0,0.0,0.0,0.0,0.0,0.0,0.0,0.0,0.0,0.0,0.0,0.0,0.0,0.0,0.0,0.0,0.0,0.0,0.0,0.0,0.0,0.0,0.0,0.0,0.0,0.0,0.0,0.0,0.0,0.0,0.0,0.0,0.0,0.0,0.0,0.0,0.0,0.0,0.0,0.0,0.0,0.0,0.0,0.0,0.0,0.0,0.0,0.0,0.0,0.0,0.0,0.0,0.0,0.0,0.0,0.0,0.0,0.0,4.7607,4.9365,4.9222,4.9462,5.0589,5.0697,4.9707,4.7329,0.0,0.0,0.0,0.0,0.0,0.0,0.0,0.0,0.0,0.0,0.0,0.0,0.0,0.0,0.0,0.0,0.0,0.0,0.0,0.0,0.0,0.0,0.0,0.0,0.0,0.0,0.0,0.0,0.0,0.0,0.0,0.0,0.0,0.0,0.0,0.0,0.0,0.0,0.0,0.0,0.0,0.0,0.0,0.0,0.0,0.0,0.0,0.0,0.0,0.0,0.0,0.0,0.0,0.0,0.0,0.0,0.0,0.0,0.0,0.0,0.0,0.0,0.0,0.0,0.0,0.0,0.0,0.0,0.0,0.0,0.0,0.0,0.0,0.0,0.0,0.0,0.0,0.0,0.0,0.0,0.0,0.0,0.0,0.0,0.0,0.0,0.0,0.0,0.0,0.0,0.0,0.0,0.0,0.0,0.0,0.0,0.0,0.0,0.0,0.0,0.0,0.0,0.0,4.7132,4.8039,4.9711,4.9674,4.993,5.1105,5.1209,5.0189,4.7761,4.7873,0.0,0.0,0.0,0.0,0.0,0.0,0.0,0.0,0.0,0.0,0.0,0.0,0.0,0.0,0.0,0.0,0.0,0.0,0.0,0.0,0.0,0.0,0.0,0.0,0.0,0.0,0.0,0.0,0.0,0.0,0.0,0.0,0.0,0.0,0.0,0.0,0.0,0.0,0.0,0.0,0.0,0.0,0.0,0.0,0.0,0.0,0.0,0.0,0.0,0.0,0.0,0.0,0.0,0.0,0.0,0.0,0.0,0.0,0.0,0.0,0.0,0.0,0.0,0.0,0.0,0.0,0.0,0.0,0.0,0.0,0.0,0.0,0.0,0.0,0.0,0.0,0.0,0.0,0.0,0.0,0.0,0.0,0.0,0.0,0.0,0.0,0.0,0.0,0.0,0.0,0.0,0.0,0.0,0.0,0.0,0.0,0.0,0.0,0.0,0.0,0.0,0.0,4.826,4.8963,4.9976,5.0102,5.0515,5.15,5.1601,5.0586,4.8155,4.7998,0.0,0.0,0.0,0.0,0.0,0.0,0.0,0.0,0.0,0.0,0.0,0.0,0.0,0.0,0.0,0.0,0.0,0.0,0.0,0.0,0.0,0.0,0.0,0.0,0.0,0.0,0.0,0.0,0.0,0.0,0.0,0.0,0.0,0.0,0.0,0.0,0.0,0.0,0.0,0.0,0.0,0.0,0.0,0.0,0.0,0.0,0.0,0.0,0.0,0.0,0.0,0.0,0.0,0.0,0.0,0.0,0.0,0.0,0.0,0.0,0.0,0.0,0.0,0.0,0.0,0.0,0.0,0.0,0.0,0.0,0.0,0.0,0.0,0.0,0.0,0.0,0.0,0.0,0.0,0.0,0.0,0.0,0.0,0.0,0.0,0.0,0.0,0.0,0.0,0.0,0.0,0.0,0.0,0.0,0.0,0.0,0.0,0.0,0.0,0.0,0.0,0.0,4.9284,5.0519,5.0643,5.0643,5.0911,5.1551,5.1601,5.0586,4.8155,4.7998,0.0,0.0,0.0,0.0,0.0,0.0,0.0,0.0,0.0,0.0,0.0,0.0,0.0,0.0,0.0,0.0,0.0,0.0,0.0,0.0,0.0,0.0,0.0,0.0,0.0,0.0,0.0,0.0,0.0,0.0,0.0,0.0,0.0,0.0,0.0,0.0,0.0,0.0,0.0,0.0,0.0,0.0,0.0,0.0,0.0,0.0,0.0,0.0,0.0,0.0,0.0,0.0,0.0,0.0,0.0,0.0,0.0,0.0,0.0,0.0,0.0,0.0,0.0,0.0,0.0,0.0,0.0,0.0,0.0,0.0,0.0,0.0,0.0,0.0,0.0,0.0,0.0,0.0,0.0,0.0,0.0,0.0,0.0,0.0,0.0,0.0,0.0,0.0,0.0,0.0,0.0,0.0,0.0,0.0,0.0,0.0,0.0,0.0,0.0,0.0,0.0,0.0,4.9009,5.0171,0.0,5.1052,5.1312,5.1551,5.1933,5.1155,4.8741,0.0,0.0,0.0,0.0,0.0,0.0,0.0,0.0,0.0,0.0,0.0,0.0,0.0,0.0,0.0,0.0,0.0,0.0,0.0,0.0,0.0,0.0,0.0,0.0,0.0,0.0,0.0,0.0,0.0,0.0,0.0,0.0,0.0,0.0,0.0,0.0,0.0,0.0,0.0,0.0,0.0,0.0,0.0,0.0,0.0,0.0,0.0,0.0,0.0,0.0,0.0,0.0,0.0,0.0,0.0,0.0,0.0,0.0,0.0,0.0,0.0,0.0,0.0,0.0,0.0,0.0,0.0,0.0,0.0,0.0,0.0,0.0,0.0,0.0,0.0,0.0,0.0,0.0,0.0,0.0,0.0,0.0,0.0,0.0,0.0,0.0,0.0,0.0,0.0,0.0,0.0,0.0,0.0,0.0,0.0,0.0,0.0,0.0,0.0,0.0,0.0,0.0,4.805,4.9501,5.0708,0.0,5.1651,5.1884,5.1884,5.2257,5.1477,4.9124,0.0,0.0,0.0,0.0,0.0,0.0,0.0,0.0,0.0,0.0,0.0,0.0,0.0,0.0,0.0,0.0,0.0,0.0,0.0,0.0,0.0,0.0,0.0,0.0,0.0,0.0,0.0,0.0,0.0,0.0,0.0,0.0,0.0,0.0,0.0,0.0,0.0,0.0,0.0,0.0,0.0,0.0,0.0,0.0,0.0,0.0,0.0,0.0,0.0,0.0,0.0,0.0,0.0,0.0,0.0,0.0,0.0,0.0,0.0,0.0,0.0,0.0,0.0,0.0,0.0,0.0,0.0,0.0,0.0,0.0,0.0,0.0,0.0,0.0,0.0,0.0,0.0,0.0,0.0,0.0,0.0,0.0,0.0,0.0,0.0,0.0,0.0,0.0,0.0,0.0,0.0,0.0,0.0,0.0,0.0,0.0,0.0,0.0,0.0,0.0,0.0,0.0,4.9246,5.1153,5.248,5.248,5.248,5.248,5.2516,5.2516,5.156,0.0,0.0,0.0,0.0,0.0,0.0,0.0,0.0,0.0,0.0,0.0,0.0,0.0,0.0,0.0,0.0,0.0,0.0,0.0,0.0,0.0,0.0,0.0,0.0,0.0,0.0,0.0,0.0,0.0,0.0,0.0,0.0,0.0,0.0,0.0,0.0,0.0,0.0,0.0,0.0,0.0,0.0,0.0,0.0,0.0,0.0,0.0,0.0,0.0,0.0,0.0,0.0,0.0,0.0,0.0,0.0,0.0,0.0,0.0,0.0,0.0,0.0,0.0,0.0,0.0,0.0,0.0,0.0,0.0,0.0,0.0,0.0,0.0,0.0,0.0,0.0,0.0,0.0,0.0,0.0,0.0,0.0,0.0,0.0,0.0,0.0,0.0,0.0,0.0,0.0,0.0,0.0,0.0,0.0,0.0,0.0,0.0,0.0,0.0,0.0,0.0,0.0,0.0,4.8756,5.0964,5.248,5.248,5.248,5.2733,5.3313,5.3349,5.2785,5.1419,0.0,0.0,0.0,0.0,0.0,0.0,0.0,0.0,0.0,0.0,0.0,0.0,0.0,0.0,0.0,0.0,0.0,0.0,0.0,0.0,0.0,0.0,0.0,0.0,0.0,0.0,0.0,0.0,0.0,0.0,0.0,0.0,0.0,0.0,0.0,0.0,0.0,0.0,0.0,0.0,0.0,0.0,0.0,0.0,0.0,0.0,0.0,0.0,0.0,0.0,0.0,0.0,0.0,0.0,0.0,0.0,0.0,0.0,0.0,0.0,0.0,0.0,0.0,0.0,0.0,0.0,0.0,0.0,0.0,0.0,0.0,0.0,0.0,0.0,0.0,0.0,0.0,0.0,0.0,0.0,0.0,0.0,0.0,0.0,0.0,0.0,0.0,0.0,0.0,0.0,0.0,0.0,0.0,0.0,0.0,0.0,0.0,0.0,0.0,0.0,0.0,0.0,4.915,5.1394,5.2842,5.2516,5.3059,5.353,5.3675,5.4001,5.3772,5.2929,0.0,0.0,0.0,0.0,0.0,0.0,0.0,0.0,0.0,0.0,0.0,0.0,0.0,0.0,0.0,0.0,0.0,0.0,0.0,0.0,0.0,0.0,0.0,0.0,0.0,0.0,0.0,0.0,0.0,0.0,0.0,0.0,0.0,0.0,0.0,0.0,0.0,0.0,0.0,0.0,0.0,0.0,0.0,0.0,0.0,0.0,0.0,0.0,0.0,0.0,0.0,0.0,0.0,0.0,0.0,0.0,0.0,0.0,0.0,0.0,0.0,0.0,0.0,0.0,0.0,0.0,0.0,0.0,0.0,0.0,0.0,0.0,0.0,0.0,0.0,0.0,0.0,0.0,0.0,0.0,0.0,0.0,0.0,0.0,0.0,0.0,0.0,0.0,0.0,0.0,0.0,0.0,0.0,0.0,0.0,0.0,0.0,0.0,0.0,0.0,0.0,0.0,5.0073,5.219,5.3313,5.2589,5.382,5.4399,5.3748,5.4436,5.4581,5.3856,0.0,0.0,0.0,0.0,0.0,0.0,0.0,0.0,0.0,0.0,0.0,0.0,0.0,0.0,0.0,0.0,0.0,0.0,0.0,0.0,0.0,0.0,0.0,0.0,0.0,0.0,0.0,0.0,0.0,0.0,0.0,0.0,0.0,0.0,0.0,0.0,0.0,0.0,0.0,0.0,0.0,0.0,0.0,0.0,0.0,0.0,0.0,0.0,0.0,0.0,0.0,0.0,0.0,0.0,0.0,0.0,0.0,0.0,0.0,0.0,4.9619,0.0,0.0,0.0,0.0,0.0,0.0,0.0,0.0,0.0,0.0,0.0,0.0,0.0,0.0,0.0,0.0,0.0,0.0,0.0,0.0,0.0,0.0,0.0,0.0,0.0,0.0,0.0,0.0,0.0,0.0,0.0,0.0,0.0,0.0,0.0,0.0,0.0,0.0,0.0,0.0,0.0,5.0342,5.1777,5.2697,5.2516,5.2806,5.3204,5.3675,5.4436,5.4834,5.4653,0.0,0.0,0.0,0.0,0.0,0.0,0.0,0.0,0.0,0.0,0.0,0.0,0.0,0.0,0.0,0.0,0.0,0.0,0.0,0.0,0.0,0.0,0.0,0.0,0.0,0.0,0.0,0.0,0.0,0.0,0.0,0.0,0.0,0.0,0.0,0.0,0.0,0.0,0.0,0.0,0.0,0.0,0.0,0.0,0.0,0.0,0.0,0.0,0.0,0.0,0.0,0.0,0.0,0.0,0.0,0.0,0.0,0.0,0.0,0.0,0.0,4.9691,0.0,0.0,0.0,0.0,0.0,0.0,0.0,0.0,0.0,0.0,0.0,0.0,0.0,0.0,0.0,0.0,0.0,0.0,0.0,0.0,0.0,0.0,0.0,0.0,0.0,0.0,0.0,0.0,0.0,0.0,0.0,0.0,0.0,0.0,0.0,0.0,0.0,0.0,0.0,0.0,5.0854,5.2159,5.2915,5.2552,5.3204,5.3675,5.3711,5.4436,5.5051,5.5414,5.5088,0.0,0.0,0.0,0.0,0.0,0.0,0.0,0.0,0.0,0.0,0.0,0.0,0.0,0.0,0.0,0.0,0.0,0.0,0.0,0.0,0.0,0.0,0.0,0.0,0.0,0.0,0.0,0.0,0.0,0.0,0.0,0.0,0.0,0.0,0.0,0.0,0.0,0.0,0.0,0.0,0.0,0.0,0.0,0.0,0.0,0.0,0.0,0.0,0.0,0.0,0.0,0.0,0.0,0.0,4.9469,4.8767,4.9025,4.9112,4.9148,4.98,5.0452,5.0995,0.0,0.0,0.0,0.0,0.0,0.0,0.0,0.0,0.0,0.0,0.0,0.0,0.0,0.0,0.0,0.0,0.0,0.0,0.0,0.0,0.0,0.0,0.0,0.0,0.0,5.1405,5.1799,0.0,0.0,0.0,0.0,0.0,0.0,0.0,0.0,0.0,0.0,0.0,0.0,5.1466,5.2661,5.3241,5.2552,5.3675,5.4218,5.3566,5.4218,5.4943,5.5558,5.5269,5.5292,0.0,0.0,0.0,0.0,0.0,0.0,0.0,0.0,0.0,0.0,0.0,0.0,0.0,0.0,0.0,0.0,0.0,0.0,0.0,0.0,0.0,0.0,0.0,0.0,0.0,0.0,0.0,0.0,0.0,0.0,0.0,0.0,4.5245,4.5789,0.0,0.0,0.0,0.0,0.0,0.0,0.0,0.0,0.0,0.0,0.0,0.0,0.0,0.0,4.6998,4.7829,4.8304,4.8422,4.9323,4.9748,4.9686,4.9864,4.9945,4.9945,5.0053,0.0,5.0271,5.0642,0.0,0.0,0.0,0.0,0.0,0.0,0.0,0.0,0.0,0.0,0.0,0.0,0.0,0.0,0.0,0.0,0.0,0.0,0.0,0.0,0.0,0.0,5.3929,5.2516,5.3374,5.405,0.0,5.1072,5.0342,5.0777,0.0,0.0,0.0,0.0,0.0,0.0,0.0,0.0,5.2263,5.2516,5.2625,5.2516,5.2697,5.277,5.2661,5.3385,5.3892,5.4001,5.516,5.5631,5.5039,5.5532,0.0,0.0,0.0,0.0,0.0,0.0,0.0,0.0,0.0,0.0,0.0,0.0,0.0,0.0,0.0,0.0,0.0,0.0,0.0,0.0,0.0,0.0,0.0,0.0,0.0,0.0,0.0,0.0,0.0,4.5492,4.5911,4.6569,4.6677,4.6784,0.0,0.0,0.0,0.0,0.0,0.0,0.0,0.0,0.0,4.6998,4.6998,4.7212,4.764,4.8089,4.8483,4.8876,4.9421,4.9477,4.901,4.9225,4.9061,4.8663,4.9177,4.9691,5.0126,5.0443,5.0109,4.937,0.0,0.0,0.0,0.0,0.0,4.9603,5.0398,5.0733,0.0,0.0,0.0,0.0,0.0,0.0,0.0,0.0,0.0,0.0,0.0,0.0,0.0,5.2552,5.3385,5.4037,5.3313,5.2737,5.2101,0.0,5.1647,5.1719,5.0886,0.0,0.0,0.0,0.0,0.0,5.2444,5.248,5.248,5.248,5.248,5.248,5.248,5.2806,5.3204,5.3675,5.4327,5.4943,5.5486,5.5401,5.499,0.0,0.0,0.0,0.0,0.0,0.0,0.0,0.0,0.0,0.0,0.0,0.0,0.0,0.0,0.0,0.0,0.0,0.0,0.0,0.0,0.0,0.0,0.0,0.0,0.0,0.0,0.0,0.0,4.6413,4.6621,4.7107,4.7223,4.7178,0.0,0.0,0.0,0.0,0.0,0.0,4.6998,4.6998,4.6998,4.6998,4.6998,4.7283,4.7854,4.7982,4.8268,4.8793,4.8944,4.8667,4.8048,4.8524,4.8395,4.7854,4.8815,4.9546,5.0045,5.0262,5.0335,5.029,5.0335,5.0271,5.0126,5.0218,5.029,5.0524,5.123,5.1519,5.1611,5.1611,0.0,5.1131,5.056,0.0,0.0,0.0,0.0,5.085,5.143,5.19,5.2263,5.2444,5.3277,5.3892,5.3494,5.3566,5.3349,0.0,5.2408,5.2552,5.1756,0.0,0.0,0.0,0.0,5.248,5.248,5.248,5.248,5.248,5.2661,5.2806,5.2806,5.2987,5.3385,5.3965,5.4182,5.4798,5.5957,5.5667,5.5328,5.5013,0.0,0.0,0.0,0.0,0.0,0.0,0.0,0.0,0.0,0.0,0.0,0.0,0.0,0.0,0.0,0.0,0.0,0.0,0.0,0.0,0.0,0.0,0.0,0.0,0.0,0.0,0.0,0.0,0.0,4.7223,4.7267,0.0,0.0,0.0,0.0,4.6998,4.6998,4.6998,4.6998,4.6998,4.6998,4.6998,4.6998,4.6998,4.7033,4.7069,4.716,4.7322,4.7322,4.7295,4.7392,4.8315,4.8684,4.8684,4.9647,5.0009,4.9992,5.0705,5.1158,5.1249,5.1112,5.0688,5.0162,5.0959,5.1212,5.1357,5.2154,5.2444,5.2444,5.2444,5.1855,5.1112,5.1203,5.0624,0.0,0.0,5.1792,5.2371,5.2408,5.3566,5.4363,5.2842,5.3711,5.4436,5.2878,5.3168,5.3675,0.0,5.3603,5.3385,5.2589,0.0,5.3385,5.2625,5.248,5.248,5.248,5.248,5.248,5.248,5.3168,5.3639,5.3639,5.4363,5.4798,5.4834,5.5486,5.5921,5.5993,5.6681,5.6717,5.5957,5.5858,0.0,0.0,0.0,0.0,0.0,0.0,0.0,0.0,0.0,0.0,0.0,0.0,0.0,0.0,0.0,0.0,0.0,0.0,0.0,0.0,0.0,0.0,0.0,0.0,0.0,0.0,0.0,0.0,4.7223,4.7232,0.0,0.0,4.7133,4.7133,4.7133,4.7043,4.6998,4.6998,4.6998,4.6998,4.6998,4.6998,4.6998,4.6998,4.6998,4.7293,4.7839,4.7839,4.8089,4.8637,4.9108,4.9343,4.9352,4.935,4.9908,5.0769,5.0552,5.0724,5.123,5.1772,5.1855,5.1683,5.1881,5.1989,5.2118,5.2315,5.247,5.248,5.248,5.2299,5.1999,5.2082,5.1864,5.1637,5.1973,5.2263,5.248,5.248,5.2915,5.3204,5.2625,5.2951,5.3204,5.2625,5.2733,5.2915,5.2915,5.2915,5.2842,5.2552,5.2733,5.3023,5.3241,5.3277,5.3458,5.4001,5.4037,5.4037,5.4037,5.4291,5.4472,5.4472,5.4762,5.4907,5.4907,5.516,5.5486,5.5957,5.6283,5.6283,5.5993,5.598,5.5532,0.0,0.0,0.0,0.0,0.0,0.0,0.0,0.0,0.0,0.0,0.0,0.0,0.0,0.0,0.0,0.0,0.0,0.0,0.0,0.0,0.0,0.0,0.0,0.0,0.0,0.0,4.732,4.7267,4.7104,4.6924,4.6873,4.6613,4.6542,4.6829,4.674,4.6757,4.7088,4.7043,4.6855,4.6605,4.6605,4.6712,4.6998,4.6712,4.714,4.8175,4.789,4.8079,4.8615,4.9349,4.9739,4.9784,5.0001,5.0705,5.1647,5.1104,5.1167,5.1628,5.2299,5.248,5.248,5.2387,5.2387,5.248,5.2387,5.2423,5.248,5.248,5.248,5.248,5.248,5.248,5.248,5.248,5.248,5.248,5.248,5.248,5.248,5.248,5.2697,5.2915,5.2915,5.3132,5.3313,5.3313,5.3096,5.2915,5.2915,5.3132,5.3385,5.3675,5.3929,5.4218,5.4472,5.4725,5.4907,5.4907,5.5124,5.5269,5.5269,5.5522,5.5667,5.5667,5.5667,5.5884,5.6355,5.6391,5.6391,5.6391,5.6391,5.6088,5.5469,0.0,0.0,0.0,0.0,0.0,0.0,0.0,0.0,0.0,0.0,0.0,0.0,0.0,0.0,0.0,0.0,0.0,0.0,0.0,0.0,0.0,0.0,0.0,4.732,4.7407,4.7414,4.7284,4.665,4.626,4.6169,4.545,4.5342,4.6097,4.6047,4.6283,4.7071,4.7053,4.6605,4.582,4.582,4.6212,4.6998,4.6248,4.6676,4.8258,4.7461,4.7196,4.7393,4.9,4.982,5.0028,5.1674,5.2408,5.2408,5.2408,5.2408,5.2408,5.248,5.248,5.248,5.248,5.248,5.248,5.248,5.248,5.248,5.248,5.248,5.248,5.248,5.248,5.248,5.248,5.2516,5.2552,5.2552,5.2552,5.2552,5.2552,5.3168,5.3748,5.3748,5.4363,5.4907,5.4907,5.4291,5.3748,5.3748,5.4399,5.4653,5.3892,5.4436,0.0,5.3892,5.4508,5.4979,5.4979,5.5595,5.6029,5.6029,5.6754,5.7188,5.7188,5.7188,5.7188,5.7188,5.7188,5.7188,5.7188,5.7188,5.7138,5.6984,0.0,0.0,0.0,0.0,0.0,0.0,0.0,0.0,0.0,0.0,0.0,0.0,0.0,0.0,0.0,0.0,0.0,0.0,0.0,0.0,0.0,0.0,4.7615,4.745,4.6945,4.6627,4.6585,4.59,4.5436,4.5395,4.5215,4.5137,4.5306,4.5179,4.5165,4.5293,4.5908,4.6123,4.582,4.6445,4.6874,4.6998,4.7354,4.8032,4.8996,4.9448,4.9997,5.0617,5.071,5.0731,5.0741,5.0154,5.0234,5.0705,5.0126,5.0234,5.085,5.2045,5.2118,5.1683,5.2263,5.248,5.248,5.248,5.248,5.248,5.248,5.248,5.248,5.248,5.248,5.248,5.248,5.2915,5.3385,5.3385,5.3784,5.4255,5.4255,5.4399,5.4581,5.4581,5.4762,5.4907,5.4907,5.516,5.5196,5.4653,5.4762,5.5015,5.5305,5.5558,0.0,5.6174,5.6428,5.6573,5.6573,5.6754,5.6862,5.6862,5.708,5.7188,5.7188,5.7188,5.7188,5.7188,5.7188,5.7188,5.7188,5.7188,5.7138,0.0,0.0,0.0,0.0,0.0,0.0,0.0,0.0,0.0,0.0,0.0,0.0,0.0,0.0,0.0,0.0,0.0,0.0,0.0,0.0,0.0,0.0,4.7192,4.7042,4.6638,4.6494,4.6385,4.6385,4.5409,4.4686,4.4686,4.4397,4.4285,4.4606,4.4808,4.5048,4.5287,4.6398,4.6864,4.6498,4.7331,4.7868,4.8146,4.7966,4.8386,4.946,4.9339,4.9528,5.0042,5.0073,5.0128,0.0,4.9611,4.9655,5.0053,4.9582,4.9691,0.0,0.0,0.0,0.0,0.0,5.1466,5.1466,5.1466,5.1719,5.2009,5.2009,5.2226,5.2552,5.2915,5.277,5.2625,5.3313,5.3603,5.3784,5.411,5.4544,5.4907,5.4907,5.516,5.5377,5.5377,5.5631,5.5848,5.5848,5.621,0.0,5.5957,5.5848,5.5884,5.5993,5.6283,5.6536,5.6681,5.6971,5.7188,5.7188,5.7188,5.7188,5.7188,5.7188,0.0,0.0,0.0,5.7188,5.7188,5.7188,0.0,0.0,0.0,5.7138,5.7087,0.0,0.0,0.0,5.6933,5.6881,0.0,0.0,0.0,0.0,0.0,0.0,0.0,0.0,0.0,0.0,0.0,0.0,0.0,0.0,0.0,0.0,4.6432,4.6214,4.5417,4.5852,4.625,4.625,4.4874,4.3969,4.3969,4.3389,4.3353,4.4186,4.4827,4.558,4.641,0.0,0.0,0.0,0.0,4.8911,4.9549,4.8219,4.8219,4.9549,4.8219,4.7695,4.7782,4.8431,4.8764,4.8931,4.9546,4.9836,4.9836,4.9836,4.9836,4.9836,4.9908,5.0017,5.009,4.9981,5.0053,5.0234,5.0234,0.0,0.0,5.143,5.19,5.2625,5.3349,5.3132,5.2915,5.4363,5.4399,5.411,5.4834,5.5088,5.516,5.516,5.5667,5.6138,5.6138,5.6681,5.7188,5.7188,5.7188,5.7188,5.7188,5.7188,5.6971,5.6247,5.6717,5.6935,5.621,5.6754,5.7188,5.7188,0.0,0.0,5.7188,5.7188,5.7188,5.7188,5.7188,5.7188,5.7188,5.7188,5.7188,5.7188,5.7188,5.7188,5.7188,5.7188,5.7188,5.7188,5.6933,5.6865,0.0,0.0,0.0,0.0,0.0,0.0,0.0,0.0,0.0,0.0,0.0,0.0,0.0,0.0,0.0,4.578,4.6069,4.6214,4.5417,4.4874,4.4548,4.4548,4.3715,4.3136,4.3136,4.357,4.4183,4.4935,4.5653,4.6404,4.7155,4.8135,0.0,4.8371,4.856,4.8704,4.8722,4.8434,4.8434,4.8758,0.0,0.0,4.9442,4.9025,4.8887,4.8894,4.8387,4.817,4.817,4.817,4.817,4.8242,4.8894,4.9546,5.0017,4.9365,4.9945,5.1067,5.1067,5.1574,5.2263,5.2263,5.2371,5.2516,5.2661,5.3096,0.0,5.3856,5.4725,5.5595,5.574,5.6283,5.6754,5.6754,5.6862,5.6971,5.6971,5.708,5.7188,5.7188,5.7188,5.7188,5.7188,5.7188,5.7152,5.6971,5.708,5.7152,5.6971,5.708,5.7188,5.7188,5.7188,5.7188,5.7188,5.7188,5.7188,5.7188,5.7188,5.7188,5.7188,5.7188,5.7188,5.7188,5.7188,5.7188,5.7188,5.7188,5.7188,5.7188,5.7138,5.7138,0.0,0.0,0.0,0.0,0.0,0.0,0.0,0.0,0.0,0.0,0.0,4.6747,0.0,0.0,4.6106,4.491,4.5055,4.5019,4.4222,4.4077,4.4258,4.4657,4.3969,4.3643,4.4041,4.444,4.4834,4.5228,4.5952,4.6649,4.7211,4.8206,4.8858,4.8992,4.9257,4.9386,4.9298,4.8901,4.872,4.872,4.8764,4.8808,4.8808,4.867,4.8612,4.8612,4.8815,4.8893,4.893,4.9336,4.9402,4.9232,4.9633,4.9689,4.951,4.951,5.0017,5.0705,5.0705,5.1212,5.19,5.19,5.2444,5.3168,5.3566,5.4001,5.4472,5.5233,5.5703,5.6066,5.65,5.6899,5.708,5.6681,5.6609,5.6609,5.6609,5.6609,5.6609,5.6609,5.6935,5.6935,5.6174,5.6681,5.7188,5.7188,5.6862,5.6717,5.7152,5.6826,5.6754,5.7152,5.6826,5.6754,5.7152,5.7188,5.7188,5.7188,5.7188,5.7188,5.7188,5.7188,5.7188,5.7188,5.7188,5.7188,5.7188,5.7188,5.7188,5.7188,5.7188,5.7188,0.0,0.0,0.0,0.0,0.0,0.0,0.0,0.0,4.6888,4.6313,4.6173,4.5997,4.5319,4.5282,4.5062,4.4005,4.4114,4.408,4.3321,4.394,4.4738,4.5537,4.4841,4.4584,4.5236,4.5454,4.5639,4.5863,4.6626,4.7299,4.7868,4.8842,4.9419,4.9664,4.9852,4.993,4.993,4.9168,4.892,4.9112,4.8457,4.8239,4.8425,4.8708,4.8862,4.8936,4.9897,5.0337,5.0375,5.1007,5.1083,5.0729,5.1022,5.0519,4.9655,4.9981,5.0198,5.0343,5.0488,5.1067,5.1792,5.1937,5.2878,5.4037,5.4689,5.5015,5.5341,5.6428,5.6391,5.6102,5.6609,5.6754,5.6573,5.5921,5.5776,5.5776,5.5776,5.5776,5.5776,5.5776,5.6428,5.6536,5.516,5.5921,5.679,5.6935,5.6536,5.6464,5.7116,5.6609,5.6464,5.7116,5.6464,5.6247,5.6899,5.7116,5.7261,5.7406,5.7297,5.7261,5.7442,5.7261,5.7188,5.7188,5.7333,5.7442,5.7442,5.7442,5.7442,5.7442,5.7261,5.7188,0.0,0.0,0.0,4.787,4.7788,4.7518,0.0,0.0,4.6436,4.5954,4.5883,4.5627,4.4821,4.526,4.5149,4.332,4.4222,4.5031,4.4564,4.5187,4.5993,4.68,4.5872,4.52,4.5273,4.5961,4.6812,4.786,4.8632,4.9561,5.0676,5.0861,5.0822,5.0508,4.9805,4.9475,4.9475,4.8742,4.8898,4.9971,4.986,5.0194,5.0898,5.0934,5.0934,5.0971,5.1118,5.1155,5.1155,5.123,5.1083,5.0839,5.227,5.2528,5.1937,5.0597,5.0524,5.1249,5.1973,5.277,5.3566,5.4255,5.4617,5.4798,5.487,5.5377,5.5776,5.5305,5.5558,5.5848,5.5305,5.516,5.5124,5.5051,5.5015,5.5015,5.5015,5.5015,5.5015,5.5015,5.5631,5.5848,5.5051,5.5051,5.5377,5.6029,5.6681,5.708,5.7188,5.7116,5.708,5.7188,5.6464,5.6029,5.6138,5.679,5.7514,5.8239,5.7587,5.7514,5.8239,5.7587,5.7188,5.7188,5.7913,5.8275,5.8275,5.8275,5.8275,5.8239,5.7514,5.7188,4.7879,0.0,0.0,0.0,4.7684,4.7352,4.6544,4.6324,4.6103,4.5506,4.5219,4.4856,4.4048,4.4419,4.4524,0.0,4.4744,4.5626,4.5406,4.6246,4.6943,4.7058,4.7243,4.7241,4.7049,4.7338,4.7862,4.8532,4.8864,4.9341,5.0131,4.9961,5.0042,5.0559,5.0083,5.0047,5.049,5.0195,5.0565,5.1563,5.1563,5.1972,5.2754,5.297,5.3478,5.4166,5.4166,5.443,5.4844,5.4844,5.464,5.4317,5.5025,5.5013,5.4522,5.3326,5.3096,5.3422,5.3784,5.411,5.4399,5.4255,5.4508,5.4798,5.4363,5.4725,5.5305,5.4979,5.5124,5.5305,5.4979,5.4907,5.4798,5.4327,5.4218,5.4327,5.4798,5.4907,5.5051,5.545,5.6536,5.7007,5.574,5.6717,5.7587,5.7406,5.6536,5.6174,5.708,5.7188,5.7369,5.784,5.8021,5.8094,5.8094,5.8383,5.8746,5.9072,5.8782,5.8746,5.9072,5.8782,5.8601,5.8601,5.9197,5.9343,5.9108,5.9343,5.9343,5.9108,5.8746,5.8601,4.7341,0.0,0.0,4.7233,4.7016,4.6616,4.5978,4.5722,4.55,4.4888,4.4576,4.4262,4.3791,4.4089,4.4454,4.456,4.559,4.6393,4.6533,4.7441,4.8029,4.7753,4.8481,4.8887,4.8605,4.8495,4.8605,4.8919,4.8952,4.923,4.9875,4.9846,5.023,5.1255,5.1286,5.1593,5.2153,5.2153,5.2671,5.3599,5.3599,5.4011,5.4797,5.5112,5.5686,5.6512,5.6512,5.6739,5.7081,5.7081,5.67,5.6099,5.6324,5.622,5.5798,5.5375,5.5067,5.493,5.4884,5.4838,5.4662,5.4298,5.4495,5.4798,5.4218,5.4436,5.487,5.4653,5.4725,5.487,5.4653,5.4725,5.4762,5.4182,5.4182,5.4472,5.5088,5.5377,5.5703,5.621,5.7442,5.7949,5.6573,5.7949,5.8999,5.8202,5.6826,5.6355,5.7695,5.7876,5.7985,5.8347,5.9108,5.9506,5.9289,5.947,5.9687,5.9941,5.9724,5.9724,5.9941,5.9724,5.9631,5.9786,6.0335,6.0543,6.0332,6.0543,6.0444,6.0114,5.974,5.9615,0.0,0.0,4.5224,4.5956,4.5697,4.5246,4.513,4.4878,4.452,4.4003,4.3918,4.4045,4.4487,4.4875,4.5305,4.5772,4.6794,4.7686,4.8108,4.8852,4.9346,4.9346,4.9346,4.9384,0.0,4.8986,4.8952,4.9352,4.9384,4.9913,5.1102,5.186,5.2507,5.3015,5.3842,5.4292,5.4292,5.4292,5.491,5.6064,5.6064,5.6519,5.7277,5.7308,5.7346,5.7346,5.7346,5.6929,5.6247,5.6247,5.5492,5.4446,5.5235,5.5286,5.5018,5.5795,5.5572,5.4907,5.4907,5.4663,5.4429,5.52,5.5212,5.4907,5.487,5.487,5.4762,5.3965,5.4291,5.4725,5.3929,5.4327,5.4907,5.487,5.5414,5.5921,5.5957,5.6573,5.7152,5.7152,5.784,5.813,5.7297,5.7876,5.8166,5.7369,5.784,5.8601,5.9434,5.9542,5.9253,5.8492,5.9108,5.9289,5.8492,5.9144,5.9941,6.0738,6.005,5.9977,6.0738,6.0013,5.9801,6.0272,6.108,6.1687,6.2227,6.1687,6.1484,6.1398,6.0201,5.9615,0.0,0.0,4.5772,4.5568,4.5519,4.5393,4.4752,4.4565,4.458,4.4931,4.4854,4.486,4.5295,4.5992,4.6542,4.6654,4.7853,4.884,4.9002,4.9408,4.9655,4.9446,4.9596,0.0,0.0,0.0,0.0,5.0543,5.1101,5.1811,5.2836,5.3631,5.4406,5.5108,5.5448,5.5826,5.6393,5.6393,5.6873,5.7876,5.8407,5.8521,5.8256,5.8256,5.7952,5.7384,5.7384,5.7232,5.7005,5.7005,5.6753,5.6393,5.6657,5.6673,5.6534,5.6271,5.6007,5.5751,5.5695,5.5606,5.5406,5.489,5.4598,5.4346,5.3552,5.3313,5.3241,5.2987,5.3096,5.3494,5.4291,5.4689,5.516,5.6174,5.6609,5.6935,5.7478,5.7804,5.8166,5.8709,5.9434,5.9905,5.9651,6.0267,6.0701,6.0448,5.9724,5.9506,6.0303,6.0412,6.0303,6.0013,5.976,5.9724,5.9977,6.0267,6.0738,6.1571,6.1353,6.1317,6.1607,6.1353,6.1402,6.1887,6.2446,6.2872,6.3007,6.2872,6.2593,6.2291,6.1547,6.1208,0.0,4.4894,4.4925,4.4749,4.4665,4.4643,4.444,4.4524,4.4811,4.5305,4.5525,4.5679,4.5992,4.6615,4.7168,4.7462,4.8587,4.9415,4.9415,4.9683,4.9824,4.9625,5.0033,0.0,0.0,0.0,0.0,5.2049,5.2836,5.3669,5.4541,5.5375,5.6209,5.7081,5.7346,5.7763,5.8293,5.8293,5.8407,5.871,5.9203,5.9051,5.8218,5.8218,5.7914,5.7384,5.7384,5.7232,5.6967,5.6967,5.6777,5.6512,5.6512,5.6512,5.6436,5.5943,5.5754,5.5731,5.5688,5.5585,5.536,5.4531,5.4223,5.3981,5.3506,5.3566,5.3851,5.3964,5.4428,5.5119,5.5934,5.6355,5.6826,5.784,5.8275,5.8637,5.9144,5.947,5.9832,6.0375,6.0883,6.1245,6.1245,6.1679,6.1933,6.1643,6.0701,6.0231,6.0738,6.081,6.0701,6.0412,5.9905,5.9832,6.0339,6.0629,6.1027,6.1571,6.186,6.2005,6.2005,6.2132,6.2479,6.2988,6.3453,6.3803,6.393,6.3425,6.3059,6.2743,6.1798,6.1365,4.3142,4.2994,4.2956,4.3526,4.325,4.3142,4.4192,4.4834,4.5249,4.5217,4.5885,4.6463,0.0,0.0,4.7426,4.8197,4.8956,4.9446,4.9446,4.9712,4.9917,0.0,0.0,0.0,0.0,0.0,0.0,5.3935,0.0,5.5413,5.6285,5.7081,5.7914,5.8748,5.9506,5.9885,5.9847,5.9772,5.9393,5.8635,5.8635,5.818,5.7346,5.7346,5.7308,5.727,5.727,5.6853,5.6133,5.6133,5.564,5.492,5.4958,5.4996,5.5034,5.5072,5.511,5.5148,5.5148,5.4856,5.448,5.4484,5.4239,5.4129,5.4873,5.5691,5.6392,5.6706,5.7978,5.9051,5.8623,5.9087,5.9667,5.9724,6.0303,6.0883,6.0883,6.1462,6.1969,6.2005,6.2005,6.2005,6.2005,6.2024,6.1734,6.0972,6.0827,6.0791,6.0738,6.0701,6.0375,5.9615,5.9506,5.9506,5.9542,6.0231,6.0755,6.0791,6.1516,6.1951,6.1951,6.2369,6.2878,6.3424,6.3855,6.4293,6.4775,6.3465,6.2857,6.278,6.1106,6.0309,4.3032,4.3142,4.3213,4.3105,4.3652,4.427,4.4872,4.5342,4.5914,4.678,4.6905,4.6984,0.0,0.0,0.0,4.8639,4.9277,0.0,4.9769,4.9852,0.0,0.0,0.0,5.2002,5.4048,5.5034,0.0,0.0,5.7005,5.7118,5.8028,5.8824,5.9355,5.9582,5.9772,5.962,5.9014,5.8369,5.7914,5.7725,5.7725,5.7308,5.6512,5.6512,5.6133,5.5527,5.5527,5.5413,5.5223,5.5223,5.511,5.4958,5.5602,5.6247,5.6853,5.7497,5.8104,5.8635,5.8635,5.7737,5.6657,5.6955,5.7414,5.7866,5.7744,5.7888,5.8111,5.8174,5.8503,5.8968,5.9637,5.9969,6.0345,6.1207,6.1571,6.1716,6.1716,6.139,6.1281,6.1897,6.2005,6.2114,6.2479,6.2054,6.1679,6.1808,6.1338,6.0687,6.001,5.9398,5.8927,5.8746,5.8166,5.8058,5.8637,5.9211,5.9774,6.0408,6.0919,6.1265,6.1265,6.1357,6.167,6.2133,6.2291,6.2561,6.3031,6.2335,6.1992,6.1992,6.1193,6.0818,4.3213,4.3353,4.3597,4.3652,4.4305,4.502,4.5588,4.6456,4.7277,4.7756,4.7942,0.0,0.0,0.0,0.0,0.0,0.0,0.0,4.9683,5.0137,5.0637,0.0,5.2153,0.0,5.5299,5.6588,5.7839,0.0,5.8748,5.871,5.9203,5.9658,5.9734,5.9355,5.9355,5.8976,5.8142,5.7649,5.7232,5.6853,5.6853,5.6436,5.564,5.564,5.5375,5.492,0.0,5.492,5.492,5.5299,5.5489,5.5564,5.6398,5.7005,5.7497,5.8369,5.8976,5.943,5.9772,5.9772,5.9512,5.9005,5.9163,5.9581,5.9703,6.0041,6.0379,6.0521,6.0818,6.1139,6.1308,6.1337,6.1336,6.1425,6.1752,6.1933,6.1571,6.1426,6.1407,6.1745,6.1953,6.2058,6.1945,6.1587,6.1237,6.1137,6.0735,6.0152,5.9271,5.9077,5.8893,5.8527,5.8087,5.7977,5.8454,5.9053,5.9641,6.0084,6.1011,6.1515,6.1515,6.1731,6.2126,6.2743,6.2259,6.2329,6.2917,6.1951,6.1466,6.1392,6.0561,6.0211,4.3557,4.3763,4.4183,4.466,4.5127,4.5727,4.655,4.7853,4.8825,4.8641,0.0,4.9391,4.9023,4.8652,4.8416,4.8382,0.0,4.9452,4.9626,5.0543,5.1282,5.1509,5.3518,5.5299,5.6247,5.7763,5.9014,5.9847,5.9809,5.9734,5.9734,5.9734,5.9355,5.8559,5.8407,5.799,5.7232,5.7118,5.6702,5.6019,5.6019,5.564,5.492,5.492,5.492,5.492,0.0,0.0,5.5148,5.5981,5.636,5.6436,5.7232,5.7649,5.7839,5.871,5.9165,5.943,6.0151,6.1439,6.2463,6.0795,6.0378,6.0681,6.1401,6.2122,6.2811,6.305,6.3725,6.4091,6.3178,6.2892,6.261,6.1433,6.1676,6.1967,6.1168,6.1531,6.1927,6.1667,6.1911,6.2004,6.1379,6.1081,6.0715,6.0091,5.9905,5.957,5.8825,5.9301,5.9367,5.8661,5.8586,5.8586,5.8586,5.9297,5.9748,5.9748,6.1092,6.1917,6.1917,6.2288,6.2935,6.3763,6.2667,6.2463,6.3259,6.1705,6.0947,6.0909,5.9845,5.9289,4.3912,4.44,4.4989,4.5106,4.6145,4.7367,4.8221,4.8864,0.0,0.0,0.0,4.9834,4.9472,4.9294,4.9119,4.8751,0.0,0.0,0.0,0.0,5.1698,0.0,0.0,0.0,0.0,0.0,0.0,0.0,0.0,5.89,5.89,5.89,5.8521,5.7649,5.6967,5.655,5.6398,5.5678,5.5261,5.5148,5.5148,5.5034,5.492,5.492,5.492,5.4958,5.5678,0.0,5.6019,5.6853,5.7194,5.727,5.8142,5.8862,5.9544,6.0378,6.1553,6.2766,6.2917,6.3638,6.4206,6.2501,6.2917,6.4055,6.4206,6.4358,6.4474,6.4552,6.4668,6.4633,6.4091,6.3967,6.3766,6.3094,6.303,6.2919,6.2142,6.2068,6.2188,6.2131,6.2183,6.2278,6.2507,6.1424,6.0566,6.0821,6.0324,5.9832,5.9719,5.9176,5.8735,5.8586,5.8586,5.8586,5.8586,5.9022,5.929,5.929,5.9924,6.0289,6.0289,6.0358,6.0808,6.1603,6.0762,6.0719,6.1515,6.0568,6.0113,6.0113,5.9857,5.9748,4.4795,4.5273,4.5885,4.66,4.7447,4.8377,4.9219,0.0,0.0,0.0,0.0,5.0853,5.0251,0.0,0.0,0.0,0.0,0.0,0.0,0.0,0.0,0.0,0.0,0.0,0.0,0.0,0.0,0.0,0.0,0.0,5.8672,5.7876,5.7194,5.6777,5.5943,5.5527,5.5527,5.511,5.492,5.492,5.492,5.492,5.492,5.5375,5.5564,5.5602,5.6474,0.0,5.6952,5.7787,5.816,5.8266,5.9071,5.9608,6.0102,6.1359,6.2311,6.2993,6.2993,6.3524,6.3941,6.2273,6.288,6.4244,6.4244,6.4244,6.4244,6.4244,6.4547,6.4781,6.4328,6.3871,6.3413,6.2954,6.2822,6.2822,6.2822,6.2705,6.2463,6.2089,6.1878,6.162,6.1353,6.0672,6.0214,6.0421,6.0151,5.9885,5.9885,5.954,5.9289,5.929,5.929,5.929,5.929,5.9434,5.954,5.954,6.0165,6.053,6.053,6.053,6.0909,6.1743,6.053,6.0302,6.1098,6.0264,5.9885,5.9885,5.9885,5.9885,4.5677,4.6237,4.6985,4.8051,4.8768,4.9438,5.021,5.1041,0.0,0.0,5.2367,5.2032,5.1115,0.0,0.0,0.0,0.0,0.0,0.0,0.0,0.0,0.0,0.0,0.0,0.0,0.0,0.0,0.0,0.0,0.0,5.8142,5.677,5.5936,5.5906,5.5291,5.4882,5.492,5.492,5.4996,5.5185,5.5185,5.5261,5.5451,5.6163,5.6581,5.6808,5.7446,0.0,0.0,5.8791,5.9087,5.9223,5.9809,6.0013,6.0165,6.1397,6.197,6.2122,6.2122,6.2766,6.3372,6.2046,6.2538,6.36,6.36,6.3751,6.3865,6.3676,6.4092,6.4552,6.4181,6.3538,6.2972,6.265,6.2346,6.2272,6.3056,6.3045,6.2786,6.2259,6.183,6.1343,6.0595,6.0145,5.9918,5.9918,5.9918,5.9918,5.995,6.0013,6.0013,5.995,5.9918,5.9918,5.9885,5.9885,5.9885,5.9885,6.0492,6.0833,6.0833,6.0833,6.125,6.2122,6.0643,6.0302,6.1098,6.0264,5.9885,5.9885,6.0075,6.0151,4.614,4.7302,4.8515,4.8602,4.9814,5.1083,5.155,0.0,0.0,5.3893,5.3758,5.32,5.2023,0.0,0.0,0.0,0.0,5.1268,0.0,0.0,0.0,0.0,0.0,0.0,0.0,0.0,0.0,0.0,0.0,0.0,5.6436,5.5586,5.5084,5.5034,5.4979,5.4941,5.492,5.492,5.5299,5.6095,5.6095,5.6474,5.7156,5.7324,5.781,5.857,5.8707,0.0,0.0,5.9985,5.9985,6.0023,6.0061,6.0038,6.0013,6.0165,6.0633,6.1212,6.1212,6.2273,6.3562,6.341,6.3486,6.36,6.36,6.4168,6.4623,6.3827,6.3676,6.3679,6.3679,6.3606,6.353,6.3495,6.2429,6.1624,6.2421,6.2601,6.2851,6.3541,6.3074,6.2427,6.2292,6.1001,6.0013,6.0013,6.0013,6.0013,6.0068,6.0068,6.0068,6.0068,6.0045,5.9982,5.9885,5.9885,5.9885,5.9885,5.9961,5.9999,5.9999,5.9999,6.0378,6.1212,6.034,6.0302,6.1098,6.0264,5.9885,5.9923,6.0643,6.0984,4.7567,4.8174,4.8818,4.9273,5.0334,5.131,5.1694,0.0,5.3286,5.4146,5.4193,5.3636,5.2193,5.1757,5.1391,5.0697,5.1029,0.0,5.417,0.0,0.0,0.0,0.0,0.0,0.0,0.0,0.0,0.0,0.0,0.0,5.5522,5.5247,5.5057,5.5028,5.5,5.5265,5.5738,5.5708,5.6125,5.6952,5.6952,5.7438,5.8296,5.8327,5.8851,5.9688,6.0175,0.0,0.0,6.0951,6.0951,6.0971,6.0417,6.0197,6.0213,6.0677,6.133,6.1945,6.1451,6.2026,6.2834,6.2406,6.2254,6.2302,6.2728,6.2766,6.2652,6.2842,6.3259,6.36,6.3706,6.336,6.2862,6.2368,6.2173,6.2319,6.3155,6.2611,6.2147,6.2953,6.2109,6.1157,6.1095,6.0494,6.0038,6.0038,6.0038,6.0068,6.0099,6.0167,6.0197,6.0099,6.0068,6.0007,5.9982,5.9982,5.995,5.9885,5.9885,5.9918,5.995,5.9982,6.0102,6.0405,6.0134,6.0102,6.0378,6.0037,5.9885,5.9923,6.0719,6.1363,4.8515,4.8856,4.9235,5.0069,5.094,5.1717,0.0,0.0,5.379,5.4387,5.45,5.3973,5.2354,5.2052,5.1826,5.1254,5.1669,5.2824,5.5026,5.5852,0.0,0.0,0.0,0.0,0.0,0.0,0.0,0.0,0.0,0.0,0.0,5.5423,5.5549,5.5493,5.5465,5.5855,5.6662,5.6641,5.7021,5.7916,5.8182,5.8631,5.9261,5.9558,5.9977,6.0616,0.0,0.0,0.0,6.1277,6.1191,6.1211,6.0848,6.0523,6.0408,6.1149,6.1614,6.1773,6.1202,6.1514,6.2059,6.1552,6.1552,6.1793,6.2297,6.2189,6.2037,6.2644,6.3251,6.3702,6.3807,6.3416,6.2801,6.1964,6.2002,6.2376,6.2756,6.217,6.1667,6.2178,6.1438,6.0637,6.054,6.0319,6.0167,6.0167,6.0167,6.0167,6.0197,6.0256,6.0294,6.0226,6.0197,6.0167,6.0007,6.0007,6.0013,5.9982,5.9982,5.9982,6.0045,6.0007,6.0007,6.0007,6.0241,6.0361,6.0297,6.0562,6.0757,6.1022,6.1818,6.2804,4.8704,4.9273,5.0107,5.0978,5.1812,5.2608,0.0,0.0,5.4882,5.4882,5.4882,5.4389,5.2722,5.2419,5.2381,5.2465,5.2409,5.3348,5.5998,5.6407,0.0,0.0,0.0,0.0,0.0,0.0,0.0,0.0,0.0,0.0,0.0,5.6167,5.6534,5.6369,5.6453,5.6834,5.7587,5.7587,5.8005,5.8919,5.9756,6.0137,6.0137,6.1065,6.1476,0.0,0.0,0.0,0.0,6.0752,6.0408,6.0485,6.1287,6.1039,6.0408,6.1209,6.0921,6.0137,6.0137,6.067,6.1431,6.1393,6.1964,6.2611,6.2611,6.322,6.3867,6.3867,6.3867,6.3905,6.3905,6.3867,6.3676,6.2801,6.2026,6.1285,6.0523,6.1,6.1593,6.1631,6.1593,6.1564,6.1506,6.0828,6.0294,6.0294,6.0294,6.0323,6.0408,6.0408,6.0408,6.0408,6.0408,6.0313,6.0099,6.0099,6.0099,6.0099,6.0099,6.0099,6.0099,6.0099,6.0099,6.0099,6.0881,6.1305,6.1305,6.2003,6.2804,6.36,6.4471,6.576,4.9632,4.9822,5.024,5.114,5.1939,5.2748,5.3566,0.0,5.4941,5.4882,5.4912,5.4477,5.2807,5.2986,5.3232,5.265,5.3498,5.4943,5.694,0.0,0.0,0.0,0.0,0.0,0.0,0.0,0.0,0.0,0.0,0.0,0.0,5.6473,5.6561,5.6534,5.7118,5.8044,5.9426,5.8796,5.952,6.156,6.0684,6.0904,6.1963,6.1115,0.0,0.0,0.0,0.0,0.0,6.1325,6.1211,6.1172,6.0905,6.0637,6.0418,6.0647,6.0886,6.1048,6.0504,6.1209,6.2361,6.2421,6.2582,6.2971,6.4138,6.3848,6.3182,6.3753,6.355,6.3161,6.3161,6.2315,6.1459,6.1162,6.0924,6.0838,6.1144,6.0953,6.0943,6.1478,6.1172,6.079,6.0762,6.0533,6.038,6.038,6.038,6.0571,6.1134,6.1211,6.144,6.2051,6.2128,6.1831,6.1103,6.1065,6.1302,6.1811,6.1888,6.1881,6.1942,6.1942,6.1942,6.1942,6.2216,6.2299,6.2275,6.3041,6.4144,6.5551,6.5817,6.6844,0.0,5.0355,5.0774,5.1611,5.2486,0.0,0.0,0.0,5.5028,5.4971,5.5,5.4524,5.2851,5.3259,5.3617,5.2806,5.4036,5.5712,5.7482,0.0,0.0,0.0,0.0,0.0,0.0,0.0,0.0,0.0,0.0,0.0,0.0,5.7199,5.7695,5.8001,5.8547,5.9435,6.0781,6.0561,6.1056,6.2337,6.162,6.1688,6.2395,6.1669,0.0,0.0,0.0,0.0,0.0,6.1134,6.1134,6.1134,6.0943,6.0676,6.0446,6.0752,6.0981,6.1134,6.0905,6.1526,6.2337,6.2404,6.2404,6.268,6.442,6.4169,6.3383,6.3848,6.3421,6.2871,6.2871,6.2099,6.1325,6.1325,6.1096,6.0981,6.1478,6.0981,6.0561,6.1058,6.0752,6.0408,6.0408,6.0637,6.0828,6.0828,6.1134,6.1516,6.2051,6.2089,6.2319,6.2853,6.2892,6.2786,6.2527,6.2222,6.2231,6.2742,6.278,6.2811,6.2841,6.2871,6.2871,6.2871,6.3451,6.3695,6.3702,6.5117,6.6303,6.733,6.7673,6.8396,0.0,0.0,0.0,0.0,0.0,0.0,0.0,0.0,0.0,0.0,0.0,5.4542,5.3008,5.3389,5.3682,5.2933,5.4215,5.5919,5.763,5.8596,0.0,0.0,0.0,0.0,0.0,0.0,0.0,0.0,0.0,0.0,0.0,5.8268,5.9606,6.0446,6.0599,6.1019,6.1784,6.2471,6.2471,6.1784,6.2471,6.2433,6.1707,6.2471,0.0,0.0,0.0,0.0,0.0,6.0408,6.0408,6.0446,6.1211,6.1058,6.0485,6.1249,6.1019,6.0485,6.1249,6.1554,6.1593,6.1669,6.1745,6.2089,6.3694,6.4191,6.4191,6.4191,6.3579,6.293,6.2968,6.2892,6.2815,6.2892,6.228,6.1669,6.1593,6.1019,6.0485,6.0485,6.0485,6.0485,6.0561,6.1211,6.1707,6.1707,6.2395,6.293,6.2968,6.3006,6.3006,6.3083,6.3121,6.3503,6.4305,6.3541,6.3006,6.3083,6.3159,6.3159,6.3159,6.3236,6.3274,6.3274,6.4711,6.5518,6.5595,6.7855,6.8963,6.904,6.9801,7.0182,0.0,0.0,0.0,0.0,0.0,0.0,0.0,0.0,0.0,0.0,0.0,5.4127,5.3746,5.3875,5.3977,5.3811,5.5721,5.7401,5.7848,0.0,0.0,0.0,0.0,0.0,0.0,0.0,0.0,0.0,0.0,0.0,0.0,5.9185,6.0485,6.1287,6.2586,6.3388,6.3579,6.2471,6.2471,6.3579,6.2433,6.2166,6.2586,6.2128,0.0,0.0,0.0,0.0,6.0408,6.0408,6.0408,6.0408,6.0599,6.0561,6.0408,6.0599,6.0561,6.0408,6.0599,6.1096,6.1707,6.2395,6.3045,6.3656,6.4076,6.4191,6.4191,6.4191,6.3579,6.3045,6.3732,6.2892,6.2089,6.2739,6.2739,6.2433,6.1745,6.144,6.1325,6.1325,6.1325,6.1516,6.2204,6.2471,6.2586,6.2586,6.2777,6.3159,6.3809,6.3885,6.4114,6.4764,6.5413,6.591,6.6101,6.4764,6.4153,6.4764,6.5452,6.5796,6.5796,6.6407,6.6713,6.6713,6.7102,6.7598,6.8285,6.8858,6.9437,7.0047,6.9628,6.9742,0.0,0.0,0.0,0.0,0.0,0.0,0.0,0.0,0.0,0.0,0.0,0.0,5.3519,0.0,0.0,5.4715,5.6816,5.8574,0.0,0.0,0.0,0.0,0.0,0.0,0.0,0.0,0.0,0.0,0.0,0.0,0.0,6.0255,6.1516,6.2739,6.3694,6.4191,6.4191,6.3618,6.3618,6.4191,6.3236,6.2815,6.2892,6.2433,6.2204,0.0,0.0,0.0,6.0905,6.0561,6.0408,6.0408,6.0408,6.0408,6.0408,6.0408,6.0408,6.0446,6.0828,6.1516,6.2357,6.3197,6.3541,6.3694,6.4076,6.4191,6.4114,6.3732,6.3274,6.293,6.3006,6.2586,6.2319,6.2777,6.2892,6.2777,6.2319,6.2204,6.2204,6.2204,6.2204,6.2357,6.2815,6.3236,6.3503,6.3503,6.3809,6.4344,6.5222,6.5337,6.5643,6.6445,6.698,6.7247,6.7247,6.6407,6.6063,6.6522,6.698,6.7247,6.7247,6.7668,6.8088,6.847,6.8508,6.889,6.9769,6.9769,6.996,7.0381,6.996,6.9999,0.0,0.0,0.0,0.0,0.0,0.0,0.0,0.0,0.0,0.0,0.0,0.0,0.0,0.0,0.0,0.0,0.0,0.0,0.0,0.0,0.0,0.0,0.0,0.0,0.0,0.0,0.0,0.0,0.0,0.0,0.0,6.1287,6.2548,6.4153,6.4305,6.4382,6.4382,6.4917,6.4879,6.4191,6.4076,6.3618,6.2892,6.2892,6.2853,0.0,0.0,0.0,6.1363,6.0676,6.0408,6.0408,6.0523,6.0485,6.0408,6.0523,6.0485,6.0523,6.1325,6.2089,6.2853,6.3732,6.3579,6.3236,6.3962,6.4267,6.4191,6.3197,6.3006,6.2968,6.2357,6.2624,6.3121,6.3274,6.3274,6.3274,6.3274,6.3197,6.3159,6.3427,6.3274,6.3197,6.3427,6.4076,6.4573,6.4573,6.5261,6.6063,6.6789,6.6865,6.7133,6.7821,6.8012,6.8088,6.8088,6.8203,6.8279,6.8279,6.8165,6.8126,6.8279,6.8279,6.8623,6.9387,6.9387,6.9731,7.0419,7.0419,7.0419,7.0419,7.0419,7.0419,5.0283,0.0,0.0,0.0,0.0,0.0,0.0,0.0,0.0,0.0,0.0,0.0,0.0,0.0,0.0,0.0,0.0,0.0,0.0,0.0,0.0,0.0,0.0,0.0,0.0,0.0,0.0,0.0,0.0,0.0,0.0,6.186,6.3159,6.4153,6.484,6.5222,6.5222,6.4649,6.4305,6.4191,6.3465,6.3045,6.2892,6.2892,6.251,0.0,0.0,6.1211,6.0561,6.0446,6.0408,6.0446,6.1134,6.0981,6.0485,6.1172,6.0981,6.0523,6.1325,6.1707,6.1936,6.2815,6.3503,6.4038,6.4153,6.4688,6.4879,6.335,6.3427,6.4114,6.4688,6.442,6.4153,6.484,6.5031,6.5031,6.5031,6.4458,6.442,6.5834,6.4955,6.4458,6.5872,6.6216,6.633,6.633,6.698,6.7553,6.7706,6.7706,6.7744,6.7897,6.8547,6.9005,6.9005,6.9616,7.0037,7.0037,6.9387,6.9311,6.9999,7.0037,7.0075,7.0228,7.0228,7.0304,7.0419,7.0419,7.0419,7.0419,7.0419,7.0419,5.0283,5.1505,0.0,0.0,0.0,0.0,0.0,0.0,0.0,0.0,0.0,0.0,0.0,0.0,0.0,0.0,0.0,0.0,0.0,0.0,0.0,0.0,0.0,0.0,0.0,0.0,0.0,0.0,0.0,0.0,0.0,0.0,6.4,6.4802,6.5222,6.5413,6.5413,6.5031,6.484,6.484,6.4,6.3579,6.3579,6.2624,6.251,6.293,0.0,6.1249,6.1669,6.0752,6.0637,6.1019,6.0981,6.0981,6.1019,6.0981,6.0981,6.1096,6.1478,6.2204,6.3083,6.3465,6.4153,6.4917,6.5413,6.549,6.5337,6.5031,6.4917,6.4726,6.4191,6.4458,6.4955,6.5299,6.5757,6.6101,6.6101,6.5796,6.591,6.7095,6.6369,6.591,6.7133,6.7362,6.7362,6.7362,6.7668,6.805,6.8547,6.8585,6.8776,6.9196,6.9616,6.9846,6.9846,7.019,7.0419,7.0419,7.0037,6.9999,7.0381,7.0419,7.0419,7.0419,7.0419,7.0419,7.0419,7.0419,7.0419,7.0419,7.0419,7.0419,5.0283,5.1505,0.0,0.0,0.0,0.0,0.0,0.0,0.0,0.0,0.0,0.0,0.0,0.0,0.0,0.0,0.0,0.0,0.0,0.0,0.0,0.0,0.0,0.0,0.0,0.0,0.0,0.0,0.0,0.0,0.0,0.0,6.4573,6.5375,6.5413,6.5413,6.5413,6.5413,6.5299,6.5108,6.4496,6.4076,6.3847,6.2701,6.2701,6.3465,6.1745,6.1593,6.2471,6.1019,6.0867,6.1554,6.0905,6.1058,6.1516,6.0676,6.079,6.1363,6.1516,6.2624,6.3923,6.4114,6.4879,6.5796,6.6254,6.6216,6.6025,6.633,6.6063,6.5375,6.3885,6.4611,6.5643,6.5452,6.6216,6.698,6.698,6.698,6.7286,6.8279,6.7668,6.7247,6.805,6.8203,6.8203,6.8203,6.8356,6.8738,6.9387,6.9464,6.9731,7.0342,7.0419,7.0419,7.0419,7.0419,7.0419,7.0419,7.0419,7.0419,7.0419,7.0419,7.0419,7.0419,7.0419,7.0419,7.0419,7.0419,7.0419,7.0419,7.0419,7.0419,5.0283,5.1505,5.2805,0.0,0.0,0.0,0.0,0.0,0.0,0.0,0.0,0.0,0.0,0.0,0.0,0.0,0.0,0.0,0.0,0.0,0.0,0.0,0.0,0.0,0.0,0.0,0.0,0.0,0.0,0.0,0.0,0.0,0.0,6.5375,6.5413,6.5413,6.5413,6.5413,6.5031,6.4267,6.4229,6.377,6.3006,6.3694,6.3197,6.1822,6.2471,6.2319,6.1631,6.0752,6.0867,6.1593,6.1554,6.1554,6.1516,6.0676,6.0446,6.0599,6.1325,6.2204,6.3121,6.3923,6.5299,6.6483,6.5719,6.6522,6.74,6.591,6.6025,6.6407,6.5452,6.591,6.6407,6.5605,6.6636,6.7821,6.7821,6.7821,6.8279,6.9922,6.8929,6.8088,6.8967,6.912,6.912,6.912,6.9731,7.0228,7.0304,7.0304,7.0342,7.0381,7.0419,7.0419,7.0419,7.0419,7.0419,7.0419,7.0419,7.0419,7.0419,7.0419,7.0419,7.0419,7.0419,7.0419,7.0419,7.0419,7.0419,7.0419,7.0419,7.0419,5.0283,5.1505,5.2805,5.2805,0.0,0.0,0.0,0.0,0.0,0.0,0.0,0.0,0.0,0.0,0.0,0.0,0.0,0.0,0.0,0.0,0.0,0.0,0.0,0.0,0.0,0.0,0.0,0.0,0.0,0.0,0.0,0.0,0.0,6.5375,6.5413,6.5413,6.5413,6.5413,6.4993,6.4191,6.4191,6.4267,6.442,6.3159,6.2815,6.3159,6.1898,6.144,6.1554,6.0714,6.0867,6.1593,6.1593,6.1287,6.0828,6.0485,6.0714,6.1287,6.2128,6.2968,6.3923,6.5299,6.6178,6.6751,6.6904,6.7056,6.7133,6.698,6.6827,6.6636,6.6292,6.6445,6.6865,6.7591,6.8241,6.8852,6.9349,6.9043,6.9043,7.019,6.9464,6.8967,6.9807,6.996,6.996,6.996,7.0228,7.0419,7.0419,7.0419,7.0419,7.0419,7.0419,7.0419,7.0419,7.0419,7.0419,7.0419,7.0419,7.0419,7.0419,7.0419,7.0419,7.0419,7.0419,7.0419,7.0419,7.0419,7.0419,7.0419,7.0419,7.0419,5.0703,5.1926,5.3225,5.3225,0.0,0.0,0.0,0.0,0.0,0.0,0.0,0.0,0.0,0.0,0.0,0.0,0.0,0.0,0.0,0.0,0.0,0.0,0.0,0.0,0.0,0.0,0.0,0.0,0.0,0.0,0.0,0.0,0.0,0.0,6.5413,6.5413,6.5413,6.5413,6.4993,6.4191,6.4191,6.4344,6.4573,6.3083,6.293,6.3656,6.1669,6.1249,6.1936,6.0828,6.0714,6.1211,6.1211,6.0867,6.0408,6.0676,6.1134,6.1745,6.293,6.3885,6.4802,6.6254,6.6865,6.7133,6.7439,6.7515,6.7553,6.7821,6.7706,6.7553,6.7821,6.7668,6.7706,6.8585,6.9196,6.9655,6.996,6.9807,6.9731,7.0304,6.996,6.9769,7.0304,7.0419,7.0419,7.0419,7.0419,7.0419,7.0419,7.0419,7.0419,7.0419,7.0419,7.0419,7.0419,7.0419,7.0419,7.0419,7.0419,7.0419,7.0419,7.0419,7.0419,7.0419,7.0419,7.0266,7.0037,7.0037,6.9884,6.9616,6.9884,7.0037,5.1582,5.2805,5.4104,5.4104,0.0,0.0,0.0,0.0,0.0,0.0,0.0,0.0,0.0,0.0,0.0,0.0,0.0,0.0,0.0,0.0,0.0,0.0,0.0,0.0,0.0,0.0,0.0,0.0,0.0,0.0,0.0,0.0,0.0,0.0,6.5413,6.5413,6.5375,6.5375,6.4993,6.4191,6.4191,6.3732,6.293,6.377,6.3694,6.2853,6.1975,6.2089,6.2739,6.1058,6.0408,6.0408,6.0408,6.0408,6.0485,6.1325,6.1593,6.186,6.3618,6.4726,6.5528,6.6407,6.7247,6.7744,6.6942,6.7897,6.9005,6.8165,6.8508,6.9387,7.019,6.9807,6.9005,6.8126,6.9196,7.019,6.9387,6.9846,7.0419,7.0419,7.0419,7.0419,7.0419,7.0419,7.0419,7.0419,7.0419,7.0419,7.0419,7.0419,7.0419,7.0419,7.0419,7.0419,7.0419,7.0419,7.0419,7.0419,7.0419,7.0419,7.0419,7.0419,7.0419,7.0381,7.0381,6.9999,6.9196,6.9196,6.8738,6.7935,6.8814,6.9196,5.075,0.0,0.0,0.0,0.0,0.0,0.0,0.0,0.0,0.0,0.0,0.0,0.0,0.0,0.0,0.0,0.0,0.0,0.0,0.0,0.0,0.0,0.0,0.0,0.0,0.0,0.0,0.0,0.0,0.0,0.0,0.0,0.0,0.0,6.5413,6.5146,6.4535,6.4535,6.442,6.4191,6.4191,6.3732,6.2892,6.2548,6.2242,6.1936,6.1096,6.0905,6.1096,6.0599,6.0408,6.0446,6.1019,6.1249,6.1363,6.2204,6.251,6.2777,6.4458,6.484,6.4879,6.6904,6.7706,6.7859,6.763,6.8317,6.9158,6.889,6.9005,6.9387,7.019,7.0228,6.9999,6.9731,7.0037,7.0342,7.0113,7.0228,7.0419,7.0419,7.0419,7.0419,7.0419,7.0419,7.0419,7.0419,7.0419,7.0419,7.0419,7.0419,7.0419,7.0419,7.0419,7.0419,7.0419,7.0419,7.0419,7.0419,7.0419,7.0419,7.0419,7.0419,7.0151,6.9578,6.9578,6.9425,6.9196,6.9196,6.9349,6.9655,6.9922,7.0037,5.1829,0.0,0.0,0.0,0.0,0.0,0.0,0.0,0.0,0.0,0.0,0.0,0.0,0.0,0.0,0.0,0.0,0.0,0.0,0.0,0.0,0.0,0.0,0.0,0.0,0.0,0.0,0.0,0.0,0.0,0.0,0.0,0.0,0.0,6.5413,6.4993,6.4191,6.4496,6.4153,6.3159,6.3503,6.3236,6.2395,6.2548,6.2242,6.1554,6.1096,6.0676,6.0408,6.0752,6.0867,6.0943,6.1784,6.2128,6.2204,6.3083,6.3427,6.3656,6.5337,6.5796,6.5948,6.7821,6.8432,6.8432,6.8432,6.8776,6.9196,6.9196,6.9425,6.9807,7.0266,7.0419,7.0419,7.0419,7.0419,7.0419,7.0419,7.0419,7.0419,7.0419,7.0419,7.0419,7.0419,7.0419,7.0419,7.0419,7.0419,7.0419,7.0419,7.0419,7.0419,7.0419,7.0419,7.0419,7.0419,7.0419,7.0419,7.0419,7.0419,7.0419,7.0419,7.0419,7.019,6.9693,6.9999,6.9884,6.9196,6.9502,6.9578,6.9425,6.9769,6.9922,0.0,0.0,0.0,0.0,0.0,0.0,0.0,0.0,0.0,0.0,0.0,0.0,0.0,0.0,0.0,0.0,0.0,0.0,0.0,0.0,0.0,0.0,0.0,0.0,0.0,0.0,0.0,0.0,0.0,0.0,0.0,0.0,0.0,6.5413,6.5413,6.4993,6.4076,6.4802,6.3962,0.0,6.2395,6.2357,6.1669,6.3159,6.2968,6.1478,6.1478,6.1134,6.0561,6.1287,6.1669,6.1822,6.2701,6.3006,6.3121,6.4,6.4344,6.4649,6.6254,6.7286,6.805,6.8929,6.9196,6.9196,6.9196,6.9234,6.9311,6.9311,6.9846,7.0419,7.0419,7.0342,7.0304,7.0304,7.0342,7.0419,7.0419,7.0419,7.0419,7.0419,7.0419,7.0419,7.0419,7.0419,7.0419,7.0419,7.0419,7.0419,7.0419,7.0419,7.0419,7.0419,7.0419,7.0419,7.0419,7.0419,7.0419,7.0419,7.0419,7.0419,7.0419,7.0419,7.0381,7.0304,7.1068,7.0724,6.9196,6.9922,6.954,6.8126,6.8929,6.9311,0.0,0.0,0.0,0.0,0.0,0.0,0.0,0.0,0.0,0.0,0.0,0.0,0.0,0.0,0.0,0.0,0.0,0.0,0.0,0.0,0.0,0.0,0.0,0.0,0.0,0.0,0.0,0.0,0.0,0.0,0.0,0.0,0.0,6.5413,6.5413,6.4688,6.3197,6.335,6.2815,0.0,6.1784,6.1784,6.1593,6.1325,6.1019,6.0637,6.0637,6.0905,6.1363,6.1516,6.2013,6.2701,6.3579,6.3923,6.4,6.484,6.5566,6.6292,6.7286,6.7744,6.805,6.8929,6.9196,6.9196,6.9196,6.9655,7.0151,7.0151,7.0266,7.0419,7.0419,6.9922,6.9464,6.9464,6.996,7.0419,7.0419,7.0419,7.0419,7.0419,7.0419,7.0419,7.0419,7.0419,7.0419,7.0419,7.0419,7.0419,7.0419,7.0419,7.0419,7.0419,7.0419,7.0419,7.0419,7.0419,7.0419,7.0419,7.0419,7.0419,7.0419,7.0419,7.0113,6.9464,6.9655,6.954,6.9196,6.9387,6.9616,6.9884,7.0075,7.0151,0.0,0.0,0.0,0.0,0.0,0.0,0.0,0.0,0.0,0.0,0.0,0.0,0.0,0.0,0.0,0.0,0.0,0.0,0.0,0.0,0.0,0.0,0.0,0.0,0.0,0.0,0.0,0.0,0.0,0.0,0.0,6.5413,6.5413,6.5413,6.5413,6.4611,6.293,6.3312,6.2662,6.1019,6.186,6.2204,6.2166,6.0943,6.0828,6.1593,6.1593,6.1822,6.228,6.3083,6.3465,6.3618,6.4458,6.5031,6.5452,6.5872,6.656,6.7324,6.7744,6.8165,6.8585,6.9043,6.9464,6.9769,6.9769,7.0075,7.0419,7.0419,7.0419,7.0304,6.9922,6.9502,6.9082,6.8661,6.889,6.9196,6.9196,6.9196,6.9349,6.9731,6.9502,6.9464,7.0266,7.0419,7.0419,7.0419,7.0419,7.0419,7.0419,7.0419,7.0419,7.0419,7.0419,7.0419,7.0419,7.0419,7.0419,7.0419,7.0419,7.0419,7.0419,7.0419,7.019,6.9769,7.019,7.019,6.9769,7.019,7.0381,7.0419,7.0419,7.0419,0.0,0.0,0.0,0.0,0.0,0.0,0.0,0.0,0.0,0.0,0.0,0.0,0.0,0.0,0.0,0.0,0.0,0.0,0.0,0.0,0.0,0.0,0.0,0.0,0.0,0.0,0.0,0.0,0.0,0.0,6.5413,6.5261,6.5261,6.5413,6.5108,6.4305,6.293,6.3465,6.2624,6.0408,6.1936,6.2701,6.2624,6.1402,6.1593,6.2892,6.2892,6.3006,6.3236,6.4611,6.4955,6.4688,6.5375,6.6139,6.6904,6.6904,6.7439,6.8126,6.8126,6.8699,6.9425,6.9425,6.9846,7.0419,7.0419,7.0419,7.0419,7.0419,7.0304,7.0037,6.9387,6.9005,6.8585,6.7859,6.7668,6.7706,6.7859,6.8012,6.8317,6.9043,6.8738,6.8776,7.0151,7.0419,7.0419,7.0419,7.0419,7.0419,7.0419,7.0419,7.0419,7.0419,7.0419,7.0419,7.0419,7.0419,7.0419,7.0419,7.0419,7.0419,7.0419,7.0419,7.0419,7.0419,7.1107,7.1107,7.0419,7.1107,7.1107,7.0419,7.0419,7.0419,0.0,0.0,0.0,0.0,0.0,0.0,0.0,0.0,0.0,0.0,0.0,0.0,0.0,0.0,0.0,0.0,0.0,0.0,0.0,0.0,0.0,0.0,0.0,0.0,0.0,0.0,0.0,0.0,0.0,0.0,6.5413,6.4726,6.4688,6.5375,6.4,6.3121,6.2892,6.228,6.144,6.0408,6.1325,6.1784,6.1784,6.2319,6.2701,6.2892,6.2892,6.335,6.4038,6.4267,6.5146,6.6369,6.6483,6.7018,6.7744,6.7744,6.8279,6.9043,6.9043,6.9578,7.0228,7.0228,7.0304,7.0419,7.0419,7.0419,7.0419,7.0419,6.9884,6.9349,6.9234,6.8126,6.7018,6.6904,6.6865,6.7056,6.7744,6.847,6.9043,6.9158,6.9655,7.0151,7.0381,7.0419,7.0419,7.0419,7.0419,7.0419,7.0419,7.0419,7.0419,7.0419,7.0419,7.0419,7.0419,7.0419,7.0419,7.0419,7.0419,7.0419,7.0419,7.0419,7.0419,7.0419,7.0533,7.0533,7.0419,7.0533,7.0533,7.0419,7.0419,7.0419,0.0,0.0,0.0,0.0,0.0,0.0,0.0,0.0,0.0,0.0,0.0,0.0,0.0,0.0,0.0,0.0,0.0,0.0,0.0,0.0,0.0,0.0,0.0,0.0,0.0,0.0,0.0,0.0,0.0,6.5494,6.5435,6.51,6.484,6.4726,6.4,6.3388,6.2892,6.2051,6.1669,6.1822,6.2662,6.3274,6.377,6.5108,6.5184,6.4344,6.484,6.549,6.6292,6.6789,6.7133,6.7362,6.7362,6.7897,6.8623,6.8623,6.9158,6.9884,6.9884,7.0113,7.0419,7.0419,7.0419,7.0419,7.0419,7.0113,6.9807,7.0266,6.9464,6.847,6.847,6.7935,6.7247,6.6827,6.7056,6.7477,6.7821,6.8203,6.8623,6.912,7.0228,7.0954,7.0495,7.0419,7.0419,7.0419,7.0419,7.0419,7.0419,7.0419,7.0419,7.0419,7.0419,7.0419,7.0419,7.0419,7.0419,7.0419,7.0419,7.0419,7.0419,7.0419,7.0419,7.0419,7.0419,7.0419,7.0419,7.0419,7.0419,7.0419,7.0419,7.0419,0.0,0.0,0.0,0.0,0.0,0.0,0.0,0.0,0.0,0.0,0.0,0.0,0.0,0.0,0.0,0.0,0.0,0.0,0.0,0.0,0.0,0.0,0.0,0.0,0.0,0.0,0.0,0.0,0.0,6.5523,6.5494,6.5244,6.4802,6.4191,6.4,6.3465,6.2586,6.1936,6.1936,6.2586,6.3885,6.4802,6.5452,6.7133,6.7324,6.6407,6.6827,6.7362,6.7935,6.8585,6.8623,6.8241,6.8241,6.8738,6.9502,6.9502,6.9884,7.0419,7.0419,7.0419,7.0419,7.0419,7.0419,7.0381,7.0151,6.9693,6.9273,6.9655,6.8738,6.763,6.7859,6.7744,6.7515,6.7095,6.763,6.8279,6.847,6.8547,6.8852,6.996,7.0992,7.1489,7.0839,7.0572,7.0419,7.0419,7.0419,7.0419,7.0419,7.0419,7.0419,7.0419,7.0419,7.0419,7.0419,7.0419,7.0419,7.0419,7.0419,7.0419,7.0419,7.0419,7.0419,7.0419,7.0419,7.0419,7.0419,7.0419,7.0419,7.0419,7.0419,7.0419,0.0,0.0,0.0,0.0,0.0,0.0,0.0,0.0,0.0,0.0,0.0,0.0,0.0,0.0,0.0,0.0,0.0,0.0,0.0,0.0,0.0,0.0,0.0,0.0,0.0,0.0,0.0,0.0,0.0,6.558,6.5494,6.4709,6.4229,6.4191,6.3388,6.2548,6.1669,6.1631,6.1631,6.1707,6.4153,6.5375,6.5452,6.7133,6.8279,6.8967,6.8165,6.7859,6.7897,6.7935,6.8432,6.912,6.912,6.9616,7.0342,7.0342,7.0381,7.0419,7.0419,7.0419,7.0419,7.0419,7.0419,7.0266,6.9502,6.9234,6.9043,6.8241,6.74,6.6942,6.7706,6.7324,6.6942,6.7668,6.8508,6.9349,7.0113,7.0266,7.0763,7.2482,7.2215,7.168,7.1642,7.0954,7.0419,7.0419,7.0419,7.0419,7.0419,7.0419,7.0419,7.0419,7.0419,7.0419,7.0419,7.0419,7.0419,7.0419,7.0419,7.0419,7.0419,7.0419,7.0419,7.0419,7.0419,7.0419,7.0419,7.0419,7.0419,7.0419,7.0419,7.0419,0.0,0.0,0.0,0.0,0.0,0.0,0.0,0.0,0.0,0.0,0.0,0.0,0.0,0.0,0.0,0.0,0.0,0.0,0.0,0.0,0.0,0.0,0.0,0.0,0.0,0.0,0.0,0.0,0.0,0.0,6.558,6.5283,6.4575,6.3475,6.3695,6.3427,6.2519,6.3532,6.4038,6.4076,6.6063,6.698,6.7056,6.8738,6.9387,6.9196,6.9425,6.9502,6.9502,6.9502,6.9693,6.996,6.996,7.0151,7.0419,7.0419,7.0419,7.0419,7.0419,7.0419,7.0304,6.9807,6.9616,6.9464,6.8623,6.8012,6.7744,6.8508,6.7744,6.7018,6.8394,6.8508,6.8508,6.9311,6.9731,7.0381,7.1756,7.2062,7.2253,7.2864,7.275,7.2367,7.1794,7.0992,7.0419,7.0419,7.0419,7.0419,7.0419,7.0419,7.0419,7.0419,7.0419,7.0419,7.0419,7.0419,7.0419,7.0419,7.0419,7.0419,7.0419,7.0419,7.0419,7.0419,7.0419,7.0419,7.0419,7.0419,7.0419,7.0419,7.0419,7.0419,0.0,0.0,0.0,0.0,0.0,0.0,0.0,0.0,0.0,0.0,0.0,0.0,0.0,0.0,0.0,0.0,0.0,0.0,0.0,0.0,0.0,0.0,0.0,0.0,0.0,0.0,0.0,0.0,0.0,0.0,6.5674,6.5608,6.5082,6.3915,6.3904,6.3904,6.3848,6.487,6.5566,6.5872,6.7553,6.8317,6.8394,6.9769,7.0113,6.9616,7.019,7.0419,7.0419,7.0419,7.0419,7.0419,7.0419,7.0419,7.0419,7.0419,7.0419,7.0419,7.0419,7.0228,6.9922,6.9387,6.9005,6.8661,6.8088,6.7515,6.7324,6.8432,6.7973,6.7439,6.8814,6.9387,6.9731,7.0266,7.061,7.1221,7.2673,7.275,7.2711,7.3284,7.2941,7.2367,7.1794,7.0992,7.0419,7.0419,7.0419,7.0419,7.0419,7.0419,7.0419,7.0419,7.0419,7.0419,7.0419,7.0419,7.0419,7.0419,7.0419,7.0419,7.0419,7.0419,7.0419,7.0419,7.0419,7.0419,7.0419,7.0419,7.0419,7.0419,7.0419,7.0419,0.0,0.0,0.0,0.0,0.0,0.0,0.0,0.0,0.0,0.0,0.0,0.0,0.0,0.0,0.0,0.0,0.0,0.0,0.0,0.0,0.0,0.0,0.0,0.0,0.0,0.0,0.0,0.0,0.0,6.5793,6.5793,6.5635,6.5569,6.5569,6.3942,6.3848,6.5532,6.5512,6.591,6.6789,6.8432,6.9234,6.9273,7.0037,7.0419,7.0419,7.0419,7.0419,7.0419,7.0419,7.0419,7.0419,7.0419,7.0419,7.0419,7.0419,7.0419,7.0419,7.0419,6.9884,6.9234,6.9196,6.8623,6.7935,6.7897,6.7897,6.7897,6.7935,6.7935,6.8126,6.9005,6.9807,7.0419,7.0419,7.1068,7.1909,7.2788,7.2291,7.2138,7.3858,7.2826,7.168,7.168,7.0954,7.0419,7.0419,7.0419,7.0419,7.0419,7.0419,7.0419,7.0419,7.0419,7.0419,7.0419,7.0419,7.0419,7.0419,7.0419,7.0419,7.0419,7.0419,7.0419,7.0419,7.0419,7.0419,7.0419,7.0419,7.0419,7.0419,7.0419,7.0419,5.6071,0.0,0.0,0.0,0.0,0.0,0.0,0.0,0.0,0.0,0.0,0.0,0.0,0.0,0.0,0.0,0.0,0.0,0.0,0.0,0.0,0.0,0.0,0.0,0.0,0.0,0.0,0.0,6.5872,6.5846,6.5793,6.5152,6.4807,6.4885,6.4346,6.4895,6.6584,6.7055,6.7752,6.8693,6.9705,7.0241,7.0302,7.0532,7.0609,7.0609,7.0585,7.0554,7.0554,7.0451,7.0419,7.0419,7.0419,7.0419,7.0419,7.0419,7.0419,7.0419,7.0419,7.0266,6.996,6.9387,6.9043,6.8699,6.8088,6.7897,6.8012,6.8661,6.8852,6.9043,6.9846,7.0228,7.0572,7.1183,7.103,7.1183,7.2673,7.1833,7.1259,7.3017,7.2444,7.1489,7.0877,7.0572,7.0419,7.0419,7.0419,7.0419,7.0419,7.0419,7.0419,7.0419,7.0419,7.0419,7.0419,7.0419,7.0419,7.0419,7.0419,7.0419,7.0419,7.0419,7.0419,7.0419,7.0419,7.0419,7.0419,7.0419,7.0419,7.0419,7.0419,7.0419,0.0,0.0,0.0,0.0,0.0,0.0,0.0,5.9964,0.0,0.0,0.0,0.0,0.0,0.0,0.0,0.0,0.0,0.0,0.0,0.0,0.0,0.0,0.0,0.0,0.0,0.0,0.0,6.5859,6.5243,6.4949,6.5269,6.4847,6.4731,6.5128,6.5397,6.6178,6.7522,6.8254,6.9038,6.9941,7.0417,7.0678,7.0708,7.0708,7.0708,7.0708,7.0616,7.0623,7.0585,7.0522,7.0451,7.0419,7.0419,7.0419,7.0419,7.0419,7.019,6.996,7.0304,6.996,6.9349,6.9234,6.8929,6.8623,6.847,6.8432,6.8623,6.9464,6.9693,6.9807,7.0304,7.0419,7.0533,7.103,7.1068,7.1221,7.2253,7.1642,7.1221,7.2253,7.1756,7.0992,7.0495,7.0419,7.0419,7.0419,7.0419,7.0419,7.0419,7.0419,7.0419,7.0419,7.0419,7.0419,7.0419,7.0419,7.0419,7.0419,7.0419,7.0419,7.0419,7.0419,7.0419,7.0419,7.0419,7.0419,7.0419,7.0419,7.0419,7.0419,7.0419,7.0419,0.0,0.0,0.0,0.0,0.0,0.0,5.9568,5.9783,5.9858,0.0,0.0,0.0,0.0,0.0,0.0,0.0,0.0,0.0,0.0,0.0,0.0,0.0,0.0,0.0,0.0,6.382,6.3974,6.5628,6.4243,6.3589,6.4282,6.4512,6.4974,6.5743,6.6576,6.7483,6.8444,6.9117,6.9855,7.0699,7.0699,7.0737,7.0699,7.0699,7.0699,7.0737,7.0647,7.0616,7.0616,7.0585,7.0554,7.0419,7.0419,7.0419,7.0419,7.0419,6.9999,6.9578,7.019,6.9502,6.8432,6.912,6.8814,6.8317,6.9082,6.9311,6.9464,7.019,7.0419,7.0419,7.0419,7.0419,7.0419,7.0533,7.1068,7.1565,7.1713,7.1603,7.1565,7.1598,7.0916,7.0419,7.0419,7.0419,7.0419,7.0419,7.0419,7.0419,7.0419,7.0419,7.0457,7.0533,7.0457,7.0457,7.0533,7.0457,7.0419,7.0419,7.0419,7.0419,7.0419,7.0419,7.0419,7.0419,7.0419,7.0419,7.0419,7.0419,7.0419,7.0419,7.0419,7.0419,0.0,0.0,0.0,0.0,0.0,0.0,6.053,6.0732,6.0657,0.0,0.0,0.0,0.0,0.0,0.0,0.0,0.0,0.0,0.0,0.0,0.0,0.0,0.0,0.0,0.0,6.382,6.3743,6.4782,6.3897,6.3089,6.2589,6.3858,6.4666,6.4859,6.632,6.7833,6.941,6.9442,6.9942,7.0843,7.0787,7.0787,7.0871,7.0871,7.0871,7.0843,7.0787,7.0758,7.0767,7.0708,7.0547,7.0419,7.0522,7.0522,7.0419,7.0419,7.0724,7.1107,7.061,7.0648,7.0877,7.0342,7.0037,6.996,7.0113,7.019,7.019,7.0381,7.0419,7.0419,7.0522,7.0451,7.0572,7.1357,7.1095,7.0872,7.1625,7.1178,7.0719,7.0783,7.0566,7.0419,7.0419,7.0419,7.0419,7.0419,7.0419,7.0419,7.0419,7.0419,7.0686,7.1374,7.0839,7.0686,7.1374,7.0801,7.0419,7.0419,7.0419,7.0419,7.0419,7.0419,7.0419,7.0419,7.0419,7.0419,7.0419,7.0419,7.0419,7.0419,7.0419,7.0419,0.0,0.0,0.0,5.9215,0.0,0.0,0.0,6.1036,6.0882,0.0,0.0,0.0,0.0,0.0,0.0,0.0,0.0,0.0,0.0,0.0,0.0,0.0,0.0,0.0,0.0,6.3205,6.2704,6.2704,6.2704,6.2704,6.2704,6.3512,6.4551,6.582,6.709,6.8398,6.9706,7.0025,7.0448,7.0898,7.0871,7.0871,7.0898,7.0898,7.0898,7.0898,7.0815,7.0787,7.0787,7.0758,7.0669,7.0547,7.0616,7.0815,7.1057,7.07,7.0751,7.0992,7.0604,7.049,7.0457,7.0419,7.0419,7.0419,7.0419,7.0419,7.0419,7.0419,7.0451,7.0522,7.0554,7.0585,7.0662,7.1145,7.0884,7.0662,7.1145,7.0884,7.0547,7.0647,7.0616,7.0547,7.0522,7.0522,7.0522,7.0522,7.0828,7.1063,7.103,7.1412,7.1871,7.2291,7.1947,7.1904,7.2357,7.198,7.156,7.1134,7.1063,7.1063,7.1095,7.0713,7.0522,7.0522,7.0522,7.0522,7.0522,7.0515,7.0515,7.0419,7.0419,7.0419,0.0,0.0,0.0,0.0,0.0,6.0614,0.0,0.0,0.0,0.0,0.0,0.0,0.0,0.0,0.0,0.0,0.0,0.0,0.0,0.0,0.0,0.0,0.0,0.0,0.0,6.2704,6.1973,6.1089,6.155,6.2127,6.2781,6.3128,6.4397,6.6782,6.7859,6.8898,6.9937,7.0591,7.0898,7.0898,7.0898,7.0898,7.0898,7.0898,7.0898,7.0898,7.0843,7.0815,7.0815,7.0815,7.0902,7.0997,7.0968,7.1214,7.1574,7.1252,7.0961,7.0681,7.0815,7.0362,6.9769,7.0298,7.0451,7.0451,7.0451,7.0451,7.0451,7.0451,7.0554,7.0616,7.0616,7.0678,7.0669,7.0737,7.0737,7.0669,7.0737,7.0737,7.0669,7.0737,7.0737,7.0678,7.0616,7.0616,7.0693,7.0846,7.142,7.1886,7.1975,7.2625,7.3122,7.3275,7.3161,7.3155,7.3335,7.3155,7.2773,7.211,7.2007,7.1931,7.1842,7.1229,7.0808,7.0616,7.0808,7.0808,7.0616,7.0831,7.08,7.0451,7.0451,7.0451,0.0,0.0,0.0,0.0,6.0893,0.0,0.0,0.0,0.0,0.0,0.0,0.0,0.0,0.0,0.0,0.0,0.0,0.0,0.0,0.0,0.0,0.0,0.0,0.0,0.0,6.3243,6.282,6.2012,6.132,6.0973,6.1089,6.2512,6.4128,6.5974,6.759,6.9167,7.0744,7.086,7.0898,7.0898,7.0898,7.0898,7.0898,7.0898,7.0898,7.0898,7.0898,7.0898,7.0898,7.0898,7.1332,7.2024,7.1968,7.1458,7.1014,7.2395,7.2371,7.1657,7.1789,7.1657,7.1331,7.0839,7.0616,7.0585,7.0678,7.0616,7.0585,7.0678,7.0708,7.0708,7.0758,7.0729,7.0699,7.0758,7.0729,7.0737,7.0758,7.0729,7.0737,7.0758,7.0729,7.0708,7.0708,7.0708,7.0976,7.1743,7.1935,7.2211,7.2939,7.3092,7.3475,7.4242,7.3629,7.3475,7.4274,7.3629,7.3131,7.3047,7.3016,7.2709,7.2011,7.1896,7.1475,7.0708,7.1475,7.1475,7.0708,7.1475,7.1413,7.0554,7.0647,7.0647,0.0,0.0,0.0,0.0,0.0,0.0,0.0,0.0,6.1264,0.0,0.0,0.0,0.0,0.0,0.0,0.0,0.0,0.0,0.0,0.0,0.0,0.0,0.0,0.0,0.0,0.0,0.0,0.0,6.1743,6.155,6.155,6.2666,6.432,6.6513,6.7782,6.9206,7.0898,7.0898,7.0898,7.0898,7.0898,7.0898,7.0898,7.0898,7.0898,7.0898,7.0898,7.0898,7.0937,7.1437,7.186,7.2283,7.3255,7.3044,7.2293,7.3091,7.3031,7.2632,7.2694,7.2663,7.2454,7.1674,7.1099,7.0678,7.0708,7.0678,7.0678,7.0708,7.0737,7.0758,7.0787,7.0787,7.0815,7.0843,7.0843,7.0815,7.0843,7.0843,7.0815,7.0843,7.0815,7.0969,7.1468,7.1555,7.1641,7.2025,7.2878,7.3607,7.3929,7.435,7.4772,7.5156,7.4849,7.4842,7.5257,7.4919,7.4458,7.4029,7.3991,7.3607,7.2763,7.2724,7.234,7.1526,7.1343,7.1343,7.1526,7.19,7.1871,7.1466,7.1436,7.1137,6.0744,0.0,0.0,0.0,0.0,0.0,0.0,0.0,0.0,0.0,0.0,0.0,0.0,0.0,0.0,0.0,0.0,0.0,0.0,0.0,0.0,0.0,0.0,0.0,0.0,0.0,0.0,0.0,0.0,6.1973,6.1743,6.2743,6.4359,6.6705,6.7821,6.9206,7.0898,7.0898,7.0898,7.0898,7.0898,7.0898,7.0898,7.0898,7.0898,7.0898,7.0898,7.1052,7.1321,7.1937,7.2476,7.3014,7.4207,7.4293,7.3697,7.4063,7.3774,7.3261,7.3321,7.3014,7.2456,7.185,7.1236,7.0699,7.0729,7.0729,7.0699,7.0729,7.0787,7.0815,7.0815,7.0871,7.0898,7.0898,7.0898,7.0898,7.0898,7.0898,7.0975,7.1206,7.1245,7.1514,7.2399,7.2332,7.2275,7.2736,7.385,7.4704,7.4873,7.5411,7.5756,7.5756,7.5756,7.5826,7.5925,7.5826,7.5557,7.5003,7.4773,7.435,7.3697,7.3697,7.3313,7.2506,7.2083,7.2045,7.2467,7.2755,7.2755,7.2467,7.2178,7.1573,0.0,0.0,0.0,6.1681,0.0,0.0,0.0,0.0,6.1422,0.0,0.0,0.0,0.0,0.0,0.0,0.0,0.0,0.0,0.0,0.0,0.0,0.0,0.0,0.0,0.0,0.0,0.0,0.0,0.0,0.0,6.0896,6.2397,6.4128,6.5859,6.7552,6.9206,7.0898,7.0898,7.0898,7.0898,7.0898,7.0898,7.0898,7.0898,7.0898,7.0898,7.0898,7.136,7.2168,7.2168,7.3168,7.463,7.4668,7.4668,7.4784,7.563,7.4802,7.3321,7.3447,7.2399,7.0948,7.0892,7.0825,7.0787,7.0871,7.0843,7.0815,7.0871,7.0898,7.0898,7.0898,7.0898,7.0898,7.0898,7.0898,7.0898,7.0898,7.0898,7.1168,7.1975,7.2168,7.2437,7.3322,7.2745,7.2745,7.4361,7.4668,7.5014,7.5861,7.5976,7.6015,7.6015,7.6015,7.6015,7.6015,7.5976,7.5976,7.5976,7.5168,7.4707,7.4668,7.4668,7.4284,7.3476,7.4207,7.4207,7.3476,7.4245,7.4207,7.3437,7.2591,7.1717,0.0,0.0,6.172,6.172,0.0,0.0,0.0,0.0,0.0,0.0,0.0,0.0,0.0,0.0,0.0,0.0,0.0,0.0,0.0,0.0,0.0,0.0,0.0,0.0,0.0,0.0,0.0,0.0,0.0,0.0,0.0,6.2704,6.4089,6.582,6.7552,6.9206,7.0898,7.0898,7.0898,7.0898,7.0898,7.0898,7.0898,7.0898,7.0898,7.0898,7.0898,7.1398,7.2245,7.2822,7.3707,7.4784,7.5361,7.5553,7.5592,7.5899,7.5255,7.4255,7.4284,7.3168,7.1745,7.1717,7.1332,7.0871,7.0898,7.0871,7.0871,7.0898,7.0898,7.0898,7.0898,7.0898,7.0898,7.0898,7.1321,7.1745,7.1745,7.2206,7.2706,7.3014,7.3053,7.3322,7.4168,7.4053,7.4053,7.463,7.5207,7.5668,7.5976,7.6015,7.6015,7.6015,7.6015,7.6015,7.6015,7.6015,7.6015,7.6015,7.5707,7.5553,7.5553,7.5014,7.4591,7.4322,7.4053,7.4053,7.4284,7.4591,7.4553,7.4284,7.3437,7.287,6.172,6.1486,0.0,6.1252,6.1252,0.0,6.1252,0.0,0.0,0.0,0.0,0.0,0.0,0.0,0.0,0.0,0.0,0.0,0.0,0.0,0.0,0.0,0.0,0.0,0.0,0.0,0.0,0.0,0.0,0.0,0.0,0.0,6.4089,6.582,6.7552,6.9206,7.0898,7.0898,7.0898,7.0898,7.0898,7.0898,7.0898,7.0898,7.0898,7.0937,7.1245,7.186,7.2745,7.3591,7.4399,7.5207,7.5784,7.6015,7.6015,7.6015,7.5284,7.4284,7.4284,7.3168,7.1745,7.1745,7.136,7.0898,7.0898,7.0898,7.1168,7.236,7.2052,7.1629,7.286,7.2514,7.1822,7.1822,7.2245,7.2668,7.2668,7.3091,7.3591,7.386,7.3937,7.4207,7.5014,7.5168,7.5168,7.5168,7.563,7.6015,7.6015,7.6015,7.6015,7.6015,7.6015,7.6015,7.6015,7.6015,7.6015,7.6015,7.6015,7.6015,7.6015,7.5476,7.5438,7.6053,7.4976,7.4938,7.6053,7.5438,7.5168,7.513,7.4322,7.4091]},{"header":{"parameterUnit":"m.s-1","parameterCategory":1,"la1":30.6,"la2":29.2853,"lo1":-89.7004,"lo2":-87.6739,"dx":0.0162,"dy":0.0183,"nx":112,"ny":82,"refTime":"2023-01-20T18:00:00:Z","depth":0,"parameterNumber":3,"parameterNumberName":"V-component_of_WINDS"},"data":[0.0,0.0,0.0,0.0,0.0,0.0,0.0,0.0,0.0,0.0,0.0,0.0,0.0,0.0,0.0,0.0,0.0,0.0,0.0,0.0,0.0,0.0,0.0,0.0,0.0,0.0,0.0,0.0,0.0,0.0,0.0,0.0,0.0,0.0,0.0,0.0,0.0,0.0,0.0,0.0,0.0,0.0,0.0,0.0,0.0,0.0,0.0,0.0,0.0,0.0,0.0,0.0,0.0,0.0,0.0,0.0,0.0,0.0,0.0,0.0,0.0,0.0,0.0,0.0,0.0,0.0,0.0,0.0,0.0,0.0,0.0,0.0,0.0,0.0,0.0,0.0,0.0,0.0,0.0,0.0,0.0,0.0,0.0,0.0,0.0,0.0,0.0,0.0,0.0,0.0,0.0,-2.7734,-2.8066,-2.7276,-2.4948,-2.4727,-2.5054,-2.5966,0.0,0.0,0.0,0.0,0.0,0.0,0.0,0.0,0.0,0.0,0.0,0.0,0.0,0.0,0.0,0.0,0.0,0.0,0.0,0.0,0.0,0.0,0.0,0.0,0.0,0.0,0.0,0.0,0.0,0.0,0.0,0.0,0.0,0.0,0.0,0.0,0.0,0.0,0.0,0.0,0.0,0.0,0.0,0.0,0.0,0.0,0.0,0.0,0.0,0.0,0.0,0.0,0.0,0.0,0.0,0.0,0.0,0.0,0.0,0.0,0.0,0.0,0.0,0.0,0.0,0.0,0.0,0.0,0.0,0.0,0.0,0.0,0.0,0.0,0.0,0.0,0.0,0.0,0.0,0.0,0.0,0.0,0.0,0.0,0.0,0.0,0.0,0.0,0.0,0.0,0.0,0.0,0.0,0.0,0.0,0.0,0.0,0.0,0.0,0.0,0.0,0.0,0.0,0.0,-2.7072,-2.6803,-2.7707,-2.7276,-2.4948,-2.4727,-2.5054,-2.5966,0.0,0.0,0.0,0.0,0.0,0.0,0.0,0.0,0.0,0.0,0.0,0.0,0.0,0.0,0.0,0.0,0.0,0.0,0.0,0.0,0.0,0.0,0.0,0.0,0.0,0.0,0.0,0.0,0.0,0.0,0.0,0.0,0.0,0.0,0.0,0.0,0.0,0.0,0.0,0.0,0.0,0.0,0.0,0.0,0.0,0.0,0.0,0.0,0.0,0.0,0.0,0.0,0.0,0.0,0.0,0.0,0.0,0.0,0.0,0.0,0.0,0.0,0.0,0.0,0.0,0.0,0.0,0.0,0.0,0.0,0.0,0.0,0.0,0.0,0.0,0.0,0.0,0.0,0.0,0.0,0.0,0.0,0.0,0.0,0.0,0.0,0.0,0.0,0.0,0.0,0.0,0.0,0.0,0.0,0.0,0.0,0.0,0.0,0.0,0.0,0.0,0.0,0.0,-2.7349,-2.7179,-2.6571,-2.6971,-2.6409,-2.3966,-2.3743,-2.4073,-2.4995,-2.4524,0.0,0.0,0.0,0.0,0.0,0.0,0.0,0.0,0.0,0.0,0.0,0.0,0.0,0.0,0.0,0.0,0.0,0.0,0.0,0.0,0.0,0.0,0.0,0.0,0.0,0.0,0.0,0.0,0.0,0.0,0.0,0.0,0.0,0.0,0.0,0.0,0.0,0.0,0.0,0.0,0.0,0.0,0.0,0.0,0.0,0.0,0.0,0.0,0.0,0.0,0.0,0.0,0.0,0.0,0.0,0.0,0.0,0.0,0.0,0.0,0.0,0.0,0.0,0.0,0.0,0.0,0.0,0.0,0.0,0.0,0.0,0.0,0.0,0.0,0.0,0.0,0.0,0.0,0.0,0.0,0.0,0.0,0.0,0.0,0.0,0.0,0.0,0.0,0.0,0.0,0.0,0.0,0.0,0.0,0.0,0.0,0.0,0.0,0.0,0.0,0.0,0.0,-2.7027,-2.6723,-2.6155,-2.6082,-2.5186,-2.3199,-2.2974,-2.3321,-2.414,-2.4193,0.0,0.0,0.0,0.0,0.0,0.0,0.0,0.0,0.0,0.0,0.0,0.0,0.0,0.0,0.0,0.0,0.0,0.0,0.0,0.0,0.0,0.0,0.0,0.0,0.0,0.0,0.0,0.0,0.0,0.0,0.0,0.0,0.0,0.0,0.0,0.0,0.0,0.0,0.0,0.0,0.0,0.0,0.0,0.0,0.0,0.0,0.0,0.0,0.0,0.0,0.0,0.0,0.0,0.0,0.0,0.0,0.0,0.0,0.0,0.0,0.0,0.0,0.0,0.0,0.0,0.0,0.0,0.0,0.0,0.0,0.0,0.0,0.0,0.0,0.0,0.0,0.0,0.0,0.0,0.0,0.0,0.0,0.0,0.0,0.0,0.0,0.0,0.0,0.0,0.0,0.0,0.0,0.0,0.0,0.0,0.0,0.0,0.0,0.0,0.0,0.0,0.0,-2.5111,-2.4913,-2.4837,-2.4837,-2.4283,-2.3087,-2.2974,-2.3321,-2.414,-2.4193,0.0,0.0,0.0,0.0,0.0,0.0,0.0,0.0,0.0,0.0,0.0,0.0,0.0,0.0,0.0,0.0,0.0,0.0,0.0,0.0,0.0,0.0,0.0,0.0,0.0,0.0,0.0,0.0,0.0,0.0,0.0,0.0,0.0,0.0,0.0,0.0,0.0,0.0,0.0,0.0,0.0,0.0,0.0,0.0,0.0,0.0,0.0,0.0,0.0,0.0,0.0,0.0,0.0,0.0,0.0,0.0,0.0,0.0,0.0,0.0,0.0,0.0,0.0,0.0,0.0,0.0,0.0,0.0,0.0,0.0,0.0,0.0,0.0,0.0,0.0,0.0,0.0,0.0,0.0,0.0,0.0,0.0,0.0,0.0,0.0,0.0,0.0,0.0,0.0,0.0,0.0,0.0,0.0,0.0,0.0,0.0,0.0,0.0,0.0,0.0,0.0,0.0,-2.4703,-2.447,0.0,-2.4078,-2.3519,-2.3087,-2.2312,-2.2243,-2.3118,0.0,0.0,0.0,0.0,0.0,0.0,0.0,0.0,0.0,0.0,0.0,0.0,0.0,0.0,0.0,0.0,0.0,0.0,0.0,0.0,0.0,0.0,0.0,0.0,0.0,0.0,0.0,0.0,0.0,0.0,0.0,0.0,0.0,0.0,0.0,0.0,0.0,0.0,0.0,0.0,0.0,0.0,0.0,0.0,0.0,0.0,0.0,0.0,0.0,0.0,0.0,0.0,0.0,0.0,0.0,0.0,0.0,0.0,0.0,0.0,0.0,0.0,0.0,0.0,0.0,0.0,0.0,0.0,0.0,0.0,0.0,0.0,0.0,0.0,0.0,0.0,0.0,0.0,0.0,0.0,0.0,0.0,0.0,0.0,0.0,0.0,0.0,0.0,0.0,0.0,0.0,0.0,0.0,0.0,0.0,0.0,0.0,0.0,0.0,0.0,0.0,0.0,-2.4088,-2.3611,-2.3243,0.0,-2.2862,-2.2425,-2.2425,-2.1645,-2.1586,-2.2387,0.0,0.0,0.0,0.0,0.0,0.0,0.0,0.0,0.0,0.0,0.0,0.0,0.0,0.0,0.0,0.0,0.0,0.0,0.0,0.0,0.0,0.0,0.0,0.0,0.0,0.0,0.0,0.0,0.0,0.0,0.0,0.0,0.0,0.0,0.0,0.0,0.0,0.0,0.0,0.0,0.0,0.0,0.0,0.0,0.0,0.0,0.0,0.0,0.0,0.0,0.0,0.0,0.0,0.0,0.0,0.0,0.0,0.0,0.0,0.0,0.0,0.0,0.0,0.0,0.0,0.0,0.0,0.0,0.0,0.0,0.0,0.0,0.0,0.0,0.0,0.0,0.0,0.0,0.0,0.0,0.0,0.0,0.0,0.0,0.0,0.0,0.0,0.0,0.0,0.0,0.0,0.0,0.0,0.0,0.0,0.0,0.0,0.0,0.0,0.0,0.0,0.0,-2.1926,-2.145,-2.1203,-2.1203,-2.1203,-2.1203,-2.1218,-2.1218,-2.1489,0.0,0.0,0.0,0.0,0.0,0.0,0.0,0.0,0.0,0.0,0.0,0.0,0.0,0.0,0.0,0.0,0.0,0.0,0.0,0.0,0.0,0.0,0.0,0.0,0.0,0.0,0.0,0.0,0.0,0.0,0.0,0.0,0.0,0.0,0.0,0.0,0.0,0.0,0.0,0.0,0.0,0.0,0.0,0.0,0.0,0.0,0.0,0.0,0.0,0.0,0.0,0.0,0.0,0.0,0.0,0.0,0.0,0.0,0.0,0.0,0.0,0.0,0.0,0.0,0.0,0.0,0.0,0.0,0.0,0.0,0.0,0.0,0.0,0.0,0.0,0.0,0.0,0.0,0.0,0.0,0.0,0.0,0.0,0.0,0.0,0.0,0.0,0.0,0.0,0.0,0.0,0.0,0.0,0.0,0.0,0.0,0.0,0.0,0.0,0.0,0.0,0.0,0.0,-2.2995,-2.1896,-2.1203,-2.1203,-2.1203,-2.1306,-2.154,-2.1554,-2.1595,-2.1826,0.0,0.0,0.0,0.0,0.0,0.0,0.0,0.0,0.0,0.0,0.0,0.0,0.0,0.0,0.0,0.0,0.0,0.0,0.0,0.0,0.0,0.0,0.0,0.0,0.0,0.0,0.0,0.0,0.0,0.0,0.0,0.0,0.0,0.0,0.0,0.0,0.0,0.0,0.0,0.0,0.0,0.0,0.0,0.0,0.0,0.0,0.0,0.0,0.0,0.0,0.0,0.0,0.0,0.0,0.0,0.0,0.0,0.0,0.0,0.0,0.0,0.0,0.0,0.0,0.0,0.0,0.0,0.0,0.0,0.0,0.0,0.0,0.0,0.0,0.0,0.0,0.0,0.0,0.0,0.0,0.0,0.0,0.0,0.0,0.0,0.0,0.0,0.0,0.0,0.0,0.0,0.0,0.0,0.0,0.0,0.0,0.0,0.0,0.0,0.0,0.0,0.0,-2.214,-2.1683,-2.135,-2.1218,-2.1437,-2.1628,-2.1686,-2.1818,-2.1862,-2.1654,0.0,0.0,0.0,0.0,0.0,0.0,0.0,0.0,0.0,0.0,0.0,0.0,0.0,0.0,0.0,0.0,0.0,0.0,0.0,0.0,0.0,0.0,0.0,0.0,0.0,0.0,0.0,0.0,0.0,0.0,0.0,0.0,0.0,0.0,0.0,0.0,0.0,0.0,0.0,0.0,0.0,0.0,0.0,0.0,0.0,0.0,0.0,0.0,0.0,0.0,0.0,0.0,0.0,0.0,0.0,0.0,0.0,0.0,0.0,0.0,0.0,0.0,0.0,0.0,0.0,0.0,0.0,0.0,0.0,0.0,0.0,0.0,0.0,0.0,0.0,0.0,0.0,0.0,0.0,0.0,0.0,0.0,0.0,0.0,0.0,0.0,0.0,0.0,0.0,0.0,0.0,0.0,0.0,0.0,0.0,0.0,0.0,0.0,0.0,0.0,0.0,0.0,-2.0485,-2.1086,-2.154,-2.1247,-2.1745,-2.1979,-2.1715,-2.1993,-2.2052,-2.1759,0.0,0.0,0.0,0.0,0.0,0.0,0.0,0.0,0.0,0.0,0.0,0.0,0.0,0.0,0.0,0.0,0.0,0.0,0.0,0.0,0.0,0.0,0.0,0.0,0.0,0.0,0.0,0.0,0.0,0.0,0.0,0.0,0.0,0.0,0.0,0.0,0.0,0.0,0.0,0.0,0.0,0.0,0.0,0.0,0.0,0.0,0.0,0.0,0.0,0.0,0.0,0.0,0.0,0.0,0.0,0.0,0.0,0.0,0.0,0.0,-2.0047,0.0,0.0,0.0,0.0,0.0,0.0,0.0,0.0,0.0,0.0,0.0,0.0,0.0,0.0,0.0,0.0,0.0,0.0,0.0,0.0,0.0,0.0,0.0,0.0,0.0,0.0,0.0,0.0,0.0,0.0,0.0,0.0,0.0,0.0,0.0,0.0,0.0,0.0,0.0,0.0,0.0,-2.1759,-2.1579,-2.1291,-2.1218,-2.1335,-2.1496,-2.1686,-2.1993,-2.2154,-2.2081,0.0,0.0,0.0,0.0,0.0,0.0,0.0,0.0,0.0,0.0,0.0,0.0,0.0,0.0,0.0,0.0,0.0,0.0,0.0,0.0,0.0,0.0,0.0,0.0,0.0,0.0,0.0,0.0,0.0,0.0,0.0,0.0,0.0,0.0,0.0,0.0,0.0,0.0,0.0,0.0,0.0,0.0,0.0,0.0,0.0,0.0,0.0,0.0,0.0,0.0,0.0,0.0,0.0,0.0,0.0,0.0,0.0,0.0,0.0,0.0,0.0,-2.0077,0.0,0.0,0.0,0.0,0.0,0.0,0.0,0.0,0.0,0.0,0.0,0.0,0.0,0.0,0.0,0.0,0.0,0.0,0.0,0.0,0.0,0.0,0.0,0.0,0.0,0.0,0.0,0.0,0.0,0.0,0.0,0.0,0.0,0.0,0.0,0.0,0.0,0.0,0.0,0.0,-2.1456,-2.1472,-2.1379,-2.1233,-2.1496,-2.1686,-2.1701,-2.1993,-2.2242,-2.2389,-2.2257,0.0,0.0,0.0,0.0,0.0,0.0,0.0,0.0,0.0,0.0,0.0,0.0,0.0,0.0,0.0,0.0,0.0,0.0,0.0,0.0,0.0,0.0,0.0,0.0,0.0,0.0,0.0,0.0,0.0,0.0,0.0,0.0,0.0,0.0,0.0,0.0,0.0,0.0,0.0,0.0,0.0,0.0,0.0,0.0,0.0,0.0,0.0,0.0,0.0,0.0,0.0,0.0,0.0,0.0,-2.0617,-2.0575,-2.0056,-1.9842,-1.9857,-2.012,-2.0384,-2.0603,0.0,0.0,0.0,0.0,0.0,0.0,0.0,0.0,0.0,0.0,0.0,0.0,0.0,0.0,0.0,0.0,0.0,0.0,0.0,0.0,0.0,0.0,0.0,0.0,0.0,-2.1556,-2.2523,0.0,0.0,0.0,0.0,0.0,0.0,0.0,0.0,0.0,0.0,0.0,0.0,-2.0794,-2.1276,-2.1511,-2.1233,-2.1686,-2.1906,-2.1642,-2.1906,-2.2198,-2.2447,-2.233,-2.248,0.0,0.0,0.0,0.0,0.0,0.0,0.0,0.0,0.0,0.0,0.0,0.0,0.0,0.0,0.0,0.0,0.0,0.0,0.0,0.0,0.0,0.0,0.0,0.0,0.0,0.0,0.0,0.0,0.0,0.0,0.0,0.0,-1.8973,-1.9791,0.0,0.0,0.0,0.0,0.0,0.0,0.0,0.0,0.0,0.0,0.0,0.0,0.0,0.0,-2.0925,-2.117,-2.1254,-2.118,-2.1064,-2.0861,-2.0708,-2.0273,-2.0179,-2.0179,-2.0223,0.0,-2.0311,-2.0847,0.0,0.0,0.0,0.0,0.0,0.0,0.0,0.0,0.0,0.0,0.0,0.0,0.0,0.0,0.0,0.0,0.0,0.0,0.0,0.0,0.0,0.0,-2.1789,-2.1218,-2.17,-2.2112,0.0,-2.1942,-2.2151,-2.1033,0.0,0.0,0.0,0.0,0.0,0.0,0.0,0.0,-2.1115,-2.1218,-2.1262,-2.1218,-2.1291,-2.132,-2.1276,-2.1569,-2.1774,-2.1818,-2.2286,-2.2476,-2.2377,-2.2719,0.0,0.0,0.0,0.0,0.0,0.0,0.0,0.0,0.0,0.0,0.0,0.0,0.0,0.0,0.0,0.0,0.0,0.0,0.0,0.0,0.0,0.0,0.0,0.0,0.0,0.0,0.0,0.0,0.0,-1.9193,-1.9606,-2.0249,-2.0296,-2.0342,0.0,0.0,0.0,0.0,0.0,0.0,0.0,0.0,0.0,-2.0925,-2.0925,-2.102,-2.1211,-2.116,-2.1333,-2.1506,-2.1233,-2.1002,-2.0803,-2.039,-2.0071,-1.9909,-1.9994,-2.0077,-2.0252,-2.0509,-2.05,-2.045,0.0,0.0,0.0,0.0,0.0,-2.0293,-2.0619,-2.0626,0.0,0.0,0.0,0.0,0.0,0.0,0.0,0.0,0.0,0.0,0.0,0.0,0.0,-2.1233,-2.1569,-2.1832,-2.154,-2.171,-2.1714,0.0,-2.0867,-2.0896,-2.0559,0.0,0.0,0.0,0.0,0.0,-2.1189,-2.1203,-2.1203,-2.1203,-2.1203,-2.1203,-2.1203,-2.1335,-2.1496,-2.1686,-2.195,-2.2198,-2.2418,-2.2524,-2.2497,0.0,0.0,0.0,0.0,0.0,0.0,0.0,0.0,0.0,0.0,0.0,0.0,0.0,0.0,0.0,0.0,0.0,0.0,0.0,0.0,0.0,0.0,0.0,0.0,0.0,0.0,0.0,0.0,-1.9821,-2.003,-2.0483,-2.0411,-2.0514,0.0,0.0,0.0,0.0,0.0,0.0,-2.0925,-2.0925,-2.0925,-2.0925,-2.0925,-2.1052,-2.1306,-2.1113,-2.1239,-2.1597,-2.1155,-2.0909,-2.0767,-2.0348,-2.0046,-1.9822,-1.9847,-2.0018,-2.0347,-2.0435,-2.0464,-2.0574,-2.0464,-2.0311,-2.0252,-2.0545,-2.0574,-2.0413,-2.0959,-2.1077,-2.0852,-2.0852,0.0,-2.0788,-2.0428,0.0,0.0,0.0,0.0,-2.0545,-2.0779,-2.0969,-2.1115,-2.1189,-2.1525,-2.1774,-2.1613,-2.1642,-2.1554,0.0,-2.1174,-2.1233,-2.0911,0.0,0.0,0.0,0.0,-2.1203,-2.1203,-2.1203,-2.1203,-2.1203,-2.1276,-2.1335,-2.1335,-2.1408,-2.1569,-2.1803,-2.1891,-2.214,-2.2608,-2.2491,-2.2495,-2.2647,0.0,0.0,0.0,0.0,0.0,0.0,0.0,0.0,0.0,0.0,0.0,0.0,0.0,0.0,0.0,0.0,0.0,0.0,0.0,0.0,0.0,0.0,0.0,0.0,0.0,0.0,0.0,0.0,0.0,-2.0411,-2.0308,0.0,0.0,0.0,0.0,-2.0925,-2.0925,-2.0925,-2.0925,-2.0925,-2.0925,-2.0925,-2.0925,-2.0925,-2.0941,-2.0956,-2.0751,-2.0576,-2.0576,-2.0442,-2.0117,-2.0136,-2.0166,-2.0166,-2.0185,-2.0332,-2.058,-2.1003,-2.0929,-2.0706,-2.1041,-2.0737,-2.0267,-2.0589,-2.0691,-2.075,-2.1072,-2.1189,-2.1189,-2.1189,-2.1082,-2.1041,-2.0818,-2.0582,0.0,0.0,-2.0925,-2.1159,-2.1174,-2.1642,-2.1964,-2.135,-2.1701,-2.1993,-2.1364,-2.1481,-2.1686,0.0,-2.1657,-2.1569,-2.1247,0.0,-2.1569,-2.1262,-2.1203,-2.1203,-2.1203,-2.1203,-2.1203,-2.1203,-2.1481,-2.1672,-2.1672,-2.1964,-2.214,-2.2154,-2.2418,-2.2593,-2.2623,-2.2901,-2.2915,-2.2608,-2.2852,0.0,0.0,0.0,0.0,0.0,0.0,0.0,0.0,0.0,0.0,0.0,0.0,0.0,0.0,0.0,0.0,0.0,0.0,0.0,0.0,0.0,0.0,0.0,0.0,0.0,0.0,0.0,0.0,-2.0411,-2.0292,0.0,0.0,-2.0617,-2.0617,-2.0617,-2.0822,-2.0925,-2.0925,-2.0925,-2.0925,-2.0925,-2.0925,-2.0925,-2.0925,-2.0925,-2.0933,-2.105,-2.105,-2.116,-2.1274,-2.0972,-2.0818,-2.0695,-2.019,-2.0164,-2.0641,-2.0553,-2.0752,-2.0959,-2.1181,-2.1082,-2.0881,-2.1225,-2.1269,-2.1057,-2.1402,-2.1332,-2.1203,-2.1203,-2.113,-2.1141,-2.1042,-2.0955,-2.0994,-2.0998,-2.1115,-2.1203,-2.1203,-2.1379,-2.1496,-2.1262,-2.1393,-2.1496,-2.1262,-2.1306,-2.1379,-2.1379,-2.1379,-2.135,-2.1233,-2.1306,-2.1423,-2.1511,-2.1525,-2.1598,-2.1818,-2.1832,-2.1832,-2.1832,-2.1935,-2.2008,-2.2008,-2.2125,-2.2184,-2.2184,-2.2286,-2.2418,-2.2608,-2.274,-2.274,-2.2623,-2.2759,-2.2719,0.0,0.0,0.0,0.0,0.0,0.0,0.0,0.0,0.0,0.0,0.0,0.0,0.0,0.0,0.0,0.0,0.0,0.0,0.0,0.0,0.0,0.0,0.0,0.0,0.0,0.0,-2.0086,-2.0308,-1.9994,-1.9918,-2.0138,-2.0147,-2.0116,-2.024,-2.0444,-2.0696,-2.0719,-2.0822,-2.0861,-2.075,-2.075,-2.0798,-2.0925,-2.0798,-2.0988,-2.1449,-2.1322,-2.1281,-2.1518,-2.1202,-2.0985,-2.0876,-2.0456,-2.0486,-2.0867,-2.0647,-2.0803,-2.1121,-2.113,-2.1203,-2.1203,-2.1432,-2.1432,-2.1203,-2.1432,-2.1447,-2.1203,-2.1203,-2.1203,-2.1203,-2.1203,-2.1203,-2.1203,-2.1203,-2.1203,-2.1203,-2.1203,-2.1203,-2.1203,-2.1203,-2.1291,-2.1379,-2.1379,-2.1467,-2.154,-2.154,-2.1452,-2.1379,-2.1379,-2.1467,-2.1569,-2.1686,-2.1789,-2.1906,-2.2008,-2.2111,-2.2184,-2.2184,-2.2271,-2.233,-2.233,-2.2432,-2.2491,-2.2491,-2.2491,-2.2579,-2.2769,-2.2784,-2.2784,-2.2784,-2.2784,-2.2804,-2.2976,0.0,0.0,0.0,0.0,0.0,0.0,0.0,0.0,0.0,0.0,0.0,0.0,0.0,0.0,0.0,0.0,0.0,0.0,0.0,0.0,0.0,0.0,0.0,-2.0086,-1.9879,-1.9761,-2.0071,-1.9562,-1.928,-1.9598,-1.9292,-1.9247,-1.9567,-1.9783,-2.0124,-2.0467,-2.0704,-2.075,-2.04,-2.04,-2.0575,-2.0925,-2.0591,-2.0782,-2.136,-2.1131,-2.0767,-2.0607,-2.0926,-2.0891,-2.0595,-2.1009,-2.1174,-2.1174,-2.1174,-2.1174,-2.1174,-2.1203,-2.1203,-2.1203,-2.1203,-2.1203,-2.1203,-2.1203,-2.1203,-2.1203,-2.1203,-2.1203,-2.1203,-2.1203,-2.1203,-2.1203,-2.1203,-2.1218,-2.1233,-2.1233,-2.1233,-2.1233,-2.1233,-2.1481,-2.1715,-2.1715,-2.1964,-2.2184,-2.2184,-2.1935,-2.1715,-2.1715,-2.1979,-2.2081,-2.1774,-2.1993,0.0,-2.1774,-2.2023,-2.2213,-2.2213,-2.2462,-2.2637,-2.2637,-2.293,-2.3106,-2.3106,-2.3106,-2.3106,-2.3106,-2.3106,-2.3106,-2.3106,-2.3106,-2.323,-2.3604,0.0,0.0,0.0,0.0,0.0,0.0,0.0,0.0,0.0,0.0,0.0,0.0,0.0,0.0,0.0,0.0,0.0,0.0,0.0,0.0,0.0,0.0,-1.948,-1.9776,-1.9565,-1.9314,-1.9415,-1.913,-1.882,-1.8919,-1.8844,-1.8928,-1.9231,-1.9527,-1.9756,-2.0047,-2.02,-2.0295,-2.04,-2.0436,-2.0625,-2.0925,-2.1084,-2.1385,-2.1814,-2.1758,-2.1869,-2.2009,-2.1395,-2.1143,-2.1018,-2.0391,-2.0296,-2.0486,-2.0252,-2.0296,-2.0545,-2.1028,-2.1057,-2.0881,-2.1115,-2.1203,-2.1203,-2.1203,-2.1203,-2.1203,-2.1203,-2.1203,-2.1203,-2.1203,-2.1203,-2.1203,-2.1203,-2.1379,-2.1569,-2.1569,-2.173,-2.192,-2.192,-2.1979,-2.2052,-2.2052,-2.2125,-2.2184,-2.2184,-2.2286,-2.2301,-2.2081,-2.2125,-2.2228,-2.2345,-2.2447,0.0,-2.2696,-2.2798,-2.2857,-2.2857,-2.293,-2.2974,-2.2974,-2.3062,-2.3106,-2.3106,-2.3106,-2.3106,-2.3106,-2.3106,-2.3106,-2.3106,-2.3106,-2.323,0.0,0.0,0.0,0.0,0.0,0.0,0.0,0.0,0.0,0.0,0.0,0.0,0.0,0.0,0.0,0.0,0.0,0.0,0.0,0.0,0.0,0.0,-1.9067,-1.9126,-1.908,-1.9021,-1.8977,-1.8977,-1.8577,-1.8282,-1.8282,-1.8163,-1.823,-1.8476,-1.8905,-1.9238,-1.9574,-2.0054,-2.0256,-2.0218,-2.0457,-2.069,-2.0934,-2.0856,-2.1164,-2.1634,-2.1325,-2.1279,-2.137,-2.0997,-2.0764,0.0,-2.017,-2.0062,-2.0223,-2.0033,-2.0077,0.0,0.0,0.0,0.0,0.0,-2.0794,-2.0794,-2.0794,-2.0896,-2.1013,-2.1013,-2.1101,-2.1233,-2.1379,-2.132,-2.1262,-2.154,-2.1657,-2.173,-2.1862,-2.2037,-2.2184,-2.2184,-2.2286,-2.2374,-2.2374,-2.2476,-2.2564,-2.2564,-2.271,0.0,-2.2608,-2.2564,-2.2579,-2.2623,-2.274,-2.2842,-2.2901,-2.3018,-2.3106,-2.3106,-2.3106,-2.3106,-2.3106,-2.3106,0.0,0.0,0.0,-2.3106,-2.3106,-2.3106,0.0,0.0,0.0,-2.323,-2.3355,0.0,0.0,0.0,-2.3728,-2.3852,0.0,0.0,0.0,0.0,0.0,0.0,0.0,0.0,0.0,0.0,0.0,0.0,0.0,0.0,0.0,0.0,-1.876,-1.8672,-1.835,-1.8525,-1.8686,-1.8686,-1.813,-1.7765,-1.7765,-1.753,-1.7516,-1.7852,-1.8453,-1.888,-1.9224,0.0,0.0,0.0,0.0,-2.0636,-2.1032,-2.0468,-2.0468,-2.1032,-2.0468,-2.0,-1.9792,-2.0061,-2.0074,-1.9769,-2.0018,-2.0135,-2.0135,-2.0135,-2.0135,-2.0135,-2.0164,-2.0208,-2.0237,-2.0194,-2.0223,-2.0296,-2.0296,0.0,0.0,-2.0779,-2.0969,-2.1262,-2.1554,-2.1467,-2.1379,-2.1964,-2.1979,-2.1862,-2.2154,-2.2257,-2.2286,-2.2286,-2.2491,-2.2681,-2.2681,-2.2901,-2.3106,-2.3106,-2.3106,-2.3106,-2.3106,-2.3106,-2.3018,-2.2725,-2.2915,-2.3003,-2.271,-2.293,-2.3106,-2.3106,0.0,0.0,-2.3106,-2.3106,-2.3106,-2.3106,-2.3106,-2.3106,-2.3106,-2.3106,-2.3106,-2.3106,-2.3106,-2.3106,-2.3106,-2.3106,-2.3106,-2.3106,-2.3728,-2.3991,0.0,0.0,0.0,0.0,0.0,0.0,0.0,0.0,0.0,0.0,0.0,0.0,0.0,0.0,0.0,-1.8496,-1.8613,-1.8672,-1.835,-1.813,-1.7999,-1.7999,-1.7662,-1.7428,-1.7428,-1.7604,-1.7963,-1.8498,-1.891,-1.934,-1.9774,-2.0061,0.0,-2.0408,-2.0363,-2.0423,-2.0681,-2.0559,-2.0559,-2.0696,0.0,0.0,-2.0479,-2.0056,-1.9876,-1.9755,-1.955,-1.9462,-1.9462,-1.9462,-1.9462,-1.9491,-1.9755,-2.0018,-2.0208,-1.9945,-2.0179,-2.0633,-2.0633,-2.0837,-2.1115,-2.1115,-2.1159,-2.1218,-2.1276,-2.1452,0.0,-2.1759,-2.2111,-2.2462,-2.252,-2.274,-2.293,-2.293,-2.2974,-2.3018,-2.3018,-2.3062,-2.3106,-2.3106,-2.3106,-2.3106,-2.3106,-2.3106,-2.3091,-2.3018,-2.3062,-2.3091,-2.3018,-2.3062,-2.3106,-2.3106,-2.3106,-2.3106,-2.3106,-2.3106,-2.3106,-2.3106,-2.3106,-2.3106,-2.3106,-2.3106,-2.3106,-2.3106,-2.3106,-2.3106,-2.3106,-2.3106,-2.3106,-2.3106,-2.323,-2.323,0.0,0.0,0.0,0.0,0.0,0.0,0.0,0.0,0.0,0.0,0.0,-1.9125,0.0,0.0,-1.8628,-1.8145,-1.8203,-1.8189,-1.7867,-1.7808,-1.7882,-1.8043,-1.7765,-1.7633,-1.7794,-1.7955,-1.8228,-1.8503,-1.8799,-1.8847,-1.8597,-1.9477,-1.974,-1.9299,-1.9901,-2.0204,-2.042,-2.0255,-2.0181,-2.0181,-2.0074,-1.9968,-1.9968,-1.9049,-1.866,-1.866,-1.8009,-1.7796,-1.7809,-1.7835,-1.8225,-1.8898,-1.9052,-1.9448,-2.0003,-2.0003,-2.0208,-2.0486,-2.0486,-2.0691,-2.0969,-2.0969,-2.1189,-2.1481,-2.1642,-2.1818,-2.2008,-2.2315,-2.2506,-2.2652,-2.2828,-2.2988,-2.3062,-2.2901,-2.2871,-2.2871,-2.2871,-2.2871,-2.2871,-2.2871,-2.3003,-2.3003,-2.2696,-2.2901,-2.3106,-2.3106,-2.2974,-2.2915,-2.3091,-2.2959,-2.293,-2.3091,-2.2959,-2.293,-2.3091,-2.3106,-2.3106,-2.3106,-2.3106,-2.3106,-2.3106,-2.3106,-2.3106,-2.3106,-2.3106,-2.3106,-2.3106,-2.3106,-2.3106,-2.3106,-2.3106,-2.3106,0.0,0.0,0.0,0.0,0.0,0.0,0.0,0.0,-1.9903,-1.8947,-1.8773,-1.8584,-1.7966,-1.7951,-1.7978,-1.7779,-1.7823,-1.7698,-1.7174,-1.7309,-1.7735,-1.8052,-1.8003,-1.8013,-1.8277,-1.8364,-1.8323,-1.8182,-1.8484,-1.8156,-1.7069,-1.8383,-1.8846,-1.8076,-1.9136,-1.9794,-1.9794,-1.9492,-1.927,-1.9099,-1.8844,-1.8759,-1.871,-1.7849,-1.7423,-1.7329,-1.6574,-1.6234,-1.6246,-1.645,-1.7216,-1.8464,-1.8571,-1.914,-2.0062,-2.0194,-2.0281,-2.034,-2.0398,-2.0633,-2.0925,-2.0984,-2.1364,-2.1832,-2.2096,-2.2228,-2.2359,-2.2798,-2.2784,-2.2667,-2.2871,-2.293,-2.2857,-2.2593,-2.2535,-2.2535,-2.2535,-2.2535,-2.2535,-2.2535,-2.2798,-2.2842,-2.2286,-2.2593,-2.2945,-2.3003,-2.2842,-2.2813,-2.3076,-2.2871,-2.2813,-2.3076,-2.2813,-2.2725,-2.2988,-2.3076,-2.3135,-2.3193,-2.3149,-2.3135,-2.3208,-2.3135,-2.3106,-2.3106,-2.3164,-2.3208,-2.3208,-2.3208,-2.3208,-2.3208,-2.3135,-2.3106,0.0,0.0,0.0,-1.8736,-1.8945,-1.9199,0.0,0.0,-1.8644,-1.7296,-1.7041,-1.6946,-1.6535,-1.681,-1.7106,-1.7283,-1.7867,-1.7738,-1.6441,-1.6558,-1.6854,-1.715,-1.7839,-1.8262,-1.8291,-1.8569,-1.844,-1.7775,-1.7941,-1.7672,-1.6833,-1.7018,-1.7499,-1.8384,-1.8374,-1.8252,-1.8252,-1.7982,-1.7436,-1.6599,-1.6562,-1.6673,-1.6784,-1.6673,-1.6673,-1.6561,-1.6486,-1.6498,-1.6498,-1.6522,-1.7216,-1.8504,-1.9025,-1.9901,-2.0984,-2.0442,-2.0413,-2.0706,-2.0998,-2.132,-2.1642,-2.192,-2.2067,-2.214,-2.2169,-2.2374,-2.2535,-2.2345,-2.2447,-2.2564,-2.2345,-2.2286,-2.2271,-2.2242,-2.2228,-2.2228,-2.2228,-2.2228,-2.2228,-2.2228,-2.2476,-2.2564,-2.2242,-2.2242,-2.2374,-2.2637,-2.2901,-2.3062,-2.3106,-2.3076,-2.3062,-2.3106,-2.2813,-2.2637,-2.2681,-2.2945,-2.3237,-2.353,-2.3267,-2.3237,-2.353,-2.3267,-2.3106,-2.3106,-2.3398,-2.3545,-2.3545,-2.3545,-2.3545,-2.353,-2.3237,-2.3106,-1.8499,0.0,0.0,0.0,-1.6886,-1.7235,-1.6711,-1.6746,-1.6666,-1.578,-1.6124,-1.6437,-1.6032,-1.6718,-1.7426,0.0,-1.74,-1.7059,-1.6526,-1.615,-1.6164,-1.7012,-1.6962,-1.7194,-1.7825,-1.8053,-1.7657,-1.6711,-1.6706,-1.639,-1.5327,-1.5873,-1.626,-1.6184,-1.6636,-1.6989,-1.7139,-1.7039,-1.6796,-1.6506,-1.6506,-1.6637,-1.6887,-1.6195,-1.5587,-1.5022,-1.5022,-1.5095,-1.521,-1.521,-1.5926,-1.7126,-1.7349,-1.8274,-1.9575,-2.0872,-2.1452,-2.1584,-2.173,-2.1862,-2.1979,-2.192,-2.2023,-2.214,-2.1964,-2.2111,-2.2345,-2.2213,-2.2271,-2.2345,-2.2213,-2.2184,-2.214,-2.195,-2.1906,-2.195,-2.214,-2.2184,-2.2242,-2.2403,-2.2842,-2.3032,-2.252,-2.2915,-2.3267,-2.3193,-2.2842,-2.2696,-2.3062,-2.3106,-2.3179,-2.3369,-2.3442,-2.3471,-2.3471,-2.3588,-2.3735,-2.3866,-2.3749,-2.3735,-2.3866,-2.3749,-2.3676,-2.3676,-2.302,-2.3077,-2.3881,-2.3077,-2.3077,-2.3881,-2.3735,-2.3676,-1.7936,0.0,0.0,-1.5919,-1.6074,-1.6508,-1.5607,-1.5632,-1.5556,-1.4802,-1.524,-1.5783,-1.5939,-1.6484,-1.7064,-1.744,-1.6819,-1.6201,-1.5796,-1.5415,-1.5374,-1.621,-1.5753,-1.5767,-1.6617,-1.6935,-1.6617,-1.5541,-1.5435,-1.4934,-1.3832,-1.4647,-1.4998,-1.4697,-1.5557,-1.602,-1.6194,-1.6194,-1.6103,-1.6004,-1.6004,-1.6127,-1.6362,-1.5413,-1.4791,-1.409,-1.409,-1.4147,-1.4232,-1.4232,-1.4928,-1.6086,-1.6151,-1.692,-1.8264,-2.0429,-2.1138,-2.0948,-2.1068,-2.1188,-2.1532,-2.1389,-2.1741,-2.214,-2.1906,-2.1993,-2.2169,-2.2081,-2.2111,-2.2169,-2.2081,-2.2111,-2.2125,-2.1891,-2.1891,-2.2008,-2.2257,-2.2374,-2.2506,-2.271,-2.3208,-2.3413,-2.2857,-2.3413,-2.3837,-2.3515,-2.2959,-2.2769,-2.331,-2.3384,-2.3427,-2.3574,-2.3881,-2.4042,-2.3954,-2.4027,-2.4115,-2.4218,-2.413,-2.413,-2.4218,-2.413,-2.3941,-2.3551,-2.2558,-2.2335,-2.3008,-2.2335,-2.2599,-2.3679,-2.3985,-2.4086,0.0,0.0,-1.8617,-1.65,-1.7313,-1.7937,-1.543,-1.5562,-1.5875,-1.4617,-1.4376,-1.4737,-1.6082,-1.5452,-1.5159,-1.6434,-1.5998,-1.5035,-1.3908,-1.4008,-1.4266,-1.4266,-1.4266,-1.4277,0.0,-1.5328,-1.5435,-1.4385,-1.4277,-1.3842,-1.286,-1.305,-1.3824,-1.5077,-1.5312,-1.544,-1.544,-1.544,-1.497,-1.4108,-1.4108,-1.4223,-1.4413,-1.4288,-1.4298,-1.4298,-1.4298,-1.4194,-1.4024,-1.4024,-1.461,-1.5612,-1.5838,-1.6771,-1.8009,-1.8398,-1.8325,-1.7973,-1.7973,-1.8822,-1.9945,-2.0227,-2.1194,-2.2184,-2.2169,-2.2169,-2.2125,-2.1803,-2.1935,-2.2111,-2.1789,-2.195,-2.2184,-2.2169,-2.2389,-2.2593,-2.2608,-2.2857,-2.3091,-2.3091,-2.3369,-2.3486,-2.3149,-2.3384,-2.3501,-2.3179,-2.3369,-2.3676,-2.4013,-2.4057,-2.394,-2.3632,-2.3881,-2.3954,-2.3632,-2.3896,-2.4218,-2.454,-2.4262,-2.4232,-2.454,-2.4247,-2.3406,-2.1937,-2.2231,-2.1693,-2.0219,-2.1693,-2.2378,-2.2499,-2.3562,-2.4086,0.0,0.0,-1.6434,-1.5357,-1.501,-1.464,-1.3682,-1.3625,-1.3842,-1.363,-1.4143,-1.501,-1.6374,-1.64,-1.6367,-1.6866,-1.5664,-1.4467,-1.4051,-1.347,-1.3305,-1.4062,-1.3521,0.0,0.0,0.0,0.0,-1.3307,-1.3335,-1.3399,-1.3173,-1.3372,-1.3817,-1.438,-1.4469,-1.4568,-1.4715,-1.4715,-1.4576,-1.443,-1.4563,-1.4591,-1.4525,-1.4525,-1.4449,-1.4307,-1.4307,-1.427,-1.4213,-1.4213,-1.4413,-1.4715,-1.4785,-1.5185,-1.5546,-1.5473,-1.5401,-1.5592,-1.7561,-1.8471,-1.8943,-1.9707,-2.0278,-2.0726,-2.1365,-2.154,-2.1511,-2.1408,-2.1452,-2.1613,-2.1935,-2.2096,-2.2286,-2.2696,-2.2871,-2.3003,-2.3223,-2.3354,-2.3501,-2.372,-2.4013,-2.4203,-2.4101,-2.4349,-2.4525,-2.4423,-2.413,-2.4042,-2.4364,-2.4408,-2.4364,-2.4247,-2.4145,-2.413,-2.4232,-2.4349,-2.454,-2.4876,-2.4788,-2.4774,-2.4891,-2.4788,-2.4032,-2.2525,-2.1654,-2.0884,-2.0472,-2.0884,-2.1705,-2.2672,-2.4089,-2.473,0.0,-1.6562,-1.6019,-1.4973,-1.4728,-1.429,-1.2953,-1.3083,-1.3487,-1.3743,-1.4354,-1.5395,-1.7196,-1.7313,-1.7168,-1.7275,-1.5553,-1.4169,-1.4169,-1.3197,-1.2654,-1.3413,-1.294,0.0,0.0,0.0,0.0,-1.3098,-1.3173,-1.3381,-1.3599,-1.3807,-1.4014,-1.4232,-1.4298,-1.4402,-1.4534,-1.4534,-1.4563,-1.4638,-1.4761,-1.4723,-1.4515,-1.4515,-1.444,-1.4307,-1.4307,-1.427,-1.4203,-1.4203,-1.4156,-1.409,-1.409,-1.409,-1.4071,-1.3948,-1.3901,-1.4154,-1.61,-1.6994,-1.7455,-1.8114,-1.8538,-1.9116,-1.9739,-2.0027,-2.0268,-2.085,-2.1166,-2.1435,-2.2457,-2.2769,-2.2959,-2.3369,-2.3545,-2.3691,-2.3896,-2.4027,-2.4174,-2.4393,-2.4598,-2.4744,-2.4744,-2.492,-2.5022,-2.4905,-2.4525,-2.4335,-2.454,-2.4569,-2.4525,-2.4408,-2.4203,-2.4174,-2.4379,-2.4496,-2.4657,-2.4876,-2.4993,-2.5052,-2.5052,-2.4631,-2.3515,-2.1996,-2.0617,-1.9507,-1.9089,-1.9542,-2.0185,-2.1146,-2.3105,-2.4018,-1.6777,-1.7153,-1.7246,-1.552,-1.6386,-1.6777,-1.3511,-1.3814,-1.4702,-1.4801,-1.502,-1.5999,0.0,0.0,-1.7145,-1.7423,-1.5553,-1.4062,-1.4062,-1.3088,-1.2446,0.0,0.0,0.0,0.0,0.0,0.0,-1.3447,0.0,-1.3816,-1.4033,-1.4232,-1.444,-1.4648,-1.4837,-1.4931,-1.4922,-1.4903,-1.4808,-1.4619,-1.4619,-1.4506,-1.4298,-1.4298,-1.4288,-1.4279,-1.4279,-1.4175,-1.3996,-1.3996,-1.3873,-1.3693,-1.3703,-1.3712,-1.3721,-1.3731,-1.374,-1.375,-1.375,-1.457,-1.5493,-1.5623,-1.6453,-1.7457,-1.7697,-1.7961,-1.8459,-2.0081,-2.0816,-2.1639,-2.3092,-2.3723,-2.3956,-2.413,-2.4364,-2.4598,-2.4598,-2.4832,-2.5037,-2.5052,-2.5052,-2.5052,-2.5052,-2.4902,-2.4785,-2.448,-2.4422,-2.4407,-2.454,-2.4525,-2.4393,-2.4086,-2.4042,-2.4042,-2.4057,-2.4335,-2.4392,-2.4407,-2.4698,-2.4873,-2.4873,-2.3474,-2.1958,-2.0455,-1.9066,-1.7679,-1.615,-1.7451,-1.8024,-1.815,-2.0743,-2.1951,-1.6951,-1.6669,-1.6372,-1.6655,-1.6647,-1.6222,-1.4472,-1.5171,-1.6034,-1.5426,-1.6036,-1.7217,0.0,0.0,0.0,-1.6274,-1.4363,0.0,-1.2871,-1.2545,0.0,0.0,0.0,-1.2965,-1.3476,-1.3721,0.0,0.0,-1.4213,-1.4241,-1.4468,-1.4666,-1.4799,-1.4855,-1.4903,-1.4865,-1.4714,-1.4553,-1.444,-1.4392,-1.4392,-1.4288,-1.409,-1.409,-1.3996,-1.3844,-1.3844,-1.3816,-1.3769,-1.3769,-1.374,-1.3703,-1.3863,-1.4024,-1.4175,-1.4336,-1.4487,-1.4619,-1.4619,-1.4663,-1.4785,-1.5929,-1.6599,-1.7141,-1.8207,-1.853,-1.8601,-1.9042,-1.9291,-1.9873,-2.1854,-2.2421,-2.2863,-2.4419,-2.4876,-2.4935,-2.4935,-2.4803,-2.4759,-2.5008,-2.5052,-2.4781,-2.3515,-2.3201,-2.2754,-2.1584,-2.127,-2.1939,-2.3941,-2.3998,-2.3808,-2.3735,-2.3501,-2.3457,-2.3691,-2.2877,-2.2497,-2.2586,-2.1872,-2.1245,-2.1245,-2.0977,-2.0038,-1.8552,-1.8156,-1.7203,-1.5715,-1.7141,-1.7922,-1.7922,-1.9735,-2.0497,-1.6372,-1.5886,-1.5439,-1.6538,-1.6126,-1.5392,-1.4923,-1.5657,-1.6394,-1.6444,-1.7095,0.0,0.0,0.0,0.0,0.0,0.0,0.0,-1.3197,-1.285,-1.2625,0.0,-1.3003,0.0,-1.3788,-1.4109,-1.4421,0.0,-1.4648,-1.4638,-1.4761,-1.4874,-1.4893,-1.4799,-1.4799,-1.4704,-1.4496,-1.4374,-1.427,-1.4175,-1.4175,-1.4071,-1.3873,-1.3873,-1.3807,-1.3693,0.0,-1.3693,-1.3693,-1.3788,-1.3835,-1.3854,-1.4062,-1.4213,-1.4336,-1.4553,-1.4704,-1.4818,-1.4903,-1.4903,-1.4976,-1.5535,-1.5853,-1.6104,-1.6979,-1.7217,-1.7456,-1.8215,-1.8449,-1.9131,-2.171,-2.2325,-2.278,-2.4506,-2.4949,-2.5022,-2.4876,-2.4818,-2.4654,-2.4011,-2.3472,-2.2741,-2.1784,-2.1507,-2.1086,-2.016,-1.9881,-2.0273,-2.1719,-2.1795,-2.1727,-2.1592,-2.1429,-2.1389,-2.1565,-2.1057,-2.0682,-2.0835,-2.0414,-2.0136,-2.0136,-1.9464,-1.8846,-1.8139,-1.7266,-1.641,-1.5687,-1.631,-1.6614,-1.6737,-1.8083,-1.8696,-1.5317,-1.4962,-1.4569,-1.5596,-1.5319,-1.4748,-1.5125,-1.5664,-1.6455,-1.7344,0.0,-1.8589,-1.9434,-1.8554,-1.7622,-1.7371,0.0,-1.418,-1.3996,-1.3307,-1.2786,-1.2843,-1.3343,-1.3788,-1.4024,-1.4402,-1.4714,-1.4922,-1.4912,-1.4893,-1.4893,-1.4893,-1.4799,-1.46,-1.4563,-1.4459,-1.427,-1.4241,-1.4137,-1.3967,-1.3967,-1.3873,-1.3693,-1.3693,-1.3693,-1.3693,0.0,0.0,-1.375,-1.3958,-1.4052,-1.4071,-1.427,-1.4374,-1.4421,-1.4638,-1.4752,-1.4818,-1.4997,-1.5319,-1.5574,-1.5158,-1.5054,-1.513,-1.5309,-1.5489,-1.5952,-1.7485,-1.7972,-1.8681,-2.1446,-2.2271,-2.2479,-2.3736,-2.4295,-2.4409,-2.4095,-2.4238,-2.4082,-2.2445,-2.1167,-2.0146,-1.9795,-1.9699,-1.9435,-1.8947,-1.8888,-1.8782,-1.8547,-1.8983,-1.9289,-1.906,-1.9036,-1.9036,-1.9036,-1.9124,-1.9125,-1.9125,-1.9409,-1.9522,-1.9522,-1.8303,-1.775,-1.7983,-1.6353,-1.5574,-1.5772,-1.5385,-1.5196,-1.5186,-1.6175,-1.6721,-1.4268,-1.4534,-1.4618,-1.4765,-1.5105,-1.539,-1.5668,-1.6706,0.0,0.0,0.0,-1.9505,-1.8374,-1.8064,-1.7515,-1.643,0.0,0.0,0.0,0.0,-1.289,0.0,0.0,0.0,0.0,0.0,0.0,0.0,0.0,-1.4685,-1.4685,-1.4685,-1.4591,-1.4374,-1.4203,-1.4099,-1.4062,-1.3882,-1.3778,-1.375,-1.375,-1.3721,-1.3693,-1.3693,-1.3693,-1.3703,-1.3882,0.0,-1.3967,-1.4175,-1.426,-1.4279,-1.4496,-1.4676,-1.4846,-1.5054,-1.5347,-1.5649,-1.5687,-1.5867,-1.6008,-1.5583,-1.5687,-1.5971,-1.6008,-1.6046,-1.6225,-1.6394,-1.6574,-1.7017,-1.8681,-1.91,-1.9495,-2.0958,-2.1396,-2.1358,-2.1094,-2.1069,-2.0959,-2.0638,-2.0355,-1.9935,-1.8664,-1.8195,-1.751,-1.6155,-1.5741,-1.5613,-1.5583,-1.7669,-1.9084,-1.9036,-1.9036,-1.9036,-1.9036,-1.8045,-1.7422,-1.7422,-1.6478,-1.5873,-1.5873,-1.561,-1.5585,-1.5788,-1.529,-1.5139,-1.5337,-1.5101,-1.4988,-1.4988,-1.5202,-1.5313,-1.3269,-1.3303,-1.3157,-1.3914,-1.3942,-1.4101,-1.5755,0.0,0.0,0.0,0.0,-1.914,-1.829,0.0,0.0,0.0,0.0,0.0,0.0,0.0,0.0,0.0,0.0,0.0,0.0,0.0,0.0,0.0,0.0,0.0,-1.4629,-1.443,-1.426,-1.4156,-1.3948,-1.3844,-1.3844,-1.374,-1.3693,-1.3693,-1.3693,-1.3693,-1.3693,-1.3807,-1.3854,-1.3863,-1.4081,0.0,-1.3936,-1.414,-1.4097,-1.3988,-1.4318,-1.4586,-1.4707,-1.5156,-1.5536,-1.5706,-1.5706,-1.5838,-1.5942,-1.5526,-1.5678,-1.6018,-1.6018,-1.6018,-1.6018,-1.6018,-1.6093,-1.6603,-1.7991,-1.8315,-1.8633,-2.0,-2.0412,-2.0412,-2.0412,-1.9621,-1.8948,-1.8834,-1.8036,-1.7234,-1.6583,-1.6257,-1.5853,-1.5205,-1.4997,-1.4931,-1.4931,-1.5954,-1.6721,-1.6861,-1.6861,-1.6861,-1.6861,-1.6343,-1.5954,-1.5954,-1.542,-1.5092,-1.5092,-1.5092,-1.5186,-1.5394,-1.5092,-1.5035,-1.5233,-1.5026,-1.4931,-1.4931,-1.4931,-1.4931,-1.2453,-1.2173,-1.1933,-1.31,-1.2839,-1.2901,-1.547,-1.6216,0.0,0.0,-1.8287,-1.8298,-1.7725,0.0,0.0,0.0,0.0,0.0,0.0,0.0,0.0,0.0,0.0,0.0,0.0,0.0,0.0,0.0,0.0,0.0,-1.4496,-1.4023,-1.3817,-1.3939,-1.3658,-1.3684,-1.3693,-1.3693,-1.3712,-1.3759,-1.3759,-1.3778,-1.3825,-1.3873,-1.3976,-1.4032,-1.4057,0.0,0.0,-1.3979,-1.3913,-1.3673,-1.4083,-1.4408,-1.4444,-1.5166,-1.5451,-1.5489,-1.5489,-1.5649,-1.58,-1.547,-1.5593,-1.5857,-1.5857,-1.5895,-1.5923,-1.5876,-1.598,-1.6394,-1.7498,-1.777,-1.7908,-1.9005,-1.9061,-1.9038,-1.9278,-1.8078,-1.697,-1.712,-1.5846,-1.4727,-1.4827,-1.4857,-1.48,-1.48,-1.48,-1.48,-1.467,-1.4408,-1.4408,-1.467,-1.48,-1.48,-1.4931,-1.4931,-1.4931,-1.4931,-1.5082,-1.5167,-1.5167,-1.5167,-1.5271,-1.5489,-1.512,-1.5035,-1.5233,-1.5026,-1.4931,-1.4931,-1.4978,-1.4997,-1.1611,-1.1794,-1.2096,-1.223,-1.2536,-1.3092,-1.466,0.0,0.0,-1.5836,-1.6821,-1.7029,-1.541,0.0,0.0,0.0,0.0,-1.4218,0.0,0.0,0.0,0.0,0.0,0.0,0.0,0.0,0.0,0.0,0.0,0.0,-1.4071,-1.3602,-1.3352,-1.3721,-1.3453,-1.3444,-1.3693,-1.3693,-1.3788,-1.3986,-1.3986,-1.4081,-1.4251,-1.3895,-1.3879,-1.4061,-1.3824,0.0,0.0,-1.3849,-1.3849,-1.3857,-1.3866,-1.4137,-1.4408,-1.4444,-1.4837,-1.5262,-1.5262,-1.5526,-1.5848,-1.581,-1.5829,-1.5857,-1.5857,-1.5999,-1.6112,-1.5914,-1.5876,-1.6025,-1.6025,-1.6154,-1.6135,-1.6273,-1.571,-1.5222,-1.5419,-1.5174,-1.48,-1.5108,-1.4707,-1.4556,-1.4955,-1.4645,-1.4408,-1.4408,-1.4408,-1.4408,-1.4006,-1.4006,-1.4006,-1.4006,-1.4277,-1.4539,-1.4931,-1.4931,-1.4931,-1.4931,-1.495,-1.4959,-1.4959,-1.4959,-1.5054,-1.5262,-1.5044,-1.5035,-1.5233,-1.5026,-1.4931,-1.4941,-1.512,-1.5205,-1.186,-1.2011,-1.2172,-1.2285,-1.255,-1.315,-1.4579,0.0,-1.5406,-1.5526,-1.5924,-1.6015,-1.4966,-1.5208,-1.5345,-1.4657,-1.4632,0.0,-1.3632,0.0,0.0,0.0,0.0,0.0,0.0,0.0,0.0,0.0,0.0,0.0,-1.3202,-1.3009,-1.2964,-1.3084,-1.3204,-1.3268,-1.3639,-1.3761,-1.3864,-1.3936,-1.3936,-1.3922,-1.3861,-1.3734,-1.3722,-1.3917,-1.3892,0.0,0.0,-1.3652,-1.3652,-1.3378,-1.3532,-1.3621,-1.3901,-1.4148,-1.4441,-1.4729,-1.4611,-1.4891,-1.5375,-1.4982,-1.4946,-1.5245,-1.564,-1.5649,-1.5621,-1.5668,-1.5772,-1.5857,-1.5589,-1.5358,-1.5092,-1.4973,-1.4783,-1.4674,-1.4871,-1.4455,-1.4205,-1.4534,-1.4196,-1.3979,-1.4245,-1.4244,-1.4137,-1.4137,-1.4137,-1.4006,-1.3875,-1.3752,-1.3621,-1.3875,-1.4006,-1.4268,-1.4539,-1.4539,-1.467,-1.4931,-1.4931,-1.48,-1.467,-1.4539,-1.4707,-1.4781,-1.4576,-1.4707,-1.5054,-1.4969,-1.4931,-1.4941,-1.5139,-1.53,-1.2096,-1.2181,-1.2276,-1.2484,-1.2701,-1.3135,0.0,0.0,-1.4917,-1.4955,-1.4986,-1.4841,-1.4396,-1.4313,-1.4251,-1.3973,-1.4087,-1.4154,-1.3592,-1.3667,0.0,0.0,0.0,0.0,0.0,0.0,0.0,0.0,0.0,0.0,0.0,-1.2414,-1.2569,-1.2812,-1.2933,-1.3152,-1.3473,-1.3729,-1.3821,-1.3771,-1.3834,-1.3806,-1.3682,-1.3613,-1.3709,-1.3716,0.0,0.0,0.0,-1.3445,-1.3286,-1.3011,-1.3211,-1.3418,-1.3392,-1.3837,-1.4083,-1.4262,-1.413,-1.4343,-1.4756,-1.4352,-1.4352,-1.4693,-1.51,-1.5217,-1.518,-1.5329,-1.5477,-1.5441,-1.5172,-1.4787,-1.4499,-1.4305,-1.4314,-1.4257,-1.4344,-1.3925,-1.3671,-1.4069,-1.362,-1.3443,-1.3699,-1.3787,-1.3752,-1.3752,-1.3752,-1.3752,-1.3621,-1.3358,-1.3367,-1.349,-1.3621,-1.3752,-1.4268,-1.4268,-1.4408,-1.4539,-1.4539,-1.4539,-1.4277,-1.4268,-1.4268,-1.4268,-1.4463,-1.4631,-1.4894,-1.496,-1.5148,-1.5215,-1.5413,-1.5659,-1.2143,-1.2285,-1.2493,-1.271,-1.2918,-1.3117,0.0,0.0,-1.3684,-1.3684,-1.3684,-1.3561,-1.3145,-1.3069,-1.306,-1.2717,-1.2946,-1.3054,-1.3057,-1.3023,0.0,0.0,0.0,0.0,0.0,0.0,0.0,0.0,0.0,0.0,0.0,-1.1939,-1.2275,-1.3014,-1.2645,-1.273,-1.3295,-1.3295,-1.3392,-1.3602,-1.3796,-1.3884,-1.3884,-1.3678,-1.3629,0.0,0.0,0.0,0.0,-1.2913,-1.284,-1.2856,-1.3027,-1.3253,-1.3392,-1.357,-1.3785,-1.3884,-1.3884,-1.4007,-1.4182,-1.4174,-1.4305,-1.4455,-1.4455,-1.4595,-1.4745,-1.4745,-1.4745,-1.4754,-1.4754,-1.4745,-1.4701,-1.4499,-1.4035,-1.3587,-1.3418,-1.3244,-1.3092,-1.31,-1.3092,-1.3226,-1.3495,-1.3485,-1.3367,-1.3367,-1.3367,-1.3235,-1.284,-1.284,-1.284,-1.284,-1.284,-1.3095,-1.3875,-1.3875,-1.3875,-1.3875,-1.3875,-1.3875,-1.3875,-1.3875,-1.3875,-1.3875,-1.4476,-1.4718,-1.4718,-1.5316,-1.5659,-1.5857,-1.6075,-1.6396,-1.1801,-1.1846,-1.1946,-1.2042,-1.223,-1.2542,-1.2984,0.0,-1.3444,-1.3684,-1.3564,-1.3205,-1.28,-1.2721,-1.2534,-1.2276,-1.2597,-1.2937,-1.3146,0.0,0.0,0.0,0.0,0.0,0.0,0.0,0.0,0.0,0.0,0.0,0.0,-1.2004,-1.2151,-1.2275,-1.2532,-1.2868,-1.331,-1.3439,-1.3604,-1.3789,-1.3592,-1.3502,-1.3595,-1.3269,0.0,0.0,0.0,0.0,0.0,-1.3035,-1.3011,-1.3003,-1.2946,-1.2889,-1.298,-1.3029,-1.322,-1.3394,-1.3137,-1.357,-1.3968,-1.3696,-1.3874,-1.4105,-1.4072,-1.4301,-1.4587,-1.4718,-1.438,-1.4147,-1.4147,-1.3815,-1.3344,-1.3419,-1.3228,-1.307,-1.3136,-1.3095,-1.2954,-1.3068,-1.3003,-1.2921,-1.3054,-1.3005,-1.2972,-1.2972,-1.2972,-1.3013,-1.2994,-1.3011,-1.3059,-1.3189,-1.3206,-1.3284,-1.3686,-1.3678,-1.3871,-1.427,-1.4288,-1.4144,-1.3874,-1.3874,-1.3874,-1.3874,-1.4078,-1.424,-1.452,-1.4844,-1.5104,-1.5435,-1.5498,-1.574,0.0,-1.1625,-1.1722,-1.1915,-1.2117,0.0,0.0,0.0,-1.3084,-1.3324,-1.3204,-1.2839,-1.2445,-1.2418,-1.2255,-1.1949,-1.2351,-1.2734,-1.2875,0.0,0.0,0.0,0.0,0.0,0.0,0.0,0.0,0.0,0.0,0.0,0.0,-1.2158,-1.2264,-1.2328,-1.2578,-1.2905,-1.3336,-1.3426,-1.3536,-1.3535,-1.352,-1.3394,-1.3262,-1.3108,0.0,0.0,0.0,0.0,0.0,-1.2994,-1.2994,-1.2994,-1.2954,-1.2897,-1.2848,-1.2913,-1.2962,-1.2994,-1.2946,-1.3218,-1.3535,-1.3407,-1.3407,-1.3609,-1.3693,-1.3932,-1.4052,-1.4301,-1.406,-1.3651,-1.3651,-1.3341,-1.3035,-1.3035,-1.2986,-1.2962,-1.3068,-1.2962,-1.2873,-1.2978,-1.2913,-1.284,-1.284,-1.2889,-1.2929,-1.2929,-1.2994,-1.3076,-1.3189,-1.3197,-1.3246,-1.336,-1.3368,-1.3489,-1.3576,-1.351,-1.3654,-1.4053,-1.4062,-1.3925,-1.3788,-1.3651,-1.3651,-1.3651,-1.3922,-1.4267,-1.4414,-1.4884,-1.5307,-1.5544,-1.5624,-1.579,0.0,0.0,0.0,0.0,0.0,0.0,0.0,0.0,0.0,0.0,0.0,-1.2592,-1.2116,-1.2203,-1.2147,-1.1735,-1.2268,-1.2525,-1.2381,-1.2722,0.0,0.0,0.0,0.0,0.0,0.0,0.0,0.0,0.0,0.0,0.0,-1.2385,-1.267,-1.2848,-1.2881,-1.297,-1.3133,-1.3279,-1.3279,-1.3133,-1.3279,-1.3271,-1.3116,-1.3279,0.0,0.0,0.0,0.0,0.0,-1.284,-1.284,-1.2848,-1.3011,-1.2978,-1.2856,-1.3019,-1.297,-1.2856,-1.3019,-1.3084,-1.3092,-1.3108,-1.3124,-1.3197,-1.3539,-1.3644,-1.3644,-1.3644,-1.3514,-1.3376,-1.3384,-1.3368,-1.3352,-1.3368,-1.3238,-1.3108,-1.3092,-1.297,-1.2856,-1.2856,-1.2856,-1.2856,-1.2873,-1.3011,-1.3116,-1.3116,-1.3262,-1.3376,-1.3384,-1.3392,-1.3392,-1.3409,-1.3417,-1.3498,-1.3669,-1.3506,-1.3392,-1.3409,-1.3425,-1.3425,-1.3425,-1.3441,-1.3449,-1.3449,-1.4198,-1.4525,-1.4542,-1.5354,-1.5763,-1.578,-1.5955,-1.6042,0.0,0.0,0.0,0.0,0.0,0.0,0.0,0.0,0.0,0.0,0.0,-1.2124,-1.2038,-1.182,-1.1719,-1.1561,-1.1971,-1.2332,-1.2296,0.0,0.0,0.0,0.0,0.0,0.0,0.0,0.0,0.0,0.0,0.0,0.0,-1.258,-1.2856,-1.3027,-1.3303,-1.3474,-1.3514,-1.3279,-1.3279,-1.3514,-1.3271,-1.3214,-1.3303,-1.3206,0.0,0.0,0.0,0.0,-1.284,-1.284,-1.284,-1.284,-1.2881,-1.2873,-1.284,-1.2881,-1.2873,-1.284,-1.2881,-1.2986,-1.3116,-1.3262,-1.3401,-1.353,-1.362,-1.3644,-1.3644,-1.3644,-1.3514,-1.3401,-1.3547,-1.3368,-1.3197,-1.3336,-1.3336,-1.3271,-1.3124,-1.3059,-1.3035,-1.3035,-1.3035,-1.3076,-1.3222,-1.3279,-1.3303,-1.3303,-1.3344,-1.3425,-1.3563,-1.3579,-1.3628,-1.3766,-1.3904,-1.401,-1.405,-1.3766,-1.3636,-1.3766,-1.3912,-1.3985,-1.3985,-1.4115,-1.418,-1.418,-1.4416,-1.4523,-1.467,-1.4793,-1.5076,-1.5209,-1.5118,-1.5142,0.0,0.0,0.0,0.0,0.0,0.0,0.0,0.0,0.0,0.0,0.0,0.0,-1.162,0.0,0.0,-1.163,-1.2077,-1.245,0.0,0.0,0.0,0.0,0.0,0.0,0.0,0.0,0.0,0.0,0.0,0.0,0.0,-1.2808,-1.3076,-1.3336,-1.3539,-1.3644,-1.3644,-1.3522,-1.3522,-1.3644,-1.3441,-1.3352,-1.3368,-1.3271,-1.3222,0.0,0.0,0.0,-1.2946,-1.2873,-1.284,-1.284,-1.284,-1.284,-1.284,-1.284,-1.284,-1.2848,-1.2929,-1.3076,-1.3254,-1.3433,-1.3506,-1.3539,-1.362,-1.3644,-1.3628,-1.3547,-1.3449,-1.3376,-1.3392,-1.3303,-1.3246,-1.3344,-1.3368,-1.3344,-1.3246,-1.3222,-1.3222,-1.3222,-1.3222,-1.3254,-1.3352,-1.3441,-1.3498,-1.3498,-1.3563,-1.3677,-1.3863,-1.3888,-1.3953,-1.4123,-1.4237,-1.4294,-1.4294,-1.4115,-1.4042,-1.414,-1.4237,-1.4294,-1.4294,-1.4383,-1.4473,-1.4554,-1.4562,-1.4643,-1.483,-1.483,-1.4871,-1.496,-1.4871,-1.4879,0.0,0.0,0.0,0.0,0.0,0.0,0.0,0.0,0.0,0.0,0.0,0.0,0.0,0.0,0.0,0.0,0.0,0.0,0.0,0.0,0.0,0.0,0.0,0.0,0.0,0.0,0.0,0.0,0.0,0.0,0.0,-1.3027,-1.3295,-1.3636,-1.3669,-1.3685,-1.3685,-1.3798,-1.379,-1.3644,-1.362,-1.3522,-1.3368,-1.3368,-1.336,0.0,0.0,0.0,-1.3043,-1.2897,-1.284,-1.284,-1.2865,-1.2856,-1.284,-1.2865,-1.2856,-1.2865,-1.3035,-1.3197,-1.336,-1.3547,-1.3514,-1.3441,-1.3595,-1.366,-1.3644,-1.3433,-1.3392,-1.3384,-1.3254,-1.3311,-1.3417,-1.3449,-1.3449,-1.3449,-1.3449,-1.3433,-1.3425,-1.3482,-1.3449,-1.3433,-1.3482,-1.362,-1.3725,-1.3725,-1.3872,-1.4042,-1.4196,-1.4213,-1.427,-1.4416,-1.4456,-1.4473,-1.4473,-1.4497,-1.4513,-1.4513,-1.4489,-1.4481,-1.4513,-1.4513,-1.4586,-1.4749,-1.4749,-1.4822,-1.4968,-1.4968,-1.4968,-1.4968,-1.4968,-1.4968,-1.0688,0.0,0.0,0.0,0.0,0.0,0.0,0.0,0.0,0.0,0.0,0.0,0.0,0.0,0.0,0.0,0.0,0.0,0.0,0.0,0.0,0.0,0.0,0.0,0.0,0.0,0.0,0.0,0.0,0.0,0.0,-1.3149,-1.3425,-1.3636,-1.3782,-1.3863,-1.3863,-1.3742,-1.3669,-1.3644,-1.349,-1.3401,-1.3368,-1.3368,-1.3287,0.0,0.0,-1.3011,-1.2873,-1.2848,-1.284,-1.2848,-1.2994,-1.2962,-1.2856,-1.3003,-1.2962,-1.2865,-1.3035,-1.3116,-1.3165,-1.3352,-1.3498,-1.3612,-1.3636,-1.375,-1.379,-1.3465,-1.3482,-1.3628,-1.375,-1.3693,-1.3636,-1.3782,-1.3823,-1.3823,-1.3823,-1.3701,-1.3693,-1.3993,-1.3807,-1.3701,-1.4002,-1.4075,-1.4099,-1.4099,-1.4237,-1.4359,-1.4391,-1.4391,-1.4399,-1.4432,-1.457,-1.4667,-1.4667,-1.4797,-1.4887,-1.4887,-1.4749,-1.4732,-1.4879,-1.4887,-1.4895,-1.4927,-1.4927,-1.4944,-1.4968,-1.4968,-1.4968,-1.4968,-1.4968,-1.4968,-1.0688,-1.0948,0.0,0.0,0.0,0.0,0.0,0.0,0.0,0.0,0.0,0.0,0.0,0.0,0.0,0.0,0.0,0.0,0.0,0.0,0.0,0.0,0.0,0.0,0.0,0.0,0.0,0.0,0.0,0.0,0.0,0.0,-1.3604,-1.3774,-1.3863,-1.3904,-1.3904,-1.3823,-1.3782,-1.3782,-1.3604,-1.3514,-1.3514,-1.3311,-1.3287,-1.3376,0.0,-1.3019,-1.3108,-1.2913,-1.2889,-1.297,-1.2962,-1.2962,-1.297,-1.2962,-1.2962,-1.2986,-1.3068,-1.3222,-1.3409,-1.349,-1.3636,-1.3798,-1.3904,-1.392,-1.3888,-1.3823,-1.3798,-1.3758,-1.3644,-1.3701,-1.3807,-1.388,-1.3977,-1.405,-1.405,-1.3985,-1.401,-1.4261,-1.4107,-1.401,-1.427,-1.4318,-1.4318,-1.4318,-1.4383,-1.4464,-1.457,-1.4578,-1.4619,-1.4708,-1.4797,-1.4846,-1.4846,-1.4919,-1.4968,-1.4968,-1.4887,-1.4879,-1.496,-1.4968,-1.4968,-1.4968,-1.4968,-1.4968,-1.4968,-1.4968,-1.4968,-1.4968,-1.4968,-1.4968,-1.0688,-1.0948,0.0,0.0,0.0,0.0,0.0,0.0,0.0,0.0,0.0,0.0,0.0,0.0,0.0,0.0,0.0,0.0,0.0,0.0,0.0,0.0,0.0,0.0,0.0,0.0,0.0,0.0,0.0,0.0,0.0,0.0,-1.3725,-1.3896,-1.3904,-1.3904,-1.3904,-1.3904,-1.388,-1.3839,-1.3709,-1.362,-1.3571,-1.3327,-1.3327,-1.349,-1.3124,-1.3092,-1.3279,-1.297,-1.2938,-1.3084,-1.2946,-1.2978,-1.3076,-1.2897,-1.2921,-1.3043,-1.3076,-1.3311,-1.3587,-1.3628,-1.379,-1.3985,-1.4083,-1.4075,-1.4034,-1.4099,-1.4042,-1.3896,-1.3579,-1.3734,-1.3953,-1.3912,-1.4075,-1.4237,-1.4237,-1.4237,-1.4302,-1.4513,-1.4383,-1.4294,-1.4464,-1.4497,-1.4497,-1.4497,-1.4529,-1.4611,-1.4749,-1.4765,-1.4822,-1.4952,-1.4968,-1.4968,-1.4968,-1.4968,-1.4968,-1.4968,-1.4968,-1.4968,-1.4968,-1.4968,-1.4968,-1.4968,-1.4968,-1.4968,-1.4968,-1.4968,-1.4968,-1.4968,-1.4968,-1.4968,-1.0688,-1.0948,-1.1224,0.0,0.0,0.0,0.0,0.0,0.0,0.0,0.0,0.0,0.0,0.0,0.0,0.0,0.0,0.0,0.0,0.0,0.0,0.0,0.0,0.0,0.0,0.0,0.0,0.0,0.0,0.0,0.0,0.0,0.0,-1.3896,-1.3904,-1.3904,-1.3904,-1.3904,-1.3823,-1.366,-1.3652,-1.3555,-1.3392,-1.3539,-1.3433,-1.3141,-1.3279,-1.3246,-1.31,-1.2913,-1.2938,-1.3092,-1.3084,-1.3084,-1.3076,-1.2897,-1.2848,-1.2881,-1.3035,-1.3222,-1.3417,-1.3587,-1.388,-1.4131,-1.3969,-1.414,-1.4326,-1.401,-1.4034,-1.4115,-1.3912,-1.401,-1.4115,-1.3945,-1.4164,-1.4416,-1.4416,-1.4416,-1.4513,-1.4862,-1.4651,-1.4473,-1.4659,-1.4692,-1.4692,-1.4692,-1.4822,-1.4927,-1.4944,-1.4944,-1.4952,-1.496,-1.4968,-1.4968,-1.4968,-1.4968,-1.4968,-1.4968,-1.4968,-1.4968,-1.4968,-1.4968,-1.4968,-1.4968,-1.4968,-1.4968,-1.4968,-1.4968,-1.4968,-1.4968,-1.4968,-1.4968,-1.0688,-1.0948,-1.1224,-1.1224,0.0,0.0,0.0,0.0,0.0,0.0,0.0,0.0,0.0,0.0,0.0,0.0,0.0,0.0,0.0,0.0,0.0,0.0,0.0,0.0,0.0,0.0,0.0,0.0,0.0,0.0,0.0,0.0,0.0,-1.3896,-1.3904,-1.3904,-1.3904,-1.3904,-1.3815,-1.3644,-1.3644,-1.366,-1.3693,-1.3425,-1.3352,-1.3425,-1.3157,-1.3059,-1.3084,-1.2905,-1.2938,-1.3092,-1.3092,-1.3027,-1.2929,-1.2856,-1.2905,-1.3027,-1.3206,-1.3384,-1.3587,-1.388,-1.4066,-1.4188,-1.4221,-1.4253,-1.427,-1.4237,-1.4205,-1.4164,-1.4091,-1.4123,-1.4213,-1.4367,-1.4505,-1.4635,-1.4741,-1.4676,-1.4676,-1.4919,-1.4765,-1.4659,-1.4838,-1.4871,-1.4871,-1.4871,-1.4927,-1.4968,-1.4968,-1.4968,-1.4968,-1.4968,-1.4968,-1.4968,-1.4968,-1.4968,-1.4968,-1.4968,-1.4968,-1.4968,-1.4968,-1.4968,-1.4968,-1.4968,-1.4968,-1.4968,-1.4968,-1.4968,-1.4968,-1.4968,-1.4968,-1.4968,-1.0777,-1.1037,-1.1313,-1.1313,0.0,0.0,0.0,0.0,0.0,0.0,0.0,0.0,0.0,0.0,0.0,0.0,0.0,0.0,0.0,0.0,0.0,0.0,0.0,0.0,0.0,0.0,0.0,0.0,0.0,0.0,0.0,0.0,0.0,0.0,-1.3904,-1.3904,-1.3904,-1.3904,-1.3815,-1.3644,-1.3644,-1.3677,-1.3725,-1.3409,-1.3376,-1.353,-1.3108,-1.3019,-1.3165,-1.2929,-1.2905,-1.3011,-1.3011,-1.2938,-1.284,-1.2897,-1.2994,-1.3124,-1.3376,-1.3579,-1.3774,-1.4083,-1.4213,-1.427,-1.4335,-1.4351,-1.4359,-1.4416,-1.4391,-1.4359,-1.4416,-1.4383,-1.4391,-1.4578,-1.4708,-1.4806,-1.4871,-1.4838,-1.4822,-1.4944,-1.4871,-1.483,-1.4944,-1.4968,-1.4968,-1.4968,-1.4968,-1.4968,-1.4968,-1.4968,-1.4968,-1.4968,-1.4968,-1.4968,-1.4968,-1.4968,-1.4968,-1.4968,-1.4968,-1.4968,-1.4968,-1.4968,-1.4968,-1.4968,-1.4968,-1.4935,-1.4887,-1.4887,-1.4854,-1.4797,-1.4854,-1.4887,-1.0964,-1.1224,-1.15,-1.15,0.0,0.0,0.0,0.0,0.0,0.0,0.0,0.0,0.0,0.0,0.0,0.0,0.0,0.0,0.0,0.0,0.0,0.0,0.0,0.0,0.0,0.0,0.0,0.0,0.0,0.0,0.0,0.0,0.0,0.0,-1.3904,-1.3904,-1.3896,-1.3896,-1.3815,-1.3644,-1.3644,-1.3547,-1.3376,-1.3555,-1.3539,-1.336,-1.3173,-1.3197,-1.3336,-1.2978,-1.284,-1.284,-1.284,-1.284,-1.2856,-1.3035,-1.3092,-1.3149,-1.3522,-1.3758,-1.3928,-1.4115,-1.4294,-1.4399,-1.4229,-1.4432,-1.4667,-1.4489,-1.4562,-1.4749,-1.4919,-1.4838,-1.4667,-1.4481,-1.4708,-1.4919,-1.4749,-1.4846,-1.4968,-1.4968,-1.4968,-1.4968,-1.4968,-1.4968,-1.4968,-1.4968,-1.4968,-1.4968,-1.4968,-1.4968,-1.4968,-1.4968,-1.4968,-1.4968,-1.4968,-1.4968,-1.4968,-1.4968,-1.4968,-1.4968,-1.4968,-1.4968,-1.4968,-1.496,-1.496,-1.4879,-1.4708,-1.4708,-1.4611,-1.444,-1.4627,-1.4708,-1.0556,0.0,0.0,0.0,0.0,0.0,0.0,0.0,0.0,0.0,0.0,0.0,0.0,0.0,0.0,0.0,0.0,0.0,0.0,0.0,0.0,0.0,0.0,0.0,0.0,0.0,0.0,0.0,0.0,0.0,0.0,0.0,0.0,0.0,-1.3904,-1.3847,-1.3717,-1.3717,-1.3693,-1.3644,-1.3644,-1.3547,-1.3368,-1.3295,-1.323,-1.3165,-1.2986,-1.2946,-1.2986,-1.2881,-1.284,-1.2848,-1.297,-1.3019,-1.3043,-1.3222,-1.3287,-1.3344,-1.3701,-1.3782,-1.379,-1.4221,-1.4391,-1.4424,-1.4375,-1.4521,-1.47,-1.4643,-1.4667,-1.4749,-1.4919,-1.4927,-1.4879,-1.4822,-1.4887,-1.4952,-1.4903,-1.4927,-1.4968,-1.4968,-1.4968,-1.4968,-1.4968,-1.4968,-1.4968,-1.4968,-1.4968,-1.4968,-1.4968,-1.4968,-1.4968,-1.4968,-1.4968,-1.4968,-1.4968,-1.4968,-1.4968,-1.4968,-1.4968,-1.4968,-1.4968,-1.4968,-1.4911,-1.4789,-1.4789,-1.4757,-1.4708,-1.4708,-1.4741,-1.4806,-1.4862,-1.4887,-1.0545,0.0,0.0,0.0,0.0,0.0,0.0,0.0,0.0,0.0,0.0,0.0,0.0,0.0,0.0,0.0,0.0,0.0,0.0,0.0,0.0,0.0,0.0,0.0,0.0,0.0,0.0,0.0,0.0,0.0,0.0,0.0,0.0,0.0,-1.3904,-1.3815,-1.3644,-1.3709,-1.3636,-1.3425,-1.3498,-1.3441,-1.3262,-1.3295,-1.323,-1.3084,-1.2986,-1.2897,-1.284,-1.2913,-1.2938,-1.2954,-1.3133,-1.3206,-1.3222,-1.3409,-1.3482,-1.353,-1.3888,-1.3985,-1.4018,-1.4416,-1.4546,-1.4546,-1.4546,-1.4619,-1.4708,-1.4708,-1.4757,-1.4838,-1.4935,-1.4968,-1.4968,-1.4968,-1.4968,-1.4968,-1.4968,-1.4968,-1.4968,-1.4968,-1.4968,-1.4968,-1.4968,-1.4968,-1.4968,-1.4968,-1.4968,-1.4968,-1.4968,-1.4968,-1.4968,-1.4968,-1.4968,-1.4968,-1.4968,-1.4968,-1.4968,-1.4968,-1.4968,-1.4968,-1.4968,-1.4968,-1.4919,-1.4814,-1.4879,-1.4854,-1.4708,-1.4773,-1.4789,-1.4757,-1.483,-1.4862,0.0,0.0,0.0,0.0,0.0,0.0,0.0,0.0,0.0,0.0,0.0,0.0,0.0,0.0,0.0,0.0,0.0,0.0,0.0,0.0,0.0,0.0,0.0,0.0,0.0,0.0,0.0,0.0,0.0,0.0,0.0,0.0,0.0,-1.3904,-1.3904,-1.3815,-1.362,-1.3774,-1.3595,0.0,-1.3262,-1.3254,-1.3108,-1.3425,-1.3384,-1.3068,-1.3068,-1.2994,-1.2873,-1.3027,-1.3108,-1.3141,-1.3327,-1.3392,-1.3417,-1.3604,-1.3677,-1.3742,-1.4083,-1.4302,-1.4464,-1.4651,-1.4708,-1.4708,-1.4708,-1.4716,-1.4732,-1.4732,-1.4846,-1.4968,-1.4968,-1.4952,-1.4944,-1.4944,-1.4952,-1.4968,-1.4968,-1.4968,-1.4968,-1.4968,-1.4968,-1.4968,-1.4968,-1.4968,-1.4968,-1.4968,-1.4968,-1.4968,-1.4968,-1.4968,-1.4968,-1.4968,-1.4968,-1.4968,-1.4968,-1.4968,-1.4968,-1.4968,-1.4968,-1.4968,-1.4968,-1.4968,-1.496,-1.4944,-1.5106,-1.5033,-1.4708,-1.4862,-1.4781,-1.4481,-1.4651,-1.4732,0.0,0.0,0.0,0.0,0.0,0.0,0.0,0.0,0.0,0.0,0.0,0.0,0.0,0.0,0.0,0.0,0.0,0.0,0.0,0.0,0.0,0.0,0.0,0.0,0.0,0.0,0.0,0.0,0.0,0.0,0.0,0.0,0.0,-1.3904,-1.3904,-1.375,-1.3433,-1.3465,-1.3352,0.0,-1.3133,-1.3133,-1.3092,-1.3035,-1.297,-1.2889,-1.2889,-1.2946,-1.3043,-1.3076,-1.3181,-1.3327,-1.3514,-1.3587,-1.3604,-1.3782,-1.3937,-1.4091,-1.4302,-1.4399,-1.4464,-1.4651,-1.4708,-1.4708,-1.4708,-1.4806,-1.4911,-1.4911,-1.4935,-1.4968,-1.4968,-1.4862,-1.4765,-1.4765,-1.4871,-1.4968,-1.4968,-1.4968,-1.4968,-1.4968,-1.4968,-1.4968,-1.4968,-1.4968,-1.4968,-1.4968,-1.4968,-1.4968,-1.4968,-1.4968,-1.4968,-1.4968,-1.4968,-1.4968,-1.4968,-1.4968,-1.4968,-1.4968,-1.4968,-1.4968,-1.4968,-1.4968,-1.4903,-1.4765,-1.4806,-1.4781,-1.4708,-1.4749,-1.4797,-1.4854,-1.4895,-1.4911,0.0,0.0,0.0,0.0,0.0,0.0,0.0,0.0,0.0,0.0,0.0,0.0,0.0,0.0,0.0,0.0,0.0,0.0,0.0,0.0,0.0,0.0,0.0,0.0,0.0,0.0,0.0,0.0,0.0,0.0,0.0,-1.3904,-1.3904,-1.3904,-1.3904,-1.3734,-1.3376,-1.3457,-1.3319,-1.297,-1.3149,-1.3222,-1.3214,-1.2954,-1.2929,-1.3092,-1.3092,-1.3141,-1.3238,-1.3409,-1.349,-1.3522,-1.3701,-1.3823,-1.3912,-1.4002,-1.4148,-1.431,-1.4399,-1.4489,-1.4578,-1.4676,-1.4765,-1.483,-1.483,-1.4895,-1.4968,-1.4968,-1.4968,-1.4944,-1.4862,-1.4773,-1.4684,-1.4594,-1.4643,-1.4708,-1.4708,-1.4708,-1.4741,-1.4822,-1.4773,-1.4765,-1.4935,-1.4968,-1.4968,-1.4968,-1.4968,-1.4968,-1.4968,-1.4968,-1.4968,-1.4968,-1.4968,-1.4968,-1.4968,-1.4968,-1.4968,-1.4968,-1.4968,-1.4968,-1.4968,-1.4968,-1.4919,-1.483,-1.4919,-1.4919,-1.483,-1.4919,-1.496,-1.4968,-1.4968,-1.4968,0.0,0.0,0.0,0.0,0.0,0.0,0.0,0.0,0.0,0.0,0.0,0.0,0.0,0.0,0.0,0.0,0.0,0.0,0.0,0.0,0.0,0.0,0.0,0.0,0.0,0.0,0.0,0.0,0.0,0.0,-1.3904,-1.3872,-1.3872,-1.3904,-1.3839,-1.3669,-1.3376,-1.349,-1.3311,-1.284,-1.3165,-1.3327,-1.3311,-1.3051,-1.3092,-1.3368,-1.3368,-1.3392,-1.3441,-1.3734,-1.3807,-1.375,-1.3896,-1.4058,-1.4221,-1.4221,-1.4335,-1.4481,-1.4481,-1.4603,-1.4757,-1.4757,-1.4846,-1.4968,-1.4968,-1.4968,-1.4968,-1.4968,-1.4944,-1.4887,-1.4749,-1.4667,-1.4578,-1.4424,-1.4383,-1.4391,-1.4424,-1.4456,-1.4521,-1.4676,-1.4611,-1.4619,-1.4911,-1.4968,-1.4968,-1.4968,-1.4968,-1.4968,-1.4968,-1.4968,-1.4968,-1.4968,-1.4968,-1.4968,-1.4968,-1.4968,-1.4968,-1.4968,-1.4968,-1.4968,-1.4968,-1.4968,-1.4968,-1.4968,-1.5114,-1.5114,-1.4968,-1.5114,-1.5114,-1.4968,-1.4968,-1.4968,0.0,0.0,0.0,0.0,0.0,0.0,0.0,0.0,0.0,0.0,0.0,0.0,0.0,0.0,0.0,0.0,0.0,0.0,0.0,0.0,0.0,0.0,0.0,0.0,0.0,0.0,0.0,0.0,0.0,0.0,-1.3904,-1.3758,-1.375,-1.3896,-1.3604,-1.3417,-1.3368,-1.3238,-1.3059,-1.284,-1.3035,-1.3133,-1.3133,-1.3246,-1.3327,-1.3368,-1.3368,-1.3465,-1.3612,-1.366,-1.3847,-1.4107,-1.4131,-1.4245,-1.4399,-1.4399,-1.4513,-1.4676,-1.4676,-1.4789,-1.4927,-1.4927,-1.4944,-1.4968,-1.4968,-1.4968,-1.4968,-1.4968,-1.4854,-1.4741,-1.4716,-1.4481,-1.4245,-1.4221,-1.4213,-1.4253,-1.4399,-1.4554,-1.4676,-1.47,-1.4806,-1.4911,-1.496,-1.4968,-1.4968,-1.4968,-1.4968,-1.4968,-1.4968,-1.4968,-1.4968,-1.4968,-1.4968,-1.4968,-1.4968,-1.4968,-1.4968,-1.4968,-1.4968,-1.4968,-1.4968,-1.4968,-1.4968,-1.4968,-1.4992,-1.4992,-1.4968,-1.4992,-1.4992,-1.4968,-1.4968,-1.4968,0.0,0.0,0.0,0.0,0.0,0.0,0.0,0.0,0.0,0.0,0.0,0.0,0.0,0.0,0.0,0.0,0.0,0.0,0.0,0.0,0.0,0.0,0.0,0.0,0.0,0.0,0.0,0.0,0.0,-1.3325,-1.3611,-1.3689,-1.3782,-1.3758,-1.3604,-1.3474,-1.3368,-1.3189,-1.3108,-1.3141,-1.3319,-1.3449,-1.3555,-1.3839,-1.3855,-1.3677,-1.3782,-1.392,-1.4091,-1.4196,-1.427,-1.4318,-1.4318,-1.4432,-1.4586,-1.4586,-1.47,-1.4854,-1.4854,-1.4903,-1.4968,-1.4968,-1.4968,-1.4968,-1.4968,-1.4903,-1.4838,-1.4935,-1.4765,-1.4554,-1.4554,-1.444,-1.4294,-1.4205,-1.4253,-1.4343,-1.4416,-1.4497,-1.4586,-1.4692,-1.4927,-1.5082,-1.4984,-1.4968,-1.4968,-1.4968,-1.4968,-1.4968,-1.4968,-1.4968,-1.4968,-1.4968,-1.4968,-1.4968,-1.4968,-1.4968,-1.4968,-1.4968,-1.4968,-1.4968,-1.4968,-1.4968,-1.4968,-1.4968,-1.4968,-1.4968,-1.4968,-1.4968,-1.4968,-1.4968,-1.4968,-1.4968,0.0,0.0,0.0,0.0,0.0,0.0,0.0,0.0,0.0,0.0,0.0,0.0,0.0,0.0,0.0,0.0,0.0,0.0,0.0,0.0,0.0,0.0,0.0,0.0,0.0,0.0,0.0,0.0,0.0,-1.3182,-1.3325,-1.3571,-1.3774,-1.3644,-1.3604,-1.349,-1.3303,-1.3165,-1.3165,-1.3303,-1.3579,-1.3774,-1.3912,-1.427,-1.431,-1.4115,-1.4205,-1.4318,-1.444,-1.4578,-1.4586,-1.4505,-1.4505,-1.4611,-1.4773,-1.4773,-1.4854,-1.4968,-1.4968,-1.4968,-1.4968,-1.4968,-1.4968,-1.496,-1.4911,-1.4814,-1.4724,-1.4806,-1.4611,-1.4375,-1.4424,-1.4399,-1.4351,-1.4261,-1.4375,-1.4513,-1.4554,-1.457,-1.4635,-1.4871,-1.509,-1.5195,-1.5057,-1.5,-1.4968,-1.4968,-1.4968,-1.4968,-1.4968,-1.4968,-1.4968,-1.4968,-1.4968,-1.4968,-1.4968,-1.4968,-1.4968,-1.4968,-1.4968,-1.4968,-1.4968,-1.4968,-1.4968,-1.4968,-1.4968,-1.4968,-1.4968,-1.4968,-1.4968,-1.4968,-1.4968,-1.4968,0.0,0.0,0.0,0.0,0.0,0.0,0.0,0.0,0.0,0.0,0.0,0.0,0.0,0.0,0.0,0.0,0.0,0.0,0.0,0.0,0.0,0.0,0.0,0.0,0.0,0.0,0.0,0.0,0.0,-1.2896,-1.3325,-1.3459,-1.3652,-1.3644,-1.3474,-1.3295,-1.3108,-1.31,-1.31,-1.3116,-1.3636,-1.3896,-1.3912,-1.427,-1.4513,-1.4659,-1.4489,-1.4424,-1.4432,-1.444,-1.4546,-1.4692,-1.4692,-1.4797,-1.4952,-1.4952,-1.496,-1.4968,-1.4968,-1.4968,-1.4968,-1.4968,-1.4968,-1.4935,-1.4773,-1.4716,-1.4676,-1.4505,-1.4326,-1.4229,-1.4391,-1.431,-1.4229,-1.4383,-1.4562,-1.4741,-1.4903,-1.4935,-1.5041,-1.5407,-1.535,-1.5236,-1.5228,-1.5082,-1.4968,-1.4968,-1.4968,-1.4968,-1.4968,-1.4968,-1.4968,-1.4968,-1.4968,-1.4968,-1.4968,-1.4968,-1.4968,-1.4968,-1.4968,-1.4968,-1.4968,-1.4968,-1.4968,-1.4968,-1.4968,-1.4968,-1.4968,-1.4968,-1.4968,-1.4968,-1.4968,-1.4968,0.0,0.0,0.0,0.0,0.0,0.0,0.0,0.0,0.0,0.0,0.0,0.0,0.0,0.0,0.0,0.0,0.0,0.0,0.0,0.0,0.0,0.0,0.0,0.0,0.0,0.0,0.0,0.0,0.0,0.0,-1.2896,-1.2986,-1.3138,-1.3058,-1.2959,-1.2904,-1.2862,-1.3359,-1.3612,-1.362,-1.4042,-1.4237,-1.4253,-1.4611,-1.4749,-1.4708,-1.4757,-1.4773,-1.4773,-1.4773,-1.4814,-1.4871,-1.4871,-1.4911,-1.4968,-1.4968,-1.4968,-1.4968,-1.4968,-1.4968,-1.4944,-1.4838,-1.4797,-1.4765,-1.4586,-1.4456,-1.4399,-1.4562,-1.4399,-1.4245,-1.4538,-1.4562,-1.4562,-1.4732,-1.4822,-1.496,-1.5252,-1.5317,-1.5358,-1.5488,-1.5463,-1.5382,-1.526,-1.509,-1.4968,-1.4968,-1.4968,-1.4968,-1.4968,-1.4968,-1.4968,-1.4968,-1.4968,-1.4968,-1.4968,-1.4968,-1.4968,-1.4968,-1.4968,-1.4968,-1.4968,-1.4968,-1.4968,-1.4968,-1.4968,-1.4968,-1.4968,-1.4968,-1.4968,-1.4968,-1.4968,-1.4968,0.0,0.0,0.0,0.0,0.0,0.0,0.0,0.0,0.0,0.0,0.0,0.0,0.0,0.0,0.0,0.0,0.0,0.0,0.0,0.0,0.0,0.0,0.0,0.0,0.0,0.0,0.0,0.0,0.0,0.0,-1.2617,-1.2753,-1.2798,-1.2858,-1.2711,-1.2711,-1.299,-1.3641,-1.3937,-1.4002,-1.4359,-1.4521,-1.4538,-1.483,-1.4903,-1.4797,-1.4919,-1.4968,-1.4968,-1.4968,-1.4968,-1.4968,-1.4968,-1.4968,-1.4968,-1.4968,-1.4968,-1.4968,-1.4968,-1.4927,-1.4862,-1.4749,-1.4667,-1.4594,-1.4473,-1.4351,-1.431,-1.4546,-1.4448,-1.4335,-1.4627,-1.4749,-1.4822,-1.4935,-1.5009,-1.5139,-1.5447,-1.5463,-1.5455,-1.5577,-1.5504,-1.5382,-1.526,-1.509,-1.4968,-1.4968,-1.4968,-1.4968,-1.4968,-1.4968,-1.4968,-1.4968,-1.4968,-1.4968,-1.4968,-1.4968,-1.4968,-1.4968,-1.4968,-1.4968,-1.4968,-1.4968,-1.4968,-1.4968,-1.4968,-1.4968,-1.4968,-1.4968,-1.4968,-1.4968,-1.4968,-1.4968,0.0,0.0,0.0,0.0,0.0,0.0,0.0,0.0,0.0,0.0,0.0,0.0,0.0,0.0,0.0,0.0,0.0,0.0,0.0,0.0,0.0,0.0,0.0,0.0,0.0,0.0,0.0,0.0,0.0,-1.2194,-1.2194,-1.261,-1.2745,-1.2745,-1.2719,-1.299,-1.3333,-1.3626,-1.401,-1.4196,-1.4546,-1.4716,-1.4724,-1.4887,-1.4968,-1.4968,-1.4968,-1.4968,-1.4968,-1.4968,-1.4968,-1.4968,-1.4968,-1.4968,-1.4968,-1.4968,-1.4968,-1.4968,-1.4968,-1.4854,-1.4716,-1.4708,-1.4586,-1.444,-1.4432,-1.4432,-1.4432,-1.444,-1.444,-1.4481,-1.4667,-1.4838,-1.4968,-1.4968,-1.5106,-1.5285,-1.5472,-1.5366,-1.5333,-1.5699,-1.548,-1.5236,-1.5236,-1.5082,-1.4968,-1.4968,-1.4968,-1.4968,-1.4968,-1.4968,-1.4968,-1.4968,-1.4968,-1.4968,-1.4968,-1.4968,-1.4968,-1.4968,-1.4968,-1.4968,-1.4968,-1.4968,-1.4968,-1.4968,-1.4968,-1.4968,-1.4968,-1.4968,-1.4968,-1.4968,-1.4968,-1.4968,-0.6141,0.0,0.0,0.0,0.0,0.0,0.0,0.0,0.0,0.0,0.0,0.0,0.0,0.0,0.0,0.0,0.0,0.0,0.0,0.0,0.0,0.0,0.0,0.0,0.0,0.0,0.0,0.0,-1.1763,-1.1907,-1.2194,-1.2222,-1.2158,-1.1733,-1.2071,-1.2321,-1.2641,-1.349,-1.3784,-1.3664,-1.4182,-1.4291,-1.3984,-1.403,-1.4045,-1.4045,-1.4361,-1.4515,-1.4515,-1.4814,-1.4968,-1.4968,-1.4968,-1.4968,-1.4968,-1.4968,-1.4968,-1.4968,-1.4968,-1.4935,-1.4871,-1.4749,-1.4676,-1.4603,-1.4473,-1.4432,-1.4456,-1.4594,-1.4635,-1.4676,-1.4846,-1.4927,-1.5,-1.513,-1.5098,-1.513,-1.5447,-1.5268,-1.5147,-1.552,-1.5398,-1.5195,-1.5065,-1.5,-1.4968,-1.4968,-1.4968,-1.4968,-1.4968,-1.4968,-1.4968,-1.4968,-1.4968,-1.4968,-1.4968,-1.4968,-1.4968,-1.4968,-1.4968,-1.4968,-1.4968,-1.4968,-1.4968,-1.4968,-1.4968,-1.4968,-1.4968,-1.4968,-1.4968,-1.4968,-1.4968,-1.4968,0.0,0.0,0.0,0.0,0.0,0.0,0.0,-1.0169,0.0,0.0,0.0,0.0,0.0,0.0,0.0,0.0,0.0,0.0,0.0,0.0,0.0,0.0,0.0,0.0,0.0,0.0,0.0,-1.1613,-1.1504,-1.1598,-1.1803,-1.1726,-1.1705,-1.1484,-1.1973,-1.2265,-1.2514,-1.3267,-1.3732,-1.3595,-1.4007,-1.3898,-1.3744,-1.3744,-1.3744,-1.3744,-1.4207,-1.4368,-1.4361,-1.4669,-1.4814,-1.4968,-1.4968,-1.4968,-1.4968,-1.4968,-1.4919,-1.4871,-1.4944,-1.4871,-1.4741,-1.4716,-1.4651,-1.4586,-1.4554,-1.4546,-1.4586,-1.4765,-1.4814,-1.4838,-1.4944,-1.4968,-1.4992,-1.5098,-1.5106,-1.5139,-1.5358,-1.5228,-1.5139,-1.5358,-1.5252,-1.509,-1.4984,-1.4968,-1.4968,-1.4968,-1.4968,-1.4968,-1.4968,-1.4968,-1.4968,-1.4968,-1.4968,-1.4968,-1.4968,-1.4968,-1.4968,-1.4968,-1.4968,-1.4968,-1.4968,-1.4968,-1.4968,-1.4968,-1.4968,-1.4968,-1.4968,-1.4968,-1.4968,-1.4968,-1.4968,-1.4968,0.0,0.0,0.0,0.0,0.0,0.0,-0.8107,-0.9335,-1.0555,0.0,0.0,0.0,0.0,0.0,0.0,0.0,0.0,0.0,0.0,0.0,0.0,0.0,0.0,0.0,0.0,-1.1253,-1.128,-1.1572,-1.1328,-1.1212,-1.1335,-1.1375,-1.1457,-1.1592,-1.2039,-1.2507,-1.2685,-1.3122,-1.342,-1.3583,-1.3583,-1.359,-1.3583,-1.3583,-1.3583,-1.359,-1.4053,-1.4207,-1.4207,-1.4361,-1.4515,-1.4968,-1.4968,-1.4968,-1.4968,-1.4968,-1.4879,-1.4789,-1.4919,-1.4773,-1.4546,-1.4692,-1.4627,-1.4521,-1.4684,-1.4732,-1.4765,-1.4919,-1.4968,-1.4968,-1.4968,-1.4968,-1.4968,-1.4992,-1.5106,-1.5212,-1.508,-1.522,-1.5212,-1.5055,-1.5074,-1.4968,-1.4968,-1.4968,-1.4968,-1.4968,-1.4968,-1.4968,-1.4968,-1.4968,-1.4976,-1.4992,-1.4976,-1.4976,-1.4992,-1.4976,-1.4968,-1.4968,-1.4968,-1.4968,-1.4968,-1.4968,-1.4968,-1.4968,-1.4968,-1.4968,-1.4968,-1.4968,-1.4968,-1.4968,-1.4968,-1.4968,0.0,0.0,0.0,0.0,0.0,0.0,-0.703,-0.8806,-1.0287,0.0,0.0,0.0,0.0,0.0,0.0,0.0,0.0,0.0,0.0,0.0,0.0,0.0,0.0,0.0,0.0,-1.1253,-1.124,-1.1423,-1.1267,-1.1124,-1.1036,-1.126,-1.1402,-1.1436,-1.1694,-1.2113,-1.2395,-1.287,-1.2963,-1.2811,-1.312,-1.312,-1.2656,-1.2656,-1.2656,-1.2811,-1.312,-1.3274,-1.3436,-1.3744,-1.4353,-1.4968,-1.4669,-1.4669,-1.4968,-1.4968,-1.5033,-1.5114,-1.5009,-1.5017,-1.5065,-1.4952,-1.4887,-1.4871,-1.4903,-1.4919,-1.4919,-1.496,-1.4968,-1.4968,-1.4669,-1.4814,-1.5,-1.468,-1.4788,-1.4903,-1.4735,-1.4967,-1.4871,-1.4562,-1.4838,-1.4968,-1.4968,-1.4968,-1.4968,-1.4968,-1.4968,-1.4968,-1.4968,-1.4968,-1.5025,-1.5171,-1.5057,-1.5025,-1.5171,-1.5049,-1.4968,-1.4968,-1.4968,-1.4968,-1.4968,-1.4968,-1.4968,-1.4968,-1.4968,-1.4968,-1.4968,-1.4968,-1.4968,-1.4968,-1.4968,-1.4968,0.0,0.0,0.0,-0.3103,0.0,0.0,0.0,-0.8035,-0.9643,0.0,0.0,0.0,0.0,0.0,0.0,0.0,0.0,0.0,0.0,0.0,0.0,0.0,0.0,0.0,0.0,-1.1145,-1.1056,-1.1056,-1.1056,-1.1056,-1.1056,-1.1199,-1.1382,-1.1606,-1.183,-1.206,-1.2291,-1.2505,-1.258,-1.2501,-1.2656,-1.2656,-1.2501,-1.2501,-1.2501,-1.2501,-1.2965,-1.312,-1.312,-1.3274,-1.3737,-1.4353,-1.4207,-1.4407,-1.478,-1.4384,-1.4716,-1.509,-1.4846,-1.4822,-1.4976,-1.4968,-1.4968,-1.4968,-1.4968,-1.4968,-1.4968,-1.4968,-1.4814,-1.4669,-1.4515,-1.4361,-1.4376,-1.4152,-1.4261,-1.4376,-1.4152,-1.4261,-1.4353,-1.4053,-1.4207,-1.4353,-1.4669,-1.4669,-1.4669,-1.4669,-1.4732,-1.4943,-1.5098,-1.5179,-1.5277,-1.5366,-1.5293,-1.512,-1.505,-1.5136,-1.5047,-1.4796,-1.4943,-1.4943,-1.4788,-1.4708,-1.4669,-1.4669,-1.4669,-1.4669,-1.4669,-1.4507,-1.4507,-1.4968,-1.4968,-1.4968,0.0,0.0,0.0,0.0,0.0,-0.4504,0.0,0.0,0.0,0.0,0.0,0.0,0.0,0.0,0.0,0.0,0.0,0.0,0.0,0.0,0.0,0.0,0.0,0.0,0.0,-1.1056,-1.0928,-1.0772,-1.0853,-1.0955,-1.107,-1.1131,-1.1355,-1.1775,-1.1965,-1.2149,-1.2332,-1.2447,-1.2501,-1.2501,-1.2501,-1.2501,-1.2501,-1.2501,-1.2501,-1.2501,-1.2811,-1.2965,-1.2965,-1.2965,-1.3141,-1.3479,-1.3634,-1.4004,-1.4399,-1.4011,-1.4276,-1.4863,-1.4407,-1.4475,-1.483,-1.4782,-1.4814,-1.4814,-1.4814,-1.4814,-1.4814,-1.4814,-1.4515,-1.4207,-1.4207,-1.3898,-1.3737,-1.359,-1.359,-1.3737,-1.359,-1.359,-1.3737,-1.359,-1.359,-1.3898,-1.4207,-1.4207,-1.4222,-1.4253,-1.4368,-1.4625,-1.4971,-1.5106,-1.5209,-1.5241,-1.5217,-1.505,-1.4754,-1.505,-1.4971,-1.4507,-1.4814,-1.4798,-1.4453,-1.433,-1.4245,-1.4207,-1.4245,-1.4245,-1.4207,-1.3929,-1.4083,-1.4814,-1.4814,-1.4814,0.0,0.0,0.0,0.0,-0.3191,0.0,0.0,0.0,0.0,0.0,0.0,0.0,0.0,0.0,0.0,0.0,0.0,0.0,0.0,0.0,0.0,0.0,0.0,0.0,0.0,-1.1151,-1.1077,-1.0934,-1.0812,-1.0751,-1.0772,-1.1023,-1.1307,-1.1633,-1.1918,-1.2196,-1.2474,-1.2494,-1.2501,-1.2501,-1.2501,-1.2501,-1.2501,-1.2501,-1.2501,-1.2501,-1.2501,-1.2501,-1.2501,-1.2501,-1.2738,-1.2862,-1.3176,-1.3567,-1.3804,-1.4072,-1.4395,-1.4579,-1.4117,-1.4579,-1.4999,-1.4091,-1.4207,-1.4361,-1.3898,-1.4207,-1.4361,-1.3898,-1.3744,-1.3744,-1.3274,-1.3428,-1.3583,-1.3274,-1.3428,-1.359,-1.3274,-1.3428,-1.359,-1.3274,-1.3428,-1.3744,-1.3744,-1.3744,-1.3796,-1.3945,-1.3983,-1.42,-1.4343,-1.4373,-1.4449,-1.4599,-1.4479,-1.4449,-1.4437,-1.4479,-1.4381,-1.4199,-1.4358,-1.4298,-1.3998,-1.3975,-1.3893,-1.3744,-1.3893,-1.3893,-1.3744,-1.3893,-1.4205,-1.4515,-1.4053,-1.4053,0.0,0.0,0.0,0.0,0.0,0.0,0.0,0.0,-0.6439,0.0,0.0,0.0,0.0,0.0,0.0,0.0,0.0,0.0,0.0,0.0,0.0,0.0,0.0,0.0,0.0,0.0,0.0,0.0,-1.0887,-1.0853,-1.0853,-1.105,-1.1341,-1.1728,-1.1952,-1.2203,-1.2501,-1.2501,-1.2501,-1.2501,-1.2501,-1.2501,-1.2501,-1.2501,-1.2501,-1.2501,-1.2501,-1.2501,-1.2508,-1.2596,-1.2671,-1.2745,-1.3082,-1.3373,-1.3562,-1.3547,-1.3865,-1.4283,-1.3966,-1.4124,-1.4576,-1.4094,-1.3981,-1.3898,-1.3744,-1.3898,-1.3898,-1.3744,-1.359,-1.3274,-1.312,-1.312,-1.2965,-1.2811,-1.2811,-1.2965,-1.2811,-1.2811,-1.2965,-1.2811,-1.2965,-1.2993,-1.3085,-1.3262,-1.344,-1.3512,-1.3836,-1.3975,-1.437,-1.4452,-1.4534,-1.4609,-1.4549,-1.4378,-1.4288,-1.4393,-1.4305,-1.4055,-1.4048,-1.3975,-1.3814,-1.3807,-1.3734,-1.3418,-1.3545,-1.3545,-1.3418,-1.3326,-1.3483,-1.373,-1.3886,-1.3989,-0.2121,0.0,0.0,0.0,0.0,0.0,0.0,0.0,0.0,0.0,0.0,0.0,0.0,0.0,0.0,0.0,0.0,0.0,0.0,0.0,0.0,0.0,0.0,0.0,0.0,0.0,0.0,0.0,0.0,-1.0928,-1.0887,-1.1063,-1.1348,-1.1762,-1.1959,-1.2203,-1.2501,-1.2501,-1.2501,-1.2501,-1.2501,-1.2501,-1.2501,-1.2501,-1.2501,-1.2501,-1.2501,-1.2528,-1.2576,-1.2684,-1.2779,-1.2874,-1.3085,-1.3267,-1.3493,-1.3226,-1.3507,-1.3909,-1.3589,-1.3532,-1.3756,-1.3804,-1.3686,-1.3583,-1.3428,-1.3428,-1.3583,-1.3428,-1.312,-1.2965,-1.2965,-1.2656,-1.2501,-1.2501,-1.2501,-1.2501,-1.2501,-1.2501,-1.2515,-1.2556,-1.2562,-1.261,-1.2766,-1.2917,-1.3232,-1.3317,-1.3521,-1.3846,-1.4215,-1.4317,-1.4383,-1.4383,-1.4383,-1.4225,-1.3901,-1.4225,-1.4174,-1.3732,-1.369,-1.3612,-1.3493,-1.3493,-1.3422,-1.3275,-1.3197,-1.319,-1.3268,-1.2992,-1.2992,-1.3268,-1.354,-1.3589,0.0,0.0,0.0,-0.2154,0.0,0.0,0.0,0.0,-0.4699,0.0,0.0,0.0,0.0,0.0,0.0,0.0,0.0,0.0,0.0,0.0,0.0,0.0,0.0,0.0,0.0,0.0,0.0,0.0,0.0,0.0,-1.0738,-1.1002,-1.1307,-1.1613,-1.1911,-1.2203,-1.2501,-1.2501,-1.2501,-1.2501,-1.2501,-1.2501,-1.2501,-1.2501,-1.2501,-1.2501,-1.2501,-1.2583,-1.2725,-1.2725,-1.2901,-1.3159,-1.3166,-1.3166,-1.3186,-1.3336,-1.3526,-1.3589,-1.3116,-1.2766,-1.267,-1.2979,-1.3127,-1.312,-1.2656,-1.2811,-1.2965,-1.2656,-1.2501,-1.2501,-1.2501,-1.2501,-1.2501,-1.2501,-1.2501,-1.2501,-1.2501,-1.2501,-1.2549,-1.2691,-1.2725,-1.2773,-1.2929,-1.2827,-1.2827,-1.3112,-1.3166,-1.3227,-1.3376,-1.3397,-1.3403,-1.3403,-1.3403,-1.3403,-1.3403,-1.3397,-1.3397,-1.3397,-1.3254,-1.3173,-1.3166,-1.3166,-1.3098,-1.2956,-1.3085,-1.3085,-1.2956,-1.3091,-1.3085,-1.2949,-1.28,-1.2807,0.0,0.0,-0.2155,-0.2155,0.0,0.0,0.0,0.0,0.0,0.0,0.0,0.0,0.0,0.0,0.0,0.0,0.0,0.0,0.0,0.0,0.0,0.0,0.0,0.0,0.0,0.0,0.0,0.0,0.0,0.0,0.0,-1.1056,-1.1301,-1.1606,-1.1911,-1.2203,-1.2501,-1.2501,-1.2501,-1.2501,-1.2501,-1.2501,-1.2501,-1.2501,-1.2501,-1.2501,-1.2501,-1.2589,-1.2739,-1.284,-1.2996,-1.3186,-1.3288,-1.3322,-1.3329,-1.3383,-1.3439,-1.326,-1.3098,-1.2901,-1.2651,-1.2807,-1.2738,-1.2656,-1.2501,-1.2656,-1.2656,-1.2501,-1.2501,-1.2501,-1.2501,-1.2501,-1.2501,-1.2501,-1.2576,-1.2651,-1.2651,-1.2732,-1.282,-1.2874,-1.2881,-1.2929,-1.3078,-1.3057,-1.3057,-1.3159,-1.3261,-1.3342,-1.3397,-1.3403,-1.3403,-1.3403,-1.3403,-1.3403,-1.3403,-1.3403,-1.3403,-1.3403,-1.3349,-1.3322,-1.3322,-1.3227,-1.3152,-1.3105,-1.3057,-1.3057,-1.3098,-1.3152,-1.3146,-1.3098,-1.2949,-1.3013,-0.2155,-0.2147,0.0,-0.2139,-0.2139,0.0,-0.2139,0.0,0.0,0.0,0.0,0.0,0.0,0.0,0.0,0.0,0.0,0.0,0.0,0.0,0.0,0.0,0.0,0.0,0.0,0.0,0.0,0.0,0.0,0.0,0.0,0.0,-1.1301,-1.1606,-1.1911,-1.2203,-1.2501,-1.2501,-1.2501,-1.2501,-1.2501,-1.2501,-1.2501,-1.2501,-1.2501,-1.2508,-1.2562,-1.2671,-1.2827,-1.2976,-1.3119,-1.3261,-1.3363,-1.3403,-1.3403,-1.3403,-1.3275,-1.3098,-1.3098,-1.2901,-1.2651,-1.2651,-1.2583,-1.2501,-1.2501,-1.2501,-1.2549,-1.2759,-1.2705,-1.263,-1.2847,-1.2786,-1.2664,-1.2664,-1.2739,-1.2813,-1.2813,-1.2888,-1.2976,-1.3024,-1.3037,-1.3085,-1.3227,-1.3254,-1.3254,-1.3254,-1.3336,-1.3403,-1.3403,-1.3403,-1.3403,-1.3403,-1.3403,-1.3403,-1.3403,-1.3403,-1.3403,-1.3403,-1.3403,-1.3403,-1.3403,-1.3308,-1.3302,-1.341,-1.322,-1.3214,-1.341,-1.3302,-1.3254,-1.3247,-1.3105,-1.3064]}]]